<?xml version="1.0" encoding="UTF-8" standalone="no" ?>
<gpx xmlns="http://www.topografix.com/GPX/1/1" xmlns:xsi="http://www.w3.org/2001/XMLSchema-instance" xsi:schemaLocation="http://www.topografix.com/GPX/1/1 http://www.topografix.com/GPX/1/1/gpx.xsd" version="1.1" creator="VisuGPX - https://www.visugpx.com">
  <metadata>
    <name>lundi 2025</name>
  </metadata>
  <wpt lat="45.19791" lon="0.35816">
    <ele>153.5</ele>
    <name><![CDATA[Ravitaillement]]></name>
  </wpt>
  <wpt lat="45.19792" lon="0.35814">
    <ele>153.2</ele>
    <name><![CDATA[Ravitaillement]]></name>
  </wpt>
  <trk>
    <name><![CDATA[lundi 88 km]]></name>
    <extensions>
      <line xmlns="http://www.topografix.com/GPX/gpx_style/0/2">
        <color>ff0000</color>
        <width>6</width>
          <extensions>
            <sens>1</sens>
          </extensions>
      </line>
    </extensions>
    <trkseg>
      <trkpt lat="45.24959" lon="0.33704">
        <ele>72</ele>
        <time>2025-04-16T07:02:28Z</time>
      </trkpt>
      <trkpt lat="45.24959" lon="0.33705">
        <ele>72</ele>
        <time>2025-04-16T07:02:28Z</time>
      </trkpt>
      <trkpt lat="45.24984" lon="0.337">
        <ele>72</ele>
        <time>2025-04-16T07:02:33Z</time>
      </trkpt>
      <trkpt lat="45.25001" lon="0.33696">
        <ele>72</ele>
        <time>2025-04-16T07:02:36Z</time>
      </trkpt>
      <trkpt lat="45.25015" lon="0.33694">
        <ele>71</ele>
        <time>2025-04-16T07:02:38Z</time>
      </trkpt>
      <trkpt lat="45.2503" lon="0.33691">
        <ele>71</ele>
        <time>2025-04-16T07:02:41Z</time>
      </trkpt>
      <trkpt lat="45.25043" lon="0.33688">
        <ele>71</ele>
        <time>2025-04-16T07:02:43Z</time>
      </trkpt>
      <trkpt lat="45.25052" lon="0.33686">
        <ele>71</ele>
        <time>2025-04-16T07:02:45Z</time>
      </trkpt>
      <trkpt lat="45.25077" lon="0.33681">
        <ele>70</ele>
        <time>2025-04-16T07:02:49Z</time>
      </trkpt>
      <trkpt lat="45.25073" lon="0.33623">
        <ele>71</ele>
        <time>2025-04-16T07:02:57Z</time>
      </trkpt>
      <trkpt lat="45.25076" lon="0.33593">
        <ele>72</ele>
        <time>2025-04-16T07:03:00Z</time>
      </trkpt>
      <trkpt lat="45.25116" lon="0.33599">
        <ele>72</ele>
        <time>2025-04-16T07:03:08Z</time>
      </trkpt>
      <trkpt lat="45.25248" lon="0.33621">
        <ele>72</ele>
        <time>2025-04-16T07:03:31Z</time>
      </trkpt>
      <trkpt lat="45.25271" lon="0.33624">
        <ele>72</ele>
        <time>2025-04-16T07:03:35Z</time>
      </trkpt>
      <trkpt lat="45.25296" lon="0.33628">
        <ele>72</ele>
        <time>2025-04-16T07:03:40Z</time>
      </trkpt>
      <trkpt lat="45.25316" lon="0.3363">
        <ele>71</ele>
        <time>2025-04-16T07:03:43Z</time>
      </trkpt>
      <trkpt lat="45.25437" lon="0.3365">
        <ele>69</ele>
        <time>2025-04-16T07:04:05Z</time>
      </trkpt>
      <trkpt lat="45.25452" lon="0.33655">
        <ele>70</ele>
        <time>2025-04-16T07:04:08Z</time>
      </trkpt>
      <trkpt lat="45.2553" lon="0.33667">
        <ele>70</ele>
        <time>2025-04-16T07:04:22Z</time>
      </trkpt>
      <trkpt lat="45.25536" lon="0.33672">
        <ele>70</ele>
        <time>2025-04-16T07:04:23Z</time>
      </trkpt>
      <trkpt lat="45.25539" lon="0.33679">
        <ele>69</ele>
        <time>2025-04-16T07:04:24Z</time>
      </trkpt>
      <trkpt lat="45.25541" lon="0.33708">
        <ele>69</ele>
        <time>2025-04-16T07:04:28Z</time>
      </trkpt>
      <trkpt lat="45.25547" lon="0.33741">
        <ele>68</ele>
        <time>2025-04-16T07:04:32Z</time>
      </trkpt>
      <trkpt lat="45.2555" lon="0.33766">
        <ele>68</ele>
        <time>2025-04-16T07:04:35Z</time>
      </trkpt>
      <trkpt lat="45.25549" lon="0.33787">
        <ele>67</ele>
        <time>2025-04-16T07:04:38Z</time>
      </trkpt>
      <trkpt lat="45.25547" lon="0.33806">
        <ele>67</ele>
        <time>2025-04-16T07:04:40Z</time>
      </trkpt>
      <trkpt lat="45.25523" lon="0.3393">
        <ele>65</ele>
        <time>2025-04-16T07:04:56Z</time>
      </trkpt>
      <trkpt lat="45.25514" lon="0.33974">
        <ele>64</ele>
        <time>2025-04-16T07:05:02Z</time>
      </trkpt>
      <trkpt lat="45.25513" lon="0.33978">
        <ele>64</ele>
        <time>2025-04-16T07:05:03Z</time>
      </trkpt>
      <trkpt lat="45.25507" lon="0.3401">
        <ele>64</ele>
        <time>2025-04-16T07:05:07Z</time>
      </trkpt>
      <trkpt lat="45.255" lon="0.34039">
        <ele>64</ele>
        <time>2025-04-16T07:05:11Z</time>
      </trkpt>
      <trkpt lat="45.25494" lon="0.34054">
        <ele>65</ele>
        <time>2025-04-16T07:05:13Z</time>
      </trkpt>
      <trkpt lat="45.25489" lon="0.34062">
        <ele>65</ele>
        <time>2025-04-16T07:05:14Z</time>
      </trkpt>
      <trkpt lat="45.25484" lon="0.34069">
        <ele>66</ele>
        <time>2025-04-16T07:05:15Z</time>
      </trkpt>
      <trkpt lat="45.25469" lon="0.34083">
        <ele>66</ele>
        <time>2025-04-16T07:05:18Z</time>
      </trkpt>
      <trkpt lat="45.25455" lon="0.34092">
        <ele>67</ele>
        <time>2025-04-16T07:05:21Z</time>
      </trkpt>
      <trkpt lat="45.25452" lon="0.34092">
        <ele>67</ele>
        <time>2025-04-16T07:05:22Z</time>
      </trkpt>
      <trkpt lat="45.25446" lon="0.34095">
        <ele>68</ele>
        <time>2025-04-16T07:05:23Z</time>
      </trkpt>
      <trkpt lat="45.25429" lon="0.34096">
        <ele>69</ele>
        <time>2025-04-16T07:05:26Z</time>
      </trkpt>
      <trkpt lat="45.25406" lon="0.34086">
        <ele>70</ele>
        <time>2025-04-16T07:05:30Z</time>
      </trkpt>
      <trkpt lat="45.25396" lon="0.34079">
        <ele>71</ele>
        <time>2025-04-16T07:05:32Z</time>
      </trkpt>
      <trkpt lat="45.25371" lon="0.34061">
        <ele>72</ele>
        <time>2025-04-16T07:05:37Z</time>
      </trkpt>
      <trkpt lat="45.25323" lon="0.34039">
        <ele>74</ele>
        <time>2025-04-16T07:05:46Z</time>
      </trkpt>
      <trkpt lat="45.25244" lon="0.34003">
        <ele>76</ele>
        <time>2025-04-16T07:06:01Z</time>
      </trkpt>
      <trkpt lat="45.25132" lon="0.33956">
        <ele>77</ele>
        <time>2025-04-16T07:06:22Z</time>
      </trkpt>
      <trkpt lat="45.25078" lon="0.33938">
        <ele>77</ele>
        <time>2025-04-16T07:06:32Z</time>
      </trkpt>
      <trkpt lat="45.25059" lon="0.33935">
        <ele>77</ele>
        <time>2025-04-16T07:06:35Z</time>
      </trkpt>
      <trkpt lat="45.25036" lon="0.33934">
        <ele>77</ele>
        <time>2025-04-16T07:06:39Z</time>
      </trkpt>
      <trkpt lat="45.25001" lon="0.33939">
        <ele>79</ele>
        <time>2025-04-16T07:06:45Z</time>
      </trkpt>
      <trkpt lat="45.24939" lon="0.33964">
        <ele>78</ele>
        <time>2025-04-16T07:06:57Z</time>
      </trkpt>
      <trkpt lat="45.24933" lon="0.33966">
        <ele>77</ele>
        <time>2025-04-16T07:06:58Z</time>
      </trkpt>
      <trkpt lat="45.2489" lon="0.33984">
        <ele>76</ele>
        <time>2025-04-16T07:07:06Z</time>
      </trkpt>
      <trkpt lat="45.24825" lon="0.3401">
        <ele>77</ele>
        <time>2025-04-16T07:07:18Z</time>
      </trkpt>
      <trkpt lat="45.24833" lon="0.34043">
        <ele>80</ele>
        <time>2025-04-16T07:07:22Z</time>
      </trkpt>
      <trkpt lat="45.24833" lon="0.34061">
        <ele>81</ele>
        <time>2025-04-16T07:07:24Z</time>
      </trkpt>
      <trkpt lat="45.24824" lon="0.34087">
        <ele>84</ele>
        <time>2025-04-16T07:07:28Z</time>
      </trkpt>
      <trkpt lat="45.2482" lon="0.34096">
        <ele>85</ele>
        <time>2025-04-16T07:07:29Z</time>
      </trkpt>
      <trkpt lat="45.24809" lon="0.34106">
        <ele>86</ele>
        <time>2025-04-16T07:07:32Z</time>
      </trkpt>
      <trkpt lat="45.24792" lon="0.34117">
        <ele>88</ele>
        <time>2025-04-16T07:07:35Z</time>
      </trkpt>
      <trkpt lat="45.24781" lon="0.34138">
        <ele>90</ele>
        <time>2025-04-16T07:07:38Z</time>
      </trkpt>
      <trkpt lat="45.24767" lon="0.34166">
        <ele>93</ele>
        <time>2025-04-16T07:07:43Z</time>
      </trkpt>
      <trkpt lat="45.24753" lon="0.34181">
        <ele>94</ele>
        <time>2025-04-16T07:07:46Z</time>
      </trkpt>
      <trkpt lat="45.24738" lon="0.34189">
        <ele>95</ele>
        <time>2025-04-16T07:07:49Z</time>
      </trkpt>
      <trkpt lat="45.24731" lon="0.34194">
        <ele>95</ele>
        <time>2025-04-16T07:07:50Z</time>
      </trkpt>
      <trkpt lat="45.24711" lon="0.34225">
        <ele>98</ele>
        <time>2025-04-16T07:07:55Z</time>
      </trkpt>
      <trkpt lat="45.24706" lon="0.34231">
        <ele>99</ele>
        <time>2025-04-16T07:07:56Z</time>
      </trkpt>
      <trkpt lat="45.247" lon="0.34244">
        <ele>100</ele>
        <time>2025-04-16T07:07:58Z</time>
      </trkpt>
      <trkpt lat="45.24692" lon="0.34263">
        <ele>102</ele>
        <time>2025-04-16T07:08:01Z</time>
      </trkpt>
      <trkpt lat="45.24691" lon="0.34272">
        <ele>103</ele>
        <time>2025-04-16T07:08:02Z</time>
      </trkpt>
      <trkpt lat="45.24694" lon="0.3429">
        <ele>105</ele>
        <time>2025-04-16T07:08:05Z</time>
      </trkpt>
      <trkpt lat="45.24699" lon="0.34302">
        <ele>106</ele>
        <time>2025-04-16T07:08:06Z</time>
      </trkpt>
      <trkpt lat="45.24705" lon="0.34314">
        <ele>106</ele>
        <time>2025-04-16T07:08:08Z</time>
      </trkpt>
      <trkpt lat="45.2472" lon="0.34346">
        <ele>108</ele>
        <time>2025-04-16T07:08:13Z</time>
      </trkpt>
      <trkpt lat="45.24726" lon="0.34365">
        <ele>110</ele>
        <time>2025-04-16T07:08:16Z</time>
      </trkpt>
      <trkpt lat="45.24726" lon="0.3437">
        <ele>110</ele>
        <time>2025-04-16T07:08:16Z</time>
      </trkpt>
      <trkpt lat="45.24723" lon="0.34389">
        <ele>112</ele>
        <time>2025-04-16T07:08:19Z</time>
      </trkpt>
      <trkpt lat="45.24713" lon="0.34415">
        <ele>115</ele>
        <time>2025-04-16T07:08:22Z</time>
      </trkpt>
      <trkpt lat="45.24699" lon="0.34444">
        <ele>116</ele>
        <time>2025-04-16T07:08:27Z</time>
      </trkpt>
      <trkpt lat="45.24694" lon="0.3446">
        <ele>116</ele>
        <time>2025-04-16T07:08:29Z</time>
      </trkpt>
      <trkpt lat="45.2469" lon="0.34479">
        <ele>117</ele>
        <time>2025-04-16T07:08:32Z</time>
      </trkpt>
      <trkpt lat="45.24688" lon="0.34508">
        <ele>118</ele>
        <time>2025-04-16T07:08:35Z</time>
      </trkpt>
      <trkpt lat="45.24687" lon="0.34533">
        <ele>118</ele>
        <time>2025-04-16T07:08:38Z</time>
      </trkpt>
      <trkpt lat="45.24685" lon="0.34551">
        <ele>118</ele>
        <time>2025-04-16T07:08:41Z</time>
      </trkpt>
      <trkpt lat="45.24684" lon="0.34557">
        <ele>118</ele>
        <time>2025-04-16T07:08:41Z</time>
      </trkpt>
      <trkpt lat="45.24674" lon="0.34633">
        <ele>119</ele>
        <time>2025-04-16T07:08:51Z</time>
      </trkpt>
      <trkpt lat="45.24664" lon="0.34689">
        <ele>119</ele>
        <time>2025-04-16T07:08:58Z</time>
      </trkpt>
      <trkpt lat="45.2465" lon="0.34736">
        <ele>118</ele>
        <time>2025-04-16T07:09:05Z</time>
      </trkpt>
      <trkpt lat="45.24638" lon="0.34761">
        <ele>118</ele>
        <time>2025-04-16T07:09:08Z</time>
      </trkpt>
      <trkpt lat="45.24622" lon="0.34794">
        <ele>118</ele>
        <time>2025-04-16T07:09:13Z</time>
      </trkpt>
      <trkpt lat="45.24592" lon="0.34867">
        <ele>121</ele>
        <time>2025-04-16T07:09:24Z</time>
      </trkpt>
      <trkpt lat="45.24557" lon="0.34949">
        <ele>121</ele>
        <time>2025-04-16T07:09:36Z</time>
      </trkpt>
      <trkpt lat="45.24541" lon="0.35017">
        <ele>123</ele>
        <time>2025-04-16T07:09:45Z</time>
      </trkpt>
      <trkpt lat="45.24519" lon="0.35133">
        <ele>126</ele>
        <time>2025-04-16T07:10:00Z</time>
      </trkpt>
      <trkpt lat="45.24505" lon="0.352">
        <ele>128</ele>
        <time>2025-04-16T07:10:09Z</time>
      </trkpt>
      <trkpt lat="45.24453" lon="0.35389">
        <ele>131</ele>
        <time>2025-04-16T07:10:34Z</time>
      </trkpt>
      <trkpt lat="45.24443" lon="0.35449">
        <ele>133</ele>
        <time>2025-04-16T07:10:42Z</time>
      </trkpt>
      <trkpt lat="45.24435" lon="0.35502">
        <ele>135</ele>
        <time>2025-04-16T07:10:49Z</time>
      </trkpt>
      <trkpt lat="45.24434" lon="0.35515">
        <ele>135</ele>
        <time>2025-04-16T07:10:50Z</time>
      </trkpt>
      <trkpt lat="45.24395" lon="0.35656">
        <ele>134</ele>
        <time>2025-04-16T07:11:09Z</time>
      </trkpt>
      <trkpt lat="45.24397" lon="0.35668">
        <ele>134</ele>
        <time>2025-04-16T07:11:11Z</time>
      </trkpt>
      <trkpt lat="45.24391" lon="0.3571">
        <ele>134</ele>
        <time>2025-04-16T07:11:16Z</time>
      </trkpt>
      <trkpt lat="45.24383" lon="0.35745">
        <ele>134</ele>
        <time>2025-04-16T07:11:21Z</time>
      </trkpt>
      <trkpt lat="45.24374" lon="0.35769">
        <ele>133</ele>
        <time>2025-04-16T07:11:24Z</time>
      </trkpt>
      <trkpt lat="45.24344" lon="0.35833">
        <ele>132</ele>
        <time>2025-04-16T07:11:34Z</time>
      </trkpt>
      <trkpt lat="45.24304" lon="0.35912">
        <ele>132</ele>
        <time>2025-04-16T07:11:46Z</time>
      </trkpt>
      <trkpt lat="45.24227" lon="0.36052">
        <ele>135</ele>
        <time>2025-04-16T07:12:08Z</time>
      </trkpt>
      <trkpt lat="45.24168" lon="0.36168">
        <ele>141</ele>
        <time>2025-04-16T07:12:26Z</time>
      </trkpt>
      <trkpt lat="45.24143" lon="0.36216">
        <ele>142</ele>
        <time>2025-04-16T07:12:34Z</time>
      </trkpt>
      <trkpt lat="45.24098" lon="0.36293">
        <ele>142</ele>
        <time>2025-04-16T07:12:46Z</time>
      </trkpt>
      <trkpt lat="45.24069" lon="0.36328">
        <ele>142</ele>
        <time>2025-04-16T07:12:53Z</time>
      </trkpt>
      <trkpt lat="45.24043" lon="0.3636">
        <ele>142</ele>
        <time>2025-04-16T07:12:59Z</time>
      </trkpt>
      <trkpt lat="45.2399" lon="0.36433">
        <ele>144</ele>
        <time>2025-04-16T07:13:12Z</time>
      </trkpt>
      <trkpt lat="45.23985" lon="0.36445">
        <ele>144</ele>
        <time>2025-04-16T07:13:14Z</time>
      </trkpt>
      <trkpt lat="45.23892" lon="0.36665">
        <ele>144</ele>
        <time>2025-04-16T07:13:46Z</time>
      </trkpt>
      <trkpt lat="45.23877" lon="0.36705">
        <ele>143</ele>
        <time>2025-04-16T07:13:52Z</time>
      </trkpt>
      <trkpt lat="45.23857" lon="0.36749">
        <ele>143</ele>
        <time>2025-04-16T07:13:59Z</time>
      </trkpt>
      <trkpt lat="45.23804" lon="0.36884">
        <ele>142</ele>
        <time>2025-04-16T07:14:18Z</time>
      </trkpt>
      <trkpt lat="45.23797" lon="0.36902">
        <ele>141</ele>
        <time>2025-04-16T07:14:20Z</time>
      </trkpt>
      <trkpt lat="45.23785" lon="0.36923">
        <ele>141</ele>
        <time>2025-04-16T07:14:24Z</time>
      </trkpt>
      <trkpt lat="45.23719" lon="0.37022">
        <ele>141</ele>
        <time>2025-04-16T07:14:41Z</time>
      </trkpt>
      <trkpt lat="45.23711" lon="0.37014">
        <ele>141</ele>
        <time>2025-04-16T07:14:43Z</time>
      </trkpt>
      <trkpt lat="45.23719" lon="0.37022">
        <ele>141</ele>
        <time>2025-04-16T07:14:44Z</time>
      </trkpt>
      <trkpt lat="45.23619" lon="0.37169">
        <ele>141</ele>
        <time>2025-04-16T07:15:10Z</time>
      </trkpt>
      <trkpt lat="45.23385" lon="0.37246">
        <ele>144</ele>
        <time>2025-04-16T07:15:53Z</time>
      </trkpt>
      <trkpt lat="45.2336" lon="0.37262">
        <ele>144</ele>
        <time>2025-04-16T07:15:58Z</time>
      </trkpt>
      <trkpt lat="45.23328" lon="0.37278">
        <ele>145</ele>
        <time>2025-04-16T07:16:04Z</time>
      </trkpt>
      <trkpt lat="45.23246" lon="0.37325">
        <ele>149</ele>
        <time>2025-04-16T07:16:19Z</time>
      </trkpt>
      <trkpt lat="45.23228" lon="0.37327">
        <ele>149</ele>
        <time>2025-04-16T07:16:23Z</time>
      </trkpt>
      <trkpt lat="45.23206" lon="0.37326">
        <ele>150</ele>
        <time>2025-04-16T07:16:27Z</time>
      </trkpt>
      <trkpt lat="45.22981" lon="0.37189">
        <ele>153</ele>
        <time>2025-04-16T07:17:10Z</time>
      </trkpt>
      <trkpt lat="45.229" lon="0.37142">
        <ele>156</ele>
        <time>2025-04-16T07:17:26Z</time>
      </trkpt>
      <trkpt lat="45.22865" lon="0.37126">
        <ele>158</ele>
        <time>2025-04-16T07:17:32Z</time>
      </trkpt>
      <trkpt lat="45.22857" lon="0.37124">
        <ele>158</ele>
        <time>2025-04-16T07:17:34Z</time>
      </trkpt>
      <trkpt lat="45.22844" lon="0.37121">
        <ele>158</ele>
        <time>2025-04-16T07:17:36Z</time>
      </trkpt>
      <trkpt lat="45.22825" lon="0.37123">
        <ele>158</ele>
        <time>2025-04-16T07:17:39Z</time>
      </trkpt>
      <trkpt lat="45.22763" lon="0.37154">
        <ele>157</ele>
        <time>2025-04-16T07:17:51Z</time>
      </trkpt>
      <trkpt lat="45.22696" lon="0.372">
        <ele>155</ele>
        <time>2025-04-16T07:18:04Z</time>
      </trkpt>
      <trkpt lat="45.22665" lon="0.37222">
        <ele>155</ele>
        <time>2025-04-16T07:18:11Z</time>
      </trkpt>
      <trkpt lat="45.22637" lon="0.37249">
        <ele>155</ele>
        <time>2025-04-16T07:18:17Z</time>
      </trkpt>
      <trkpt lat="45.22612" lon="0.37279">
        <ele>155</ele>
        <time>2025-04-16T07:18:22Z</time>
      </trkpt>
      <trkpt lat="45.22408" lon="0.37573">
        <ele>160</ele>
        <time>2025-04-16T07:19:14Z</time>
      </trkpt>
      <trkpt lat="45.224" lon="0.37587">
        <ele>160</ele>
        <time>2025-04-16T07:19:16Z</time>
      </trkpt>
      <trkpt lat="45.22371" lon="0.37612">
        <ele>159</ele>
        <time>2025-04-16T07:19:22Z</time>
      </trkpt>
      <trkpt lat="45.22288" lon="0.37701">
        <ele>156</ele>
        <time>2025-04-16T07:19:41Z</time>
      </trkpt>
      <trkpt lat="45.22203" lon="0.37787">
        <ele>157</ele>
        <time>2025-04-16T07:19:59Z</time>
      </trkpt>
      <trkpt lat="45.22142" lon="0.37835">
        <ele>158</ele>
        <time>2025-04-16T07:20:12Z</time>
      </trkpt>
      <trkpt lat="45.22092" lon="0.37856">
        <ele>157</ele>
        <time>2025-04-16T07:20:21Z</time>
      </trkpt>
      <trkpt lat="45.21954" lon="0.37902">
        <ele>160</ele>
        <time>2025-04-16T07:20:46Z</time>
      </trkpt>
      <trkpt lat="45.2189" lon="0.37917">
        <ele>163</ele>
        <time>2025-04-16T07:20:58Z</time>
      </trkpt>
      <trkpt lat="45.21778" lon="0.37942">
        <ele>171</ele>
        <time>2025-04-16T07:21:18Z</time>
      </trkpt>
      <trkpt lat="45.21698" lon="0.37951">
        <ele>175</ele>
        <time>2025-04-16T07:21:32Z</time>
      </trkpt>
      <trkpt lat="45.21668" lon="0.37946">
        <ele>176</ele>
        <time>2025-04-16T07:21:38Z</time>
      </trkpt>
      <trkpt lat="45.21641" lon="0.37934">
        <ele>176</ele>
        <time>2025-04-16T07:21:43Z</time>
      </trkpt>
      <trkpt lat="45.21625" lon="0.37922">
        <ele>177</ele>
        <time>2025-04-16T07:21:46Z</time>
      </trkpt>
      <trkpt lat="45.21599" lon="0.37902">
        <ele>180</ele>
        <time>2025-04-16T07:21:51Z</time>
      </trkpt>
      <trkpt lat="45.21562" lon="0.3789">
        <ele>183</ele>
        <time>2025-04-16T07:21:58Z</time>
      </trkpt>
      <trkpt lat="45.21514" lon="0.37907">
        <ele>186</ele>
        <time>2025-04-16T07:22:07Z</time>
      </trkpt>
      <trkpt lat="45.21468" lon="0.37902">
        <ele>185</ele>
        <time>2025-04-16T07:22:15Z</time>
      </trkpt>
      <trkpt lat="45.21434" lon="0.37875">
        <ele>186</ele>
        <time>2025-04-16T07:22:22Z</time>
      </trkpt>
      <trkpt lat="45.2141" lon="0.37836">
        <ele>192</ele>
        <time>2025-04-16T07:22:28Z</time>
      </trkpt>
      <trkpt lat="45.21383" lon="0.37803">
        <ele>194</ele>
        <time>2025-04-16T07:22:35Z</time>
      </trkpt>
      <trkpt lat="45.21333" lon="0.37782">
        <ele>194</ele>
        <time>2025-04-16T07:22:44Z</time>
      </trkpt>
      <trkpt lat="45.21285" lon="0.37777">
        <ele>195</ele>
        <time>2025-04-16T07:22:53Z</time>
      </trkpt>
      <trkpt lat="45.21231" lon="0.37797">
        <ele>195</ele>
        <time>2025-04-16T07:23:03Z</time>
      </trkpt>
      <trkpt lat="45.21176" lon="0.37826">
        <ele>193</ele>
        <time>2025-04-16T07:23:13Z</time>
      </trkpt>
      <trkpt lat="45.21107" lon="0.37854">
        <ele>192</ele>
        <time>2025-04-16T07:23:26Z</time>
      </trkpt>
      <trkpt lat="45.20989" lon="0.37898">
        <ele>189</ele>
        <time>2025-04-16T07:23:47Z</time>
      </trkpt>
      <trkpt lat="45.20897" lon="0.37924">
        <ele>190</ele>
        <time>2025-04-16T07:24:04Z</time>
      </trkpt>
      <trkpt lat="45.20745" lon="0.37932">
        <ele>190</ele>
        <time>2025-04-16T07:24:31Z</time>
      </trkpt>
      <trkpt lat="45.20654" lon="0.37967">
        <ele>188</ele>
        <time>2025-04-16T07:24:48Z</time>
      </trkpt>
      <trkpt lat="45.20592" lon="0.37991">
        <ele>188</ele>
        <time>2025-04-16T07:24:59Z</time>
      </trkpt>
      <trkpt lat="45.2056" lon="0.37992">
        <ele>187</ele>
        <time>2025-04-16T07:25:05Z</time>
      </trkpt>
      <trkpt lat="45.20454" lon="0.37986">
        <ele>187</ele>
        <time>2025-04-16T07:25:24Z</time>
      </trkpt>
      <trkpt lat="45.20405" lon="0.37994">
        <ele>189</ele>
        <time>2025-04-16T07:25:33Z</time>
      </trkpt>
      <trkpt lat="45.20368" lon="0.38006">
        <ele>190</ele>
        <time>2025-04-16T07:25:40Z</time>
      </trkpt>
      <trkpt lat="45.20117" lon="0.38096">
        <ele>194</ele>
        <time>2025-04-16T07:26:26Z</time>
      </trkpt>
      <trkpt lat="45.20085" lon="0.38102">
        <ele>195</ele>
        <time>2025-04-16T07:26:31Z</time>
      </trkpt>
      <trkpt lat="45.20045" lon="0.38104">
        <ele>193</ele>
        <time>2025-04-16T07:26:38Z</time>
      </trkpt>
      <trkpt lat="45.20002" lon="0.38119">
        <ele>192</ele>
        <time>2025-04-16T07:26:46Z</time>
      </trkpt>
      <trkpt lat="45.19972" lon="0.38137">
        <ele>191</ele>
        <time>2025-04-16T07:26:52Z</time>
      </trkpt>
      <trkpt lat="45.19963" lon="0.38141">
        <ele>191</ele>
        <time>2025-04-16T07:26:54Z</time>
      </trkpt>
      <trkpt lat="45.19959" lon="0.38141">
        <ele>191</ele>
        <time>2025-04-16T07:26:55Z</time>
      </trkpt>
      <trkpt lat="45.19951" lon="0.38155">
        <ele>190</ele>
        <time>2025-04-16T07:26:57Z</time>
      </trkpt>
      <trkpt lat="45.19928" lon="0.38186">
        <ele>189</ele>
        <time>2025-04-16T07:27:02Z</time>
      </trkpt>
      <trkpt lat="45.19922" lon="0.38199">
        <ele>189</ele>
        <time>2025-04-16T07:27:04Z</time>
      </trkpt>
      <trkpt lat="45.19915" lon="0.38225">
        <ele>188</ele>
        <time>2025-04-16T07:27:08Z</time>
      </trkpt>
      <trkpt lat="45.19912" lon="0.38274">
        <ele>187</ele>
        <time>2025-04-16T07:27:14Z</time>
      </trkpt>
      <trkpt lat="45.19902" lon="0.38443">
        <ele>188</ele>
        <time>2025-04-16T07:27:35Z</time>
      </trkpt>
      <trkpt lat="45.19904" lon="0.38515">
        <ele>188</ele>
        <time>2025-04-16T07:27:44Z</time>
      </trkpt>
      <trkpt lat="45.19906" lon="0.38563">
        <ele>188</ele>
        <time>2025-04-16T07:27:50Z</time>
      </trkpt>
      <trkpt lat="45.19918" lon="0.38697">
        <ele>189</ele>
        <time>2025-04-16T07:28:07Z</time>
      </trkpt>
      <trkpt lat="45.19923" lon="0.38728">
        <ele>189</ele>
        <time>2025-04-16T07:28:11Z</time>
      </trkpt>
      <trkpt lat="45.1993" lon="0.38753">
        <ele>190</ele>
        <time>2025-04-16T07:28:15Z</time>
      </trkpt>
      <trkpt lat="45.19938" lon="0.38773">
        <ele>189</ele>
        <time>2025-04-16T07:28:18Z</time>
      </trkpt>
      <trkpt lat="45.2002" lon="0.38922">
        <ele>190</ele>
        <time>2025-04-16T07:28:41Z</time>
      </trkpt>
      <trkpt lat="45.20077" lon="0.39025">
        <ele>191</ele>
        <time>2025-04-16T07:28:58Z</time>
      </trkpt>
      <trkpt lat="45.20083" lon="0.39037">
        <ele>192</ele>
        <time>2025-04-16T07:29:00Z</time>
      </trkpt>
      <trkpt lat="45.20087" lon="0.39046">
        <ele>192</ele>
        <time>2025-04-16T07:29:01Z</time>
      </trkpt>
      <trkpt lat="45.20092" lon="0.39065">
        <ele>192</ele>
        <time>2025-04-16T07:29:03Z</time>
      </trkpt>
      <trkpt lat="45.20092" lon="0.39089">
        <ele>193</ele>
        <time>2025-04-16T07:29:06Z</time>
      </trkpt>
      <trkpt lat="45.20089" lon="0.39107">
        <ele>194</ele>
        <time>2025-04-16T07:29:09Z</time>
      </trkpt>
      <trkpt lat="45.20085" lon="0.39118">
        <ele>194</ele>
        <time>2025-04-16T07:29:10Z</time>
      </trkpt>
      <trkpt lat="45.20095" lon="0.3912">
        <ele>193</ele>
        <time>2025-04-16T07:29:12Z</time>
      </trkpt>
      <trkpt lat="45.20113" lon="0.39128">
        <ele>192</ele>
        <time>2025-04-16T07:29:15Z</time>
      </trkpt>
      <trkpt lat="45.20131" lon="0.39152">
        <ele>191</ele>
        <time>2025-04-16T07:29:20Z</time>
      </trkpt>
      <trkpt lat="45.20189" lon="0.39223">
        <ele>188</ele>
        <time>2025-04-16T07:29:33Z</time>
      </trkpt>
      <trkpt lat="45.20226" lon="0.39273">
        <ele>187</ele>
        <time>2025-04-16T07:29:43Z</time>
      </trkpt>
      <trkpt lat="45.2024" lon="0.39288">
        <ele>187</ele>
        <time>2025-04-16T07:29:46Z</time>
      </trkpt>
      <trkpt lat="45.20258" lon="0.39303">
        <ele>186</ele>
        <time>2025-04-16T07:29:49Z</time>
      </trkpt>
      <trkpt lat="45.20332" lon="0.39342">
        <ele>182</ele>
        <time>2025-04-16T07:30:03Z</time>
      </trkpt>
      <trkpt lat="45.20457" lon="0.39401">
        <ele>177</ele>
        <time>2025-04-16T07:30:27Z</time>
      </trkpt>
      <trkpt lat="45.20479" lon="0.39408">
        <ele>177</ele>
        <time>2025-04-16T07:30:31Z</time>
      </trkpt>
      <trkpt lat="45.20501" lon="0.39414">
        <ele>177</ele>
        <time>2025-04-16T07:30:35Z</time>
      </trkpt>
      <trkpt lat="45.20515" lon="0.39418">
        <ele>176</ele>
        <time>2025-04-16T07:30:37Z</time>
      </trkpt>
      <trkpt lat="45.20535" lon="0.39423">
        <ele>175</ele>
        <time>2025-04-16T07:30:41Z</time>
      </trkpt>
      <trkpt lat="45.20557" lon="0.39425">
        <ele>174</ele>
        <time>2025-04-16T07:30:45Z</time>
      </trkpt>
      <trkpt lat="45.20565" lon="0.39427">
        <ele>173</ele>
        <time>2025-04-16T07:30:46Z</time>
      </trkpt>
      <trkpt lat="45.20569" lon="0.39427">
        <ele>173</ele>
        <time>2025-04-16T07:30:47Z</time>
      </trkpt>
      <trkpt lat="45.20586" lon="0.39423">
        <ele>172</ele>
        <time>2025-04-16T07:30:50Z</time>
      </trkpt>
      <trkpt lat="45.20737" lon="0.39384">
        <ele>160</ele>
        <time>2025-04-16T07:31:17Z</time>
      </trkpt>
      <trkpt lat="45.20769" lon="0.39381">
        <ele>159</ele>
        <time>2025-04-16T07:31:23Z</time>
      </trkpt>
      <trkpt lat="45.20804" lon="0.39387">
        <ele>158</ele>
        <time>2025-04-16T07:31:29Z</time>
      </trkpt>
      <trkpt lat="45.20831" lon="0.39397">
        <ele>157</ele>
        <time>2025-04-16T07:31:34Z</time>
      </trkpt>
      <trkpt lat="45.20858" lon="0.39424">
        <ele>156</ele>
        <time>2025-04-16T07:31:40Z</time>
      </trkpt>
      <trkpt lat="45.20866" lon="0.39426">
        <ele>155</ele>
        <time>2025-04-16T07:31:42Z</time>
      </trkpt>
      <trkpt lat="45.20923" lon="0.39443">
        <ele>148</ele>
        <time>2025-04-16T07:31:52Z</time>
      </trkpt>
      <trkpt lat="45.20979" lon="0.39454">
        <ele>145</ele>
        <time>2025-04-16T07:32:02Z</time>
      </trkpt>
      <trkpt lat="45.21021" lon="0.39461">
        <ele>143</ele>
        <time>2025-04-16T07:32:10Z</time>
      </trkpt>
      <trkpt lat="45.21061" lon="0.39464">
        <ele>142</ele>
        <time>2025-04-16T07:32:17Z</time>
      </trkpt>
      <trkpt lat="45.21107" lon="0.39467">
        <ele>138</ele>
        <time>2025-04-16T07:32:25Z</time>
      </trkpt>
      <trkpt lat="45.21278" lon="0.39468">
        <ele>122</ele>
        <time>2025-04-16T07:32:55Z</time>
      </trkpt>
      <trkpt lat="45.21365" lon="0.39479">
        <ele>114</ele>
        <time>2025-04-16T07:33:11Z</time>
      </trkpt>
      <trkpt lat="45.21503" lon="0.39522">
        <ele>105</ele>
        <time>2025-04-16T07:33:36Z</time>
      </trkpt>
      <trkpt lat="45.2153" lon="0.3954">
        <ele>104</ele>
        <time>2025-04-16T07:33:41Z</time>
      </trkpt>
      <trkpt lat="45.2154" lon="0.39537">
        <ele>104</ele>
        <time>2025-04-16T07:33:43Z</time>
      </trkpt>
      <trkpt lat="45.21632" lon="0.39517">
        <ele>102</ele>
        <time>2025-04-16T07:34:00Z</time>
      </trkpt>
      <trkpt lat="45.21741" lon="0.395">
        <ele>98</ele>
        <time>2025-04-16T07:34:19Z</time>
      </trkpt>
      <trkpt lat="45.21834" lon="0.39513">
        <ele>99</ele>
        <time>2025-04-16T07:34:36Z</time>
      </trkpt>
      <trkpt lat="45.21913" lon="0.39553">
        <ele>100</ele>
        <time>2025-04-16T07:34:51Z</time>
      </trkpt>
      <trkpt lat="45.22001" lon="0.39609">
        <ele>102</ele>
        <time>2025-04-16T07:35:08Z</time>
      </trkpt>
      <trkpt lat="45.22057" lon="0.3963">
        <ele>102</ele>
        <time>2025-04-16T07:35:18Z</time>
      </trkpt>
      <trkpt lat="45.22131" lon="0.39641">
        <ele>101</ele>
        <time>2025-04-16T07:35:32Z</time>
      </trkpt>
      <trkpt lat="45.22205" lon="0.39673">
        <ele>99</ele>
        <time>2025-04-16T07:35:45Z</time>
      </trkpt>
      <trkpt lat="45.22332" lon="0.39769">
        <ele>98</ele>
        <time>2025-04-16T07:36:11Z</time>
      </trkpt>
      <trkpt lat="45.2234" lon="0.39774">
        <ele>98</ele>
        <time>2025-04-16T07:36:12Z</time>
      </trkpt>
      <trkpt lat="45.22368" lon="0.39795">
        <ele>98</ele>
        <time>2025-04-16T07:36:18Z</time>
      </trkpt>
      <trkpt lat="45.22388" lon="0.39819">
        <ele>98</ele>
        <time>2025-04-16T07:36:23Z</time>
      </trkpt>
      <trkpt lat="45.22409" lon="0.39874">
        <ele>97</ele>
        <time>2025-04-16T07:36:31Z</time>
      </trkpt>
      <trkpt lat="45.22417" lon="0.39887">
        <ele>96</ele>
        <time>2025-04-16T07:36:33Z</time>
      </trkpt>
      <trkpt lat="45.22423" lon="0.39896">
        <ele>96</ele>
        <time>2025-04-16T07:36:34Z</time>
      </trkpt>
      <trkpt lat="45.22477" lon="0.39973">
        <ele>91</ele>
        <time>2025-04-16T07:36:48Z</time>
      </trkpt>
      <trkpt lat="45.22535" lon="0.40051">
        <ele>95</ele>
        <time>2025-04-16T07:37:02Z</time>
      </trkpt>
      <trkpt lat="45.22502" lon="0.40152">
        <ele>97</ele>
        <time>2025-04-16T07:37:16Z</time>
      </trkpt>
      <trkpt lat="45.22454" lon="0.40283">
        <ele>101</ele>
        <time>2025-04-16T07:37:35Z</time>
      </trkpt>
      <trkpt lat="45.22428" lon="0.40349">
        <ele>101</ele>
        <time>2025-04-16T07:37:44Z</time>
      </trkpt>
      <trkpt lat="45.22409" lon="0.4041">
        <ele>101</ele>
        <time>2025-04-16T07:37:52Z</time>
      </trkpt>
      <trkpt lat="45.22395" lon="0.4048">
        <ele>104</ele>
        <time>2025-04-16T07:38:02Z</time>
      </trkpt>
      <trkpt lat="45.22393" lon="0.40503">
        <ele>105</ele>
        <time>2025-04-16T07:38:04Z</time>
      </trkpt>
      <trkpt lat="45.2238" lon="0.4062">
        <ele>107</ele>
        <time>2025-04-16T07:38:19Z</time>
      </trkpt>
      <trkpt lat="45.22358" lon="0.40724">
        <ele>106</ele>
        <time>2025-04-16T07:38:33Z</time>
      </trkpt>
      <trkpt lat="45.22348" lon="0.40817">
        <ele>107</ele>
        <time>2025-04-16T07:38:45Z</time>
      </trkpt>
      <trkpt lat="45.22335" lon="0.40877">
        <ele>104</ele>
        <time>2025-04-16T07:38:53Z</time>
      </trkpt>
      <trkpt lat="45.22282" lon="0.41014">
        <ele>106</ele>
        <time>2025-04-16T07:39:12Z</time>
      </trkpt>
      <trkpt lat="45.2227" lon="0.41054">
        <ele>105</ele>
        <time>2025-04-16T07:39:18Z</time>
      </trkpt>
      <trkpt lat="45.22271" lon="0.4109">
        <ele>106</ele>
        <time>2025-04-16T07:39:22Z</time>
      </trkpt>
      <trkpt lat="45.22287" lon="0.41143">
        <ele>107</ele>
        <time>2025-04-16T07:39:29Z</time>
      </trkpt>
      <trkpt lat="45.22296" lon="0.41183">
        <ele>107</ele>
        <time>2025-04-16T07:39:35Z</time>
      </trkpt>
      <trkpt lat="45.22292" lon="0.41211">
        <ele>107</ele>
        <time>2025-04-16T07:39:38Z</time>
      </trkpt>
      <trkpt lat="45.22274" lon="0.4126">
        <ele>106</ele>
        <time>2025-04-16T07:39:45Z</time>
      </trkpt>
      <trkpt lat="45.2226" lon="0.41302">
        <ele>108</ele>
        <time>2025-04-16T07:39:51Z</time>
      </trkpt>
      <trkpt lat="45.22218" lon="0.41552">
        <ele>117</ele>
        <time>2025-04-16T07:40:23Z</time>
      </trkpt>
      <trkpt lat="45.22213" lon="0.41572">
        <ele>118</ele>
        <time>2025-04-16T07:40:26Z</time>
      </trkpt>
      <trkpt lat="45.22201" lon="0.41624">
        <ele>120</ele>
        <time>2025-04-16T07:40:33Z</time>
      </trkpt>
      <trkpt lat="45.22178" lon="0.41702">
        <ele>120</ele>
        <time>2025-04-16T07:40:43Z</time>
      </trkpt>
      <trkpt lat="45.22174" lon="0.41734">
        <ele>122</ele>
        <time>2025-04-16T07:40:47Z</time>
      </trkpt>
      <trkpt lat="45.2218" lon="0.4177">
        <ele>124</ele>
        <time>2025-04-16T07:40:52Z</time>
      </trkpt>
      <trkpt lat="45.22194" lon="0.41796">
        <ele>126</ele>
        <time>2025-04-16T07:40:56Z</time>
      </trkpt>
      <trkpt lat="45.22214" lon="0.41817">
        <ele>130</ele>
        <time>2025-04-16T07:41:01Z</time>
      </trkpt>
      <trkpt lat="45.22329" lon="0.41867">
        <ele>144</ele>
        <time>2025-04-16T07:41:22Z</time>
      </trkpt>
      <trkpt lat="45.22388" lon="0.41901">
        <ele>151</ele>
        <time>2025-04-16T07:41:33Z</time>
      </trkpt>
      <trkpt lat="45.22418" lon="0.41926">
        <ele>154</ele>
        <time>2025-04-16T07:41:39Z</time>
      </trkpt>
      <trkpt lat="45.22447" lon="0.41954">
        <ele>157</ele>
        <time>2025-04-16T07:41:46Z</time>
      </trkpt>
      <trkpt lat="45.22472" lon="0.41995">
        <ele>161</ele>
        <time>2025-04-16T07:41:52Z</time>
      </trkpt>
      <trkpt lat="45.22514" lon="0.4208">
        <ele>164</ele>
        <time>2025-04-16T07:42:05Z</time>
      </trkpt>
      <trkpt lat="45.22522" lon="0.42087">
        <ele>165</ele>
        <time>2025-04-16T07:42:07Z</time>
      </trkpt>
      <trkpt lat="45.22536" lon="0.42089">
        <ele>166</ele>
        <time>2025-04-16T07:42:10Z</time>
      </trkpt>
      <trkpt lat="45.22525" lon="0.42131">
        <ele>165</ele>
        <time>2025-04-16T07:42:15Z</time>
      </trkpt>
      <trkpt lat="45.22519" lon="0.42159">
        <ele>165</ele>
        <time>2025-04-16T07:42:19Z</time>
      </trkpt>
      <trkpt lat="45.22518" lon="0.42174">
        <ele>165</ele>
        <time>2025-04-16T07:42:21Z</time>
      </trkpt>
      <trkpt lat="45.22519" lon="0.42205">
        <ele>166</ele>
        <time>2025-04-16T07:42:25Z</time>
      </trkpt>
      <trkpt lat="45.22536" lon="0.42488">
        <ele>174</ele>
        <time>2025-04-16T07:43:00Z</time>
      </trkpt>
      <trkpt lat="45.22543" lon="0.42587">
        <ele>177</ele>
        <time>2025-04-16T07:43:13Z</time>
      </trkpt>
      <trkpt lat="45.22565" lon="0.42706">
        <ele>180</ele>
        <time>2025-04-16T07:43:28Z</time>
      </trkpt>
      <trkpt lat="45.22585" lon="0.42791">
        <ele>186</ele>
        <time>2025-04-16T07:43:39Z</time>
      </trkpt>
      <trkpt lat="45.22538" lon="0.42877">
        <ele>182</ele>
        <time>2025-04-16T07:43:53Z</time>
      </trkpt>
      <trkpt lat="45.22493" lon="0.4294">
        <ele>184</ele>
        <time>2025-04-16T07:44:04Z</time>
      </trkpt>
      <trkpt lat="45.22456" lon="0.42971">
        <ele>185</ele>
        <time>2025-04-16T07:44:12Z</time>
      </trkpt>
      <trkpt lat="45.22443" lon="0.42982">
        <ele>186</ele>
        <time>2025-04-16T07:44:15Z</time>
      </trkpt>
      <trkpt lat="45.22401" lon="0.43042">
        <ele>186</ele>
        <time>2025-04-16T07:44:25Z</time>
      </trkpt>
      <trkpt lat="45.2237" lon="0.43094">
        <ele>187</ele>
        <time>2025-04-16T07:44:34Z</time>
      </trkpt>
      <trkpt lat="45.22361" lon="0.43118">
        <ele>187</ele>
        <time>2025-04-16T07:44:37Z</time>
      </trkpt>
      <trkpt lat="45.22371" lon="0.43112">
        <ele>187</ele>
        <time>2025-04-16T07:44:39Z</time>
      </trkpt>
      <trkpt lat="45.22436" lon="0.43108">
        <ele>187</ele>
        <time>2025-04-16T07:44:51Z</time>
      </trkpt>
      <trkpt lat="45.22489" lon="0.43125">
        <ele>184</ele>
        <time>2025-04-16T07:45:00Z</time>
      </trkpt>
      <trkpt lat="45.22524" lon="0.43141">
        <ele>181</ele>
        <time>2025-04-16T07:45:07Z</time>
      </trkpt>
      <trkpt lat="45.22556" lon="0.43166">
        <ele>179</ele>
        <time>2025-04-16T07:45:13Z</time>
      </trkpt>
      <trkpt lat="45.22623" lon="0.43211">
        <ele>175</ele>
        <time>2025-04-16T07:45:27Z</time>
      </trkpt>
      <trkpt lat="45.22655" lon="0.43254">
        <ele>173</ele>
        <time>2025-04-16T07:45:34Z</time>
      </trkpt>
      <trkpt lat="45.22733" lon="0.43384">
        <ele>167</ele>
        <time>2025-04-16T07:45:56Z</time>
      </trkpt>
      <trkpt lat="45.22802" lon="0.43489">
        <ele>162</ele>
        <time>2025-04-16T07:46:14Z</time>
      </trkpt>
      <trkpt lat="45.22824" lon="0.43533">
        <ele>162</ele>
        <time>2025-04-16T07:46:21Z</time>
      </trkpt>
      <trkpt lat="45.22853" lon="0.43626">
        <ele>161</ele>
        <time>2025-04-16T07:46:33Z</time>
      </trkpt>
      <trkpt lat="45.22888" lon="0.43685">
        <ele>159</ele>
        <time>2025-04-16T07:46:43Z</time>
      </trkpt>
      <trkpt lat="45.22977" lon="0.43804">
        <ele>156</ele>
        <time>2025-04-16T07:47:05Z</time>
      </trkpt>
      <trkpt lat="45.23076" lon="0.43898">
        <ele>154</ele>
        <time>2025-04-16T07:47:26Z</time>
      </trkpt>
      <trkpt lat="45.23131" lon="0.4394">
        <ele>151</ele>
        <time>2025-04-16T07:47:37Z</time>
      </trkpt>
      <trkpt lat="45.23155" lon="0.43955">
        <ele>151</ele>
        <time>2025-04-16T07:47:42Z</time>
      </trkpt>
      <trkpt lat="45.23191" lon="0.43966">
        <ele>150</ele>
        <time>2025-04-16T07:47:48Z</time>
      </trkpt>
      <trkpt lat="45.23315" lon="0.44056">
        <ele>142</ele>
        <time>2025-04-16T07:48:13Z</time>
      </trkpt>
      <trkpt lat="45.23321" lon="0.44059">
        <ele>141</ele>
        <time>2025-04-16T07:48:14Z</time>
      </trkpt>
      <trkpt lat="45.23361" lon="0.44078">
        <ele>138</ele>
        <time>2025-04-16T07:48:22Z</time>
      </trkpt>
      <trkpt lat="45.23397" lon="0.44086">
        <ele>136</ele>
        <time>2025-04-16T07:48:28Z</time>
      </trkpt>
      <trkpt lat="45.23427" lon="0.44091">
        <ele>134</ele>
        <time>2025-04-16T07:48:34Z</time>
      </trkpt>
      <trkpt lat="45.23452" lon="0.44092">
        <ele>134</ele>
        <time>2025-04-16T07:48:38Z</time>
      </trkpt>
      <trkpt lat="45.23539" lon="0.44113">
        <ele>132</ele>
        <time>2025-04-16T07:48:54Z</time>
      </trkpt>
      <trkpt lat="45.23549" lon="0.44118">
        <ele>132</ele>
        <time>2025-04-16T07:48:56Z</time>
      </trkpt>
      <trkpt lat="45.23582" lon="0.44128">
        <ele>131</ele>
        <time>2025-04-16T07:49:02Z</time>
      </trkpt>
      <trkpt lat="45.23618" lon="0.44144">
        <ele>131</ele>
        <time>2025-04-16T07:49:08Z</time>
      </trkpt>
      <trkpt lat="45.23689" lon="0.44186">
        <ele>129</ele>
        <time>2025-04-16T07:49:22Z</time>
      </trkpt>
      <trkpt lat="45.23717" lon="0.44199">
        <ele>129</ele>
        <time>2025-04-16T07:49:27Z</time>
      </trkpt>
      <trkpt lat="45.23852" lon="0.44242">
        <ele>131</ele>
        <time>2025-04-16T07:49:52Z</time>
      </trkpt>
      <trkpt lat="45.23899" lon="0.44259">
        <ele>131</ele>
        <time>2025-04-16T07:50:00Z</time>
      </trkpt>
      <trkpt lat="45.23935" lon="0.44282">
        <ele>129</ele>
        <time>2025-04-16T07:50:07Z</time>
      </trkpt>
      <trkpt lat="45.23968" lon="0.44309">
        <ele>127</ele>
        <time>2025-04-16T07:50:14Z</time>
      </trkpt>
      <trkpt lat="45.23995" lon="0.44318">
        <ele>125</ele>
        <time>2025-04-16T07:50:19Z</time>
      </trkpt>
      <trkpt lat="45.24023" lon="0.44318">
        <ele>124</ele>
        <time>2025-04-16T07:50:24Z</time>
      </trkpt>
      <trkpt lat="45.24095" lon="0.44311">
        <ele>120</ele>
        <time>2025-04-16T07:50:37Z</time>
      </trkpt>
      <trkpt lat="45.24129" lon="0.4431">
        <ele>118</ele>
        <time>2025-04-16T07:50:43Z</time>
      </trkpt>
      <trkpt lat="45.24139" lon="0.44306">
        <ele>118</ele>
        <time>2025-04-16T07:50:45Z</time>
      </trkpt>
      <trkpt lat="45.24147" lon="0.44303">
        <ele>118</ele>
        <time>2025-04-16T07:50:46Z</time>
      </trkpt>
      <trkpt lat="45.24197" lon="0.44272">
        <ele>116</ele>
        <time>2025-04-16T07:50:56Z</time>
      </trkpt>
      <trkpt lat="45.24216" lon="0.44258">
        <ele>116</ele>
        <time>2025-04-16T07:51:00Z</time>
      </trkpt>
      <trkpt lat="45.24229" lon="0.44248">
        <ele>116</ele>
        <time>2025-04-16T07:51:03Z</time>
      </trkpt>
      <trkpt lat="45.24237" lon="0.4424">
        <ele>115</ele>
        <time>2025-04-16T07:51:04Z</time>
      </trkpt>
      <trkpt lat="45.24257" lon="0.44234">
        <ele>114</ele>
        <time>2025-04-16T07:51:08Z</time>
      </trkpt>
      <trkpt lat="45.24273" lon="0.44235">
        <ele>113</ele>
        <time>2025-04-16T07:51:11Z</time>
      </trkpt>
      <trkpt lat="45.243" lon="0.44239">
        <ele>112</ele>
        <time>2025-04-16T07:51:16Z</time>
      </trkpt>
      <trkpt lat="45.2431" lon="0.44245">
        <ele>111</ele>
        <time>2025-04-16T07:51:18Z</time>
      </trkpt>
      <trkpt lat="45.24347" lon="0.44269">
        <ele>109</ele>
        <time>2025-04-16T07:51:25Z</time>
      </trkpt>
      <trkpt lat="45.24352" lon="0.44273">
        <ele>108</ele>
        <time>2025-04-16T07:51:26Z</time>
      </trkpt>
      <trkpt lat="45.24355" lon="0.44276">
        <ele>108</ele>
        <time>2025-04-16T07:51:26Z</time>
      </trkpt>
      <trkpt lat="45.24396" lon="0.44329">
        <ele>105</ele>
        <time>2025-04-16T07:51:36Z</time>
      </trkpt>
      <trkpt lat="45.24416" lon="0.44345">
        <ele>103</ele>
        <time>2025-04-16T07:51:40Z</time>
      </trkpt>
      <trkpt lat="45.24424" lon="0.44352">
        <ele>102</ele>
        <time>2025-04-16T07:51:42Z</time>
      </trkpt>
      <trkpt lat="45.2451" lon="0.44384">
        <ele>96</ele>
        <time>2025-04-16T07:51:58Z</time>
      </trkpt>
      <trkpt lat="45.24563" lon="0.4441">
        <ele>95</ele>
        <time>2025-04-16T07:52:08Z</time>
      </trkpt>
      <trkpt lat="45.24622" lon="0.4446">
        <ele>93</ele>
        <time>2025-04-16T07:52:20Z</time>
      </trkpt>
      <trkpt lat="45.2464" lon="0.44478">
        <ele>92</ele>
        <time>2025-04-16T07:52:24Z</time>
      </trkpt>
      <trkpt lat="45.24694" lon="0.44532">
        <ele>89</ele>
        <time>2025-04-16T07:52:36Z</time>
      </trkpt>
      <trkpt lat="45.24734" lon="0.44577">
        <ele>87</ele>
        <time>2025-04-16T07:52:45Z</time>
      </trkpt>
      <trkpt lat="45.24773" lon="0.44656">
        <ele>84</ele>
        <time>2025-04-16T07:52:57Z</time>
      </trkpt>
      <trkpt lat="45.24805" lon="0.44734">
        <ele>82</ele>
        <time>2025-04-16T07:53:08Z</time>
      </trkpt>
      <trkpt lat="45.24812" lon="0.44741">
        <ele>81</ele>
        <time>2025-04-16T07:53:10Z</time>
      </trkpt>
      <trkpt lat="45.24817" lon="0.44742">
        <ele>81</ele>
        <time>2025-04-16T07:53:11Z</time>
      </trkpt>
      <trkpt lat="45.24819" lon="0.44818">
        <ele>82</ele>
        <time>2025-04-16T07:53:20Z</time>
      </trkpt>
      <trkpt lat="45.24823" lon="0.44867">
        <ele>82</ele>
        <time>2025-04-16T07:53:26Z</time>
      </trkpt>
      <trkpt lat="45.24829" lon="0.44916">
        <ele>83</ele>
        <time>2025-04-16T07:53:33Z</time>
      </trkpt>
      <trkpt lat="45.24839" lon="0.44968">
        <ele>82</ele>
        <time>2025-04-16T07:53:39Z</time>
      </trkpt>
      <trkpt lat="45.24851" lon="0.45024">
        <ele>82</ele>
        <time>2025-04-16T07:53:47Z</time>
      </trkpt>
      <trkpt lat="45.24867" lon="0.4508">
        <ele>81</ele>
        <time>2025-04-16T07:53:54Z</time>
      </trkpt>
      <trkpt lat="45.24921" lon="0.45234">
        <ele>80</ele>
        <time>2025-04-16T07:54:16Z</time>
      </trkpt>
      <trkpt lat="45.24928" lon="0.45259">
        <ele>80</ele>
        <time>2025-04-16T07:54:19Z</time>
      </trkpt>
      <trkpt lat="45.24932" lon="0.45287">
        <ele>79</ele>
        <time>2025-04-16T07:54:23Z</time>
      </trkpt>
      <trkpt lat="45.24935" lon="0.45315">
        <ele>79</ele>
        <time>2025-04-16T07:54:26Z</time>
      </trkpt>
      <trkpt lat="45.24936" lon="0.45368">
        <ele>78</ele>
        <time>2025-04-16T07:54:33Z</time>
      </trkpt>
      <trkpt lat="45.24931" lon="0.45418">
        <ele>77</ele>
        <time>2025-04-16T07:54:39Z</time>
      </trkpt>
      <trkpt lat="45.24925" lon="0.4545">
        <ele>77</ele>
        <time>2025-04-16T07:54:43Z</time>
      </trkpt>
      <trkpt lat="45.24923" lon="0.45457">
        <ele>77</ele>
        <time>2025-04-16T07:54:44Z</time>
      </trkpt>
      <trkpt lat="45.24903" lon="0.45516">
        <ele>78</ele>
        <time>2025-04-16T07:54:53Z</time>
      </trkpt>
      <trkpt lat="45.24889" lon="0.45543">
        <ele>79</ele>
        <time>2025-04-16T07:54:57Z</time>
      </trkpt>
      <trkpt lat="45.24872" lon="0.45571">
        <ele>81</ele>
        <time>2025-04-16T07:55:01Z</time>
      </trkpt>
      <trkpt lat="45.24851" lon="0.45599">
        <ele>83</ele>
        <time>2025-04-16T07:55:07Z</time>
      </trkpt>
      <trkpt lat="45.24806" lon="0.45655">
        <ele>79</ele>
        <time>2025-04-16T07:55:17Z</time>
      </trkpt>
      <trkpt lat="45.24787" lon="0.45683">
        <ele>78</ele>
        <time>2025-04-16T07:55:22Z</time>
      </trkpt>
      <trkpt lat="45.24767" lon="0.45719">
        <ele>77</ele>
        <time>2025-04-16T07:55:28Z</time>
      </trkpt>
      <trkpt lat="45.2475" lon="0.45757">
        <ele>76</ele>
        <time>2025-04-16T07:55:33Z</time>
      </trkpt>
      <trkpt lat="45.24737" lon="0.45798">
        <ele>76</ele>
        <time>2025-04-16T07:55:39Z</time>
      </trkpt>
      <trkpt lat="45.24727" lon="0.45841">
        <ele>76</ele>
        <time>2025-04-16T07:55:45Z</time>
      </trkpt>
      <trkpt lat="45.24721" lon="0.45883">
        <ele>76</ele>
        <time>2025-04-16T07:55:50Z</time>
      </trkpt>
      <trkpt lat="45.24718" lon="0.45928">
        <ele>77</ele>
        <time>2025-04-16T07:55:56Z</time>
      </trkpt>
      <trkpt lat="45.24657" lon="0.45936">
        <ele>80</ele>
        <time>2025-04-16T07:56:07Z</time>
      </trkpt>
      <trkpt lat="45.24565" lon="0.45952">
        <ele>83</ele>
        <time>2025-04-16T07:56:23Z</time>
      </trkpt>
      <trkpt lat="45.24515" lon="0.45972">
        <ele>85</ele>
        <time>2025-04-16T07:56:32Z</time>
      </trkpt>
      <trkpt lat="45.24445" lon="0.46015">
        <ele>90</ele>
        <time>2025-04-16T07:56:46Z</time>
      </trkpt>
      <trkpt lat="45.24405" lon="0.46049">
        <ele>93</ele>
        <time>2025-04-16T07:56:54Z</time>
      </trkpt>
      <trkpt lat="45.24373" lon="0.46073">
        <ele>96</ele>
        <time>2025-04-16T07:57:01Z</time>
      </trkpt>
      <trkpt lat="45.24349" lon="0.46084">
        <ele>98</ele>
        <time>2025-04-16T07:57:05Z</time>
      </trkpt>
      <trkpt lat="45.24316" lon="0.46085">
        <ele>100</ele>
        <time>2025-04-16T07:57:11Z</time>
      </trkpt>
      <trkpt lat="45.24276" lon="0.46081">
        <ele>101</ele>
        <time>2025-04-16T07:57:18Z</time>
      </trkpt>
      <trkpt lat="45.24244" lon="0.46077">
        <ele>102</ele>
        <time>2025-04-16T07:57:24Z</time>
      </trkpt>
      <trkpt lat="45.24182" lon="0.4606">
        <ele>103</ele>
        <time>2025-04-16T07:57:35Z</time>
      </trkpt>
      <trkpt lat="45.24156" lon="0.46041">
        <ele>103</ele>
        <time>2025-04-16T07:57:40Z</time>
      </trkpt>
      <trkpt lat="45.24135" lon="0.46011">
        <ele>102</ele>
        <time>2025-04-16T07:57:46Z</time>
      </trkpt>
      <trkpt lat="45.24113" lon="0.45983">
        <ele>101</ele>
        <time>2025-04-16T07:57:51Z</time>
      </trkpt>
      <trkpt lat="45.24089" lon="0.45962">
        <ele>100</ele>
        <time>2025-04-16T07:57:56Z</time>
      </trkpt>
      <trkpt lat="45.24011" lon="0.4592">
        <ele>101</ele>
        <time>2025-04-16T07:58:11Z</time>
      </trkpt>
      <trkpt lat="45.23966" lon="0.45883">
        <ele>101</ele>
        <time>2025-04-16T07:58:20Z</time>
      </trkpt>
      <trkpt lat="45.23932" lon="0.45835">
        <ele>95</ele>
        <time>2025-04-16T07:58:29Z</time>
      </trkpt>
      <trkpt lat="45.23902" lon="0.45784">
        <ele>91</ele>
        <time>2025-04-16T07:58:37Z</time>
      </trkpt>
      <trkpt lat="45.23881" lon="0.45748">
        <ele>88</ele>
        <time>2025-04-16T07:58:43Z</time>
      </trkpt>
      <trkpt lat="45.23856" lon="0.45716">
        <ele>89</ele>
        <time>2025-04-16T07:58:49Z</time>
      </trkpt>
      <trkpt lat="45.23822" lon="0.45694">
        <ele>89</ele>
        <time>2025-04-16T07:58:55Z</time>
      </trkpt>
      <trkpt lat="45.23642" lon="0.45609">
        <ele>85</ele>
        <time>2025-04-16T07:59:29Z</time>
      </trkpt>
      <trkpt lat="45.23605" lon="0.45598">
        <ele>85</ele>
        <time>2025-04-16T07:59:36Z</time>
      </trkpt>
      <trkpt lat="45.23561" lon="0.45598">
        <ele>87</ele>
        <time>2025-04-16T07:59:44Z</time>
      </trkpt>
      <trkpt lat="45.23515" lon="0.45608">
        <ele>89</ele>
        <time>2025-04-16T07:59:52Z</time>
      </trkpt>
      <trkpt lat="45.23465" lon="0.45628">
        <ele>90</ele>
        <time>2025-04-16T08:00:01Z</time>
      </trkpt>
      <trkpt lat="45.23429" lon="0.45663">
        <ele>89</ele>
        <time>2025-04-16T08:00:09Z</time>
      </trkpt>
      <trkpt lat="45.23401" lon="0.45709">
        <ele>92</ele>
        <time>2025-04-16T08:00:17Z</time>
      </trkpt>
      <trkpt lat="45.23396" lon="0.45717">
        <ele>93</ele>
        <time>2025-04-16T08:00:18Z</time>
      </trkpt>
      <trkpt lat="45.23377" lon="0.45768">
        <ele>96</ele>
        <time>2025-04-16T08:00:25Z</time>
      </trkpt>
      <trkpt lat="45.23364" lon="0.45795">
        <ele>98</ele>
        <time>2025-04-16T08:00:29Z</time>
      </trkpt>
      <trkpt lat="45.23356" lon="0.45811">
        <ele>98</ele>
        <time>2025-04-16T08:00:32Z</time>
      </trkpt>
      <trkpt lat="45.23289" lon="0.45896">
        <ele>100</ele>
        <time>2025-04-16T08:00:48Z</time>
      </trkpt>
      <trkpt lat="45.23215" lon="0.45999">
        <ele>103</ele>
        <time>2025-04-16T08:01:06Z</time>
      </trkpt>
      <trkpt lat="45.23136" lon="0.46124">
        <ele>104</ele>
        <time>2025-04-16T08:01:27Z</time>
      </trkpt>
      <trkpt lat="45.23096" lon="0.46167">
        <ele>101</ele>
        <time>2025-04-16T08:01:36Z</time>
      </trkpt>
      <trkpt lat="45.22953" lon="0.46302">
        <ele>110</ele>
        <time>2025-04-16T08:02:07Z</time>
      </trkpt>
      <trkpt lat="45.22893" lon="0.46349">
        <ele>111</ele>
        <time>2025-04-16T08:02:19Z</time>
      </trkpt>
      <trkpt lat="45.22832" lon="0.46405">
        <ele>112</ele>
        <time>2025-04-16T08:02:32Z</time>
      </trkpt>
      <trkpt lat="45.22777" lon="0.46491">
        <ele>115</ele>
        <time>2025-04-16T08:02:46Z</time>
      </trkpt>
      <trkpt lat="45.22736" lon="0.46579">
        <ele>115</ele>
        <time>2025-04-16T08:03:00Z</time>
      </trkpt>
      <trkpt lat="45.22718" lon="0.4661">
        <ele>114</ele>
        <time>2025-04-16T08:03:05Z</time>
      </trkpt>
      <trkpt lat="45.22712" lon="0.46643">
        <ele>114</ele>
        <time>2025-04-16T08:03:09Z</time>
      </trkpt>
      <trkpt lat="45.22711" lon="0.46743">
        <ele>114</ele>
        <time>2025-04-16T08:03:21Z</time>
      </trkpt>
      <trkpt lat="45.22703" lon="0.4678">
        <ele>114</ele>
        <time>2025-04-16T08:03:26Z</time>
      </trkpt>
      <trkpt lat="45.22661" lon="0.46845">
        <ele>114</ele>
        <time>2025-04-16T08:03:37Z</time>
      </trkpt>
      <trkpt lat="45.22651" lon="0.46861">
        <ele>116</ele>
        <time>2025-04-16T08:03:40Z</time>
      </trkpt>
      <trkpt lat="45.22585" lon="0.47001">
        <ele>122</ele>
        <time>2025-04-16T08:04:01Z</time>
      </trkpt>
      <trkpt lat="45.22548" lon="0.47117">
        <ele>127</ele>
        <time>2025-04-16T08:04:17Z</time>
      </trkpt>
      <trkpt lat="45.22528" lon="0.47178">
        <ele>128</ele>
        <time>2025-04-16T08:04:25Z</time>
      </trkpt>
      <trkpt lat="45.2251" lon="0.47216">
        <ele>127</ele>
        <time>2025-04-16T08:04:31Z</time>
      </trkpt>
      <trkpt lat="45.22471" lon="0.47296">
        <ele>129</ele>
        <time>2025-04-16T08:04:43Z</time>
      </trkpt>
      <trkpt lat="45.22445" lon="0.47341">
        <ele>130</ele>
        <time>2025-04-16T08:04:51Z</time>
      </trkpt>
      <trkpt lat="45.22394" lon="0.47423">
        <ele>132</ele>
        <time>2025-04-16T08:05:04Z</time>
      </trkpt>
      <trkpt lat="45.22334" lon="0.47549">
        <ele>139</ele>
        <time>2025-04-16T08:05:23Z</time>
      </trkpt>
      <trkpt lat="45.2229" lon="0.47662">
        <ele>145</ele>
        <time>2025-04-16T08:05:40Z</time>
      </trkpt>
      <trkpt lat="45.22274" lon="0.47753">
        <ele>151</ele>
        <time>2025-04-16T08:05:51Z</time>
      </trkpt>
      <trkpt lat="45.22256" lon="0.47905">
        <ele>155</ele>
        <time>2025-04-16T08:06:11Z</time>
      </trkpt>
      <trkpt lat="45.22202" lon="0.481">
        <ele>161</ele>
        <time>2025-04-16T08:06:37Z</time>
      </trkpt>
      <trkpt lat="45.22164" lon="0.48208">
        <ele>160</ele>
        <time>2025-04-16T08:06:52Z</time>
      </trkpt>
      <trkpt lat="45.2215" lon="0.48262">
        <ele>161</ele>
        <time>2025-04-16T08:06:59Z</time>
      </trkpt>
      <trkpt lat="45.2215" lon="0.48274">
        <ele>161</ele>
        <time>2025-04-16T08:07:01Z</time>
      </trkpt>
      <trkpt lat="45.22265" lon="0.48216">
        <ele>157</ele>
        <time>2025-04-16T08:07:23Z</time>
      </trkpt>
      <trkpt lat="45.22294" lon="0.48212">
        <ele>156</ele>
        <time>2025-04-16T08:07:28Z</time>
      </trkpt>
      <trkpt lat="45.22318" lon="0.48214">
        <ele>155</ele>
        <time>2025-04-16T08:07:32Z</time>
      </trkpt>
      <trkpt lat="45.22401" lon="0.4823">
        <ele>151</ele>
        <time>2025-04-16T08:07:47Z</time>
      </trkpt>
      <trkpt lat="45.22459" lon="0.48239">
        <ele>148</ele>
        <time>2025-04-16T08:07:57Z</time>
      </trkpt>
      <trkpt lat="45.22512" lon="0.48235">
        <ele>146</ele>
        <time>2025-04-16T08:08:07Z</time>
      </trkpt>
      <trkpt lat="45.22588" lon="0.48227">
        <ele>140</ele>
        <time>2025-04-16T08:08:20Z</time>
      </trkpt>
      <trkpt lat="45.22645" lon="0.48228">
        <ele>135</ele>
        <time>2025-04-16T08:08:30Z</time>
      </trkpt>
      <trkpt lat="45.22648" lon="0.48229">
        <ele>134</ele>
        <time>2025-04-16T08:08:31Z</time>
      </trkpt>
      <trkpt lat="45.22716" lon="0.48231">
        <ele>128</ele>
        <time>2025-04-16T08:08:43Z</time>
      </trkpt>
      <trkpt lat="45.22778" lon="0.48236">
        <ele>126</ele>
        <time>2025-04-16T08:08:54Z</time>
      </trkpt>
      <trkpt lat="45.22845" lon="0.48253">
        <ele>124</ele>
        <time>2025-04-16T08:09:06Z</time>
      </trkpt>
      <trkpt lat="45.2286" lon="0.48253">
        <ele>124</ele>
        <time>2025-04-16T08:09:09Z</time>
      </trkpt>
      <trkpt lat="45.22944" lon="0.48239">
        <ele>126</ele>
        <time>2025-04-16T08:09:24Z</time>
      </trkpt>
      <trkpt lat="45.22965" lon="0.48244">
        <ele>126</ele>
        <time>2025-04-16T08:09:28Z</time>
      </trkpt>
      <trkpt lat="45.23054" lon="0.48307">
        <ele>124</ele>
        <time>2025-04-16T08:09:45Z</time>
      </trkpt>
      <trkpt lat="45.23206" lon="0.48407">
        <ele>120</ele>
        <time>2025-04-16T08:10:15Z</time>
      </trkpt>
      <trkpt lat="45.23248" lon="0.48421">
        <ele>118</ele>
        <time>2025-04-16T08:10:23Z</time>
      </trkpt>
      <trkpt lat="45.23425" lon="0.48472">
        <ele>114</ele>
        <time>2025-04-16T08:10:55Z</time>
      </trkpt>
      <trkpt lat="45.23454" lon="0.48482">
        <ele>112</ele>
        <time>2025-04-16T08:11:00Z</time>
      </trkpt>
      <trkpt lat="45.23937" lon="0.48688">
        <ele>99</ele>
        <time>2025-04-16T08:12:30Z</time>
      </trkpt>
      <trkpt lat="45.24007" lon="0.48717">
        <ele>98</ele>
        <time>2025-04-16T08:12:43Z</time>
      </trkpt>
      <trkpt lat="45.24042" lon="0.48742">
        <ele>98</ele>
        <time>2025-04-16T08:12:50Z</time>
      </trkpt>
      <trkpt lat="45.2405" lon="0.48758">
        <ele>97</ele>
        <time>2025-04-16T08:12:52Z</time>
      </trkpt>
      <trkpt lat="45.24071" lon="0.48821">
        <ele>96</ele>
        <time>2025-04-16T08:13:01Z</time>
      </trkpt>
      <trkpt lat="45.24082" lon="0.4885">
        <ele>96</ele>
        <time>2025-04-16T08:13:05Z</time>
      </trkpt>
      <trkpt lat="45.24107" lon="0.48877">
        <ele>97</ele>
        <time>2025-04-16T08:13:11Z</time>
      </trkpt>
      <trkpt lat="45.2434" lon="0.49056">
        <ele>92</ele>
        <time>2025-04-16T08:13:58Z</time>
      </trkpt>
      <trkpt lat="45.24451" lon="0.49146">
        <ele>89</ele>
        <time>2025-04-16T08:14:21Z</time>
      </trkpt>
      <trkpt lat="45.24618" lon="0.49269">
        <ele>87</ele>
        <time>2025-04-16T08:14:54Z</time>
      </trkpt>
      <trkpt lat="45.24658" lon="0.493">
        <ele>89</ele>
        <time>2025-04-16T08:15:02Z</time>
      </trkpt>
      <trkpt lat="45.2466" lon="0.49304">
        <ele>89</ele>
        <time>2025-04-16T08:15:03Z</time>
      </trkpt>
      <trkpt lat="45.24587" lon="0.49332">
        <ele>89</ele>
        <time>2025-04-16T08:15:16Z</time>
      </trkpt>
      <trkpt lat="45.2455" lon="0.49346">
        <ele>89</ele>
        <time>2025-04-16T08:15:23Z</time>
      </trkpt>
      <trkpt lat="45.2453" lon="0.49356">
        <ele>88</ele>
        <time>2025-04-16T08:15:27Z</time>
      </trkpt>
      <trkpt lat="45.24489" lon="0.49387">
        <ele>89</ele>
        <time>2025-04-16T08:15:35Z</time>
      </trkpt>
      <trkpt lat="45.2447" lon="0.49406">
        <ele>89</ele>
        <time>2025-04-16T08:15:39Z</time>
      </trkpt>
      <trkpt lat="45.24452" lon="0.49431">
        <ele>89</ele>
        <time>2025-04-16T08:15:44Z</time>
      </trkpt>
      <trkpt lat="45.24437" lon="0.49464">
        <ele>90</ele>
        <time>2025-04-16T08:15:49Z</time>
      </trkpt>
      <trkpt lat="45.2438" lon="0.49605">
        <ele>95</ele>
        <time>2025-04-16T08:16:09Z</time>
      </trkpt>
      <trkpt lat="45.24353" lon="0.49646">
        <ele>95</ele>
        <time>2025-04-16T08:16:16Z</time>
      </trkpt>
      <trkpt lat="45.24345" lon="0.49658">
        <ele>95</ele>
        <time>2025-04-16T08:16:18Z</time>
      </trkpt>
      <trkpt lat="45.24318" lon="0.49688">
        <ele>93</ele>
        <time>2025-04-16T08:16:24Z</time>
      </trkpt>
      <trkpt lat="45.24289" lon="0.49705">
        <ele>93</ele>
        <time>2025-04-16T08:16:30Z</time>
      </trkpt>
      <trkpt lat="45.24194" lon="0.49705">
        <ele>93</ele>
        <time>2025-04-16T08:16:47Z</time>
      </trkpt>
      <trkpt lat="45.2415" lon="0.49703">
        <ele>94</ele>
        <time>2025-04-16T08:16:55Z</time>
      </trkpt>
      <trkpt lat="45.24108" lon="0.49711">
        <ele>96</ele>
        <time>2025-04-16T08:17:02Z</time>
      </trkpt>
      <trkpt lat="45.23858" lon="0.49808">
        <ele>110</ele>
        <time>2025-04-16T08:17:48Z</time>
      </trkpt>
      <trkpt lat="45.23807" lon="0.49831">
        <ele>113</ele>
        <time>2025-04-16T08:17:58Z</time>
      </trkpt>
      <trkpt lat="45.23756" lon="0.49852">
        <ele>116</ele>
        <time>2025-04-16T08:18:07Z</time>
      </trkpt>
      <trkpt lat="45.23582" lon="0.49961">
        <ele>129</ele>
        <time>2025-04-16T08:18:41Z</time>
      </trkpt>
      <trkpt lat="45.23556" lon="0.49982">
        <ele>131</ele>
        <time>2025-04-16T08:18:47Z</time>
      </trkpt>
      <trkpt lat="45.23444" lon="0.50095">
        <ele>142</ele>
        <time>2025-04-16T08:19:11Z</time>
      </trkpt>
      <trkpt lat="45.23427" lon="0.50118">
        <ele>144</ele>
        <time>2025-04-16T08:19:15Z</time>
      </trkpt>
      <trkpt lat="45.23399" lon="0.50168">
        <ele>145</ele>
        <time>2025-04-16T08:19:23Z</time>
      </trkpt>
      <trkpt lat="45.23386" lon="0.502">
        <ele>148</ele>
        <time>2025-04-16T08:19:28Z</time>
      </trkpt>
      <trkpt lat="45.23382" lon="0.50221">
        <ele>148</ele>
        <time>2025-04-16T08:19:31Z</time>
      </trkpt>
      <trkpt lat="45.23381" lon="0.50242">
        <ele>148</ele>
        <time>2025-04-16T08:19:33Z</time>
      </trkpt>
      <trkpt lat="45.2339" lon="0.50287">
        <ele>146</ele>
        <time>2025-04-16T08:19:39Z</time>
      </trkpt>
      <trkpt lat="45.23391" lon="0.50301">
        <ele>146</ele>
        <time>2025-04-16T08:19:41Z</time>
      </trkpt>
      <trkpt lat="45.23387" lon="0.50324">
        <ele>147</ele>
        <time>2025-04-16T08:19:44Z</time>
      </trkpt>
      <trkpt lat="45.23382" lon="0.50334">
        <ele>148</ele>
        <time>2025-04-16T08:19:45Z</time>
      </trkpt>
      <trkpt lat="45.23375" lon="0.50344">
        <ele>148</ele>
        <time>2025-04-16T08:19:47Z</time>
      </trkpt>
      <trkpt lat="45.23364" lon="0.5035">
        <ele>148</ele>
        <time>2025-04-16T08:19:49Z</time>
      </trkpt>
      <trkpt lat="45.23312" lon="0.50362">
        <ele>152</ele>
        <time>2025-04-16T08:19:59Z</time>
      </trkpt>
      <trkpt lat="45.23274" lon="0.50365">
        <ele>155</ele>
        <time>2025-04-16T08:20:05Z</time>
      </trkpt>
      <trkpt lat="45.23223" lon="0.50364">
        <ele>158</ele>
        <time>2025-04-16T08:20:14Z</time>
      </trkpt>
      <trkpt lat="45.22991" lon="0.50326">
        <ele>168</ele>
        <time>2025-04-16T08:20:56Z</time>
      </trkpt>
      <trkpt lat="45.22939" lon="0.50313">
        <ele>169</ele>
        <time>2025-04-16T08:21:05Z</time>
      </trkpt>
      <trkpt lat="45.22915" lon="0.50303">
        <ele>170</ele>
        <time>2025-04-16T08:21:10Z</time>
      </trkpt>
      <trkpt lat="45.22912" lon="0.50299">
        <ele>171</ele>
        <time>2025-04-16T08:21:10Z</time>
      </trkpt>
      <trkpt lat="45.22851" lon="0.50233">
        <ele>174</ele>
        <time>2025-04-16T08:21:24Z</time>
      </trkpt>
      <trkpt lat="45.22773" lon="0.50148">
        <ele>177</ele>
        <time>2025-04-16T08:21:42Z</time>
      </trkpt>
      <trkpt lat="45.22749" lon="0.50122">
        <ele>178</ele>
        <time>2025-04-16T08:21:47Z</time>
      </trkpt>
      <trkpt lat="45.22713" lon="0.50083">
        <ele>179</ele>
        <time>2025-04-16T08:21:55Z</time>
      </trkpt>
      <trkpt lat="45.22683" lon="0.50053">
        <ele>179</ele>
        <time>2025-04-16T08:22:02Z</time>
      </trkpt>
      <trkpt lat="45.22652" lon="0.50036">
        <ele>179</ele>
        <time>2025-04-16T08:22:08Z</time>
      </trkpt>
      <trkpt lat="45.22509" lon="0.50013">
        <ele>181</ele>
        <time>2025-04-16T08:22:33Z</time>
      </trkpt>
      <trkpt lat="45.22458" lon="0.50016">
        <ele>182</ele>
        <time>2025-04-16T08:22:42Z</time>
      </trkpt>
      <trkpt lat="45.22425" lon="0.50027">
        <ele>182</ele>
        <time>2025-04-16T08:22:48Z</time>
      </trkpt>
      <trkpt lat="45.22306" lon="0.50061">
        <ele>183</ele>
        <time>2025-04-16T08:23:10Z</time>
      </trkpt>
      <trkpt lat="45.2217" lon="0.50095">
        <ele>193</ele>
        <time>2025-04-16T08:23:34Z</time>
      </trkpt>
      <trkpt lat="45.22152" lon="0.50101">
        <ele>195</ele>
        <time>2025-04-16T08:23:38Z</time>
      </trkpt>
      <trkpt lat="45.2213" lon="0.50112">
        <ele>197</ele>
        <time>2025-04-16T08:23:42Z</time>
      </trkpt>
      <trkpt lat="45.22047" lon="0.50171">
        <ele>208</ele>
        <time>2025-04-16T08:23:58Z</time>
      </trkpt>
      <trkpt lat="45.22029" lon="0.5019">
        <ele>209</ele>
        <time>2025-04-16T08:24:02Z</time>
      </trkpt>
      <trkpt lat="45.22013" lon="0.50217">
        <ele>210</ele>
        <time>2025-04-16T08:24:07Z</time>
      </trkpt>
      <trkpt lat="45.22" lon="0.50248">
        <ele>211</ele>
        <time>2025-04-16T08:24:11Z</time>
      </trkpt>
      <trkpt lat="45.21983" lon="0.50302">
        <ele>212</ele>
        <time>2025-04-16T08:24:19Z</time>
      </trkpt>
      <trkpt lat="45.2197" lon="0.50334">
        <ele>213</ele>
        <time>2025-04-16T08:24:23Z</time>
      </trkpt>
      <trkpt lat="45.21966" lon="0.50344">
        <ele>213</ele>
        <time>2025-04-16T08:24:25Z</time>
      </trkpt>
      <trkpt lat="45.21937" lon="0.50387">
        <ele>216</ele>
        <time>2025-04-16T08:24:32Z</time>
      </trkpt>
      <trkpt lat="45.21831" lon="0.50477">
        <ele>224</ele>
        <time>2025-04-16T08:24:54Z</time>
      </trkpt>
      <trkpt lat="45.21814" lon="0.50496">
        <ele>224</ele>
        <time>2025-04-16T08:24:58Z</time>
      </trkpt>
      <trkpt lat="45.21807" lon="0.50509">
        <ele>224</ele>
        <time>2025-04-16T08:25:00Z</time>
      </trkpt>
      <trkpt lat="45.21796" lon="0.50529">
        <ele>224</ele>
        <time>2025-04-16T08:25:03Z</time>
      </trkpt>
      <trkpt lat="45.21792" lon="0.50523">
        <ele>225</ele>
        <time>2025-04-16T08:25:04Z</time>
      </trkpt>
      <trkpt lat="45.21793" lon="0.50503">
        <ele>225</ele>
        <time>2025-04-16T08:25:07Z</time>
      </trkpt>
      <trkpt lat="45.21815" lon="0.50421">
        <ele>225</ele>
        <time>2025-04-16T08:25:18Z</time>
      </trkpt>
      <trkpt lat="45.21842" lon="0.50323">
        <ele>224</ele>
        <time>2025-04-16T08:25:31Z</time>
      </trkpt>
      <trkpt lat="45.2185" lon="0.50286">
        <ele>223</ele>
        <time>2025-04-16T08:25:36Z</time>
      </trkpt>
      <trkpt lat="45.21858" lon="0.50237">
        <ele>223</ele>
        <time>2025-04-16T08:25:42Z</time>
      </trkpt>
      <trkpt lat="45.2186" lon="0.50196">
        <ele>223</ele>
        <time>2025-04-16T08:25:47Z</time>
      </trkpt>
      <trkpt lat="45.2186" lon="0.50158">
        <ele>223</ele>
        <time>2025-04-16T08:25:52Z</time>
      </trkpt>
      <trkpt lat="45.21858" lon="0.50117">
        <ele>222</ele>
        <time>2025-04-16T08:25:57Z</time>
      </trkpt>
      <trkpt lat="45.21854" lon="0.50077">
        <ele>221</ele>
        <time>2025-04-16T08:26:02Z</time>
      </trkpt>
      <trkpt lat="45.21839" lon="0.49982">
        <ele>220</ele>
        <time>2025-04-16T08:26:15Z</time>
      </trkpt>
      <trkpt lat="45.21775" lon="0.49591">
        <ele>217</ele>
        <time>2025-04-16T08:27:05Z</time>
      </trkpt>
      <trkpt lat="45.21763" lon="0.49524">
        <ele>217</ele>
        <time>2025-04-16T08:27:13Z</time>
      </trkpt>
      <trkpt lat="45.2169" lon="0.49073">
        <ele>211</ele>
        <time>2025-04-16T08:28:11Z</time>
      </trkpt>
      <trkpt lat="45.21683" lon="0.49035">
        <ele>210</ele>
        <time>2025-04-16T08:28:16Z</time>
      </trkpt>
      <trkpt lat="45.21571" lon="0.48611">
        <ele>201</ele>
        <time>2025-04-16T08:29:13Z</time>
      </trkpt>
      <trkpt lat="45.2156" lon="0.48579">
        <ele>199</ele>
        <time>2025-04-16T08:29:18Z</time>
      </trkpt>
      <trkpt lat="45.21548" lon="0.48545">
        <ele>198</ele>
        <time>2025-04-16T08:29:22Z</time>
      </trkpt>
      <trkpt lat="45.21542" lon="0.48537">
        <ele>198</ele>
        <time>2025-04-16T08:29:24Z</time>
      </trkpt>
      <trkpt lat="45.21536" lon="0.48527">
        <ele>198</ele>
        <time>2025-04-16T08:29:26Z</time>
      </trkpt>
      <trkpt lat="45.21515" lon="0.48495">
        <ele>198</ele>
        <time>2025-04-16T08:29:31Z</time>
      </trkpt>
      <trkpt lat="45.21467" lon="0.48432">
        <ele>198</ele>
        <time>2025-04-16T08:29:43Z</time>
      </trkpt>
      <trkpt lat="45.21372" lon="0.48319">
        <ele>203</ele>
        <time>2025-04-16T08:30:05Z</time>
      </trkpt>
      <trkpt lat="45.21327" lon="0.48244">
        <ele>205</ele>
        <time>2025-04-16T08:30:17Z</time>
      </trkpt>
      <trkpt lat="45.21242" lon="0.48097">
        <ele>199</ele>
        <time>2025-04-16T08:30:41Z</time>
      </trkpt>
      <trkpt lat="45.21166" lon="0.48006">
        <ele>196</ele>
        <time>2025-04-16T08:30:59Z</time>
      </trkpt>
      <trkpt lat="45.21081" lon="0.47912">
        <ele>198</ele>
        <time>2025-04-16T08:31:18Z</time>
      </trkpt>
      <trkpt lat="45.20947" lon="0.47807">
        <ele>201</ele>
        <time>2025-04-16T08:31:45Z</time>
      </trkpt>
      <trkpt lat="45.20858" lon="0.47699">
        <ele>202</ele>
        <time>2025-04-16T08:32:06Z</time>
      </trkpt>
      <trkpt lat="45.20792" lon="0.47614">
        <ele>202</ele>
        <time>2025-04-16T08:32:22Z</time>
      </trkpt>
      <trkpt lat="45.20758" lon="0.47572">
        <ele>202</ele>
        <time>2025-04-16T08:32:30Z</time>
      </trkpt>
      <trkpt lat="45.20736" lon="0.47535">
        <ele>202</ele>
        <time>2025-04-16T08:32:36Z</time>
      </trkpt>
      <trkpt lat="45.20725" lon="0.47502">
        <ele>203</ele>
        <time>2025-04-16T08:32:40Z</time>
      </trkpt>
      <trkpt lat="45.20723" lon="0.47447">
        <ele>204</ele>
        <time>2025-04-16T08:32:47Z</time>
      </trkpt>
      <trkpt lat="45.20739" lon="0.47281">
        <ele>206</ele>
        <time>2025-04-16T08:33:08Z</time>
      </trkpt>
      <trkpt lat="45.2075" lon="0.47202">
        <ele>208</ele>
        <time>2025-04-16T08:33:18Z</time>
      </trkpt>
      <trkpt lat="45.20766" lon="0.47167">
        <ele>207</ele>
        <time>2025-04-16T08:33:24Z</time>
      </trkpt>
      <trkpt lat="45.2078" lon="0.47139">
        <ele>207</ele>
        <time>2025-04-16T08:33:28Z</time>
      </trkpt>
      <trkpt lat="45.20812" lon="0.47076">
        <ele>205</ele>
        <time>2025-04-16T08:33:38Z</time>
      </trkpt>
      <trkpt lat="45.20884" lon="0.46953">
        <ele>202</ele>
        <time>2025-04-16T08:33:58Z</time>
      </trkpt>
      <trkpt lat="45.20921" lon="0.46859">
        <ele>204</ele>
        <time>2025-04-16T08:34:11Z</time>
      </trkpt>
      <trkpt lat="45.20928" lon="0.46833">
        <ele>204</ele>
        <time>2025-04-16T08:34:15Z</time>
      </trkpt>
      <trkpt lat="45.20984" lon="0.46627">
        <ele>203</ele>
        <time>2025-04-16T08:34:42Z</time>
      </trkpt>
      <trkpt lat="45.21014" lon="0.46524">
        <ele>204</ele>
        <time>2025-04-16T08:34:56Z</time>
      </trkpt>
      <trkpt lat="45.21021" lon="0.46457">
        <ele>203</ele>
        <time>2025-04-16T08:35:05Z</time>
      </trkpt>
      <trkpt lat="45.21025" lon="0.46389">
        <ele>202</ele>
        <time>2025-04-16T08:35:13Z</time>
      </trkpt>
      <trkpt lat="45.2103" lon="0.46216">
        <ele>201</ele>
        <time>2025-04-16T08:35:35Z</time>
      </trkpt>
      <trkpt lat="45.21022" lon="0.46075">
        <ele>199</ele>
        <time>2025-04-16T08:35:53Z</time>
      </trkpt>
      <trkpt lat="45.21021" lon="0.46061">
        <ele>199</ele>
        <time>2025-04-16T08:35:55Z</time>
      </trkpt>
      <trkpt lat="45.21001" lon="0.45689">
        <ele>204</ele>
        <time>2025-04-16T08:36:41Z</time>
      </trkpt>
      <trkpt lat="45.20996" lon="0.45652">
        <ele>204</ele>
        <time>2025-04-16T08:36:46Z</time>
      </trkpt>
      <trkpt lat="45.2099" lon="0.45631">
        <ele>205</ele>
        <time>2025-04-16T08:36:49Z</time>
      </trkpt>
      <trkpt lat="45.20978" lon="0.45615">
        <ele>205</ele>
        <time>2025-04-16T08:36:52Z</time>
      </trkpt>
      <trkpt lat="45.20953" lon="0.45591">
        <ele>205</ele>
        <time>2025-04-16T08:36:57Z</time>
      </trkpt>
      <trkpt lat="45.20878" lon="0.45524">
        <ele>204</ele>
        <time>2025-04-16T08:37:13Z</time>
      </trkpt>
      <trkpt lat="45.20842" lon="0.45488">
        <ele>204</ele>
        <time>2025-04-16T08:37:21Z</time>
      </trkpt>
      <trkpt lat="45.20817" lon="0.45458">
        <ele>205</ele>
        <time>2025-04-16T08:37:27Z</time>
      </trkpt>
      <trkpt lat="45.2081" lon="0.45425">
        <ele>205</ele>
        <time>2025-04-16T08:37:31Z</time>
      </trkpt>
      <trkpt lat="45.20797" lon="0.45386">
        <ele>206</ele>
        <time>2025-04-16T08:37:36Z</time>
      </trkpt>
      <trkpt lat="45.20773" lon="0.45345">
        <ele>207</ele>
        <time>2025-04-16T08:37:43Z</time>
      </trkpt>
      <trkpt lat="45.20756" lon="0.45308">
        <ele>207</ele>
        <time>2025-04-16T08:37:49Z</time>
      </trkpt>
      <trkpt lat="45.20746" lon="0.45284">
        <ele>208</ele>
        <time>2025-04-16T08:37:52Z</time>
      </trkpt>
      <trkpt lat="45.20713" lon="0.4519">
        <ele>205</ele>
        <time>2025-04-16T08:38:05Z</time>
      </trkpt>
      <trkpt lat="45.20688" lon="0.45077">
        <ele>202</ele>
        <time>2025-04-16T08:38:20Z</time>
      </trkpt>
      <trkpt lat="45.20687" lon="0.45049">
        <ele>203</ele>
        <time>2025-04-16T08:38:24Z</time>
      </trkpt>
      <trkpt lat="45.20695" lon="0.4499">
        <ele>203</ele>
        <time>2025-04-16T08:38:31Z</time>
      </trkpt>
      <trkpt lat="45.20697" lon="0.44954">
        <ele>204</ele>
        <time>2025-04-16T08:38:36Z</time>
      </trkpt>
      <trkpt lat="45.20695" lon="0.44926">
        <ele>205</ele>
        <time>2025-04-16T08:38:39Z</time>
      </trkpt>
      <trkpt lat="45.20686" lon="0.44895">
        <ele>205</ele>
        <time>2025-04-16T08:38:43Z</time>
      </trkpt>
      <trkpt lat="45.20671" lon="0.44867">
        <ele>205</ele>
        <time>2025-04-16T08:38:48Z</time>
      </trkpt>
      <trkpt lat="45.20653" lon="0.44838">
        <ele>205</ele>
        <time>2025-04-16T08:38:53Z</time>
      </trkpt>
      <trkpt lat="45.20586" lon="0.44756">
        <ele>202</ele>
        <time>2025-04-16T08:39:08Z</time>
      </trkpt>
      <trkpt lat="45.20576" lon="0.44736">
        <ele>201</ele>
        <time>2025-04-16T08:39:11Z</time>
      </trkpt>
      <trkpt lat="45.20571" lon="0.4474">
        <ele>201</ele>
        <time>2025-04-16T08:39:12Z</time>
      </trkpt>
      <trkpt lat="45.20558" lon="0.44757">
        <ele>200</ele>
        <time>2025-04-16T08:39:16Z</time>
      </trkpt>
      <trkpt lat="45.20524" lon="0.44833">
        <ele>199</ele>
        <time>2025-04-16T08:39:27Z</time>
      </trkpt>
      <trkpt lat="45.20506" lon="0.44863">
        <ele>200</ele>
        <time>2025-04-16T08:39:32Z</time>
      </trkpt>
      <trkpt lat="45.20488" lon="0.44884">
        <ele>200</ele>
        <time>2025-04-16T08:39:36Z</time>
      </trkpt>
      <trkpt lat="45.2046" lon="0.44919">
        <ele>201</ele>
        <time>2025-04-16T08:39:43Z</time>
      </trkpt>
      <trkpt lat="45.20442" lon="0.44943">
        <ele>201</ele>
        <time>2025-04-16T08:39:47Z</time>
      </trkpt>
      <trkpt lat="45.20435" lon="0.44959">
        <ele>201</ele>
        <time>2025-04-16T08:39:49Z</time>
      </trkpt>
      <trkpt lat="45.20416" lon="0.45027">
        <ele>204</ele>
        <time>2025-04-16T08:39:58Z</time>
      </trkpt>
      <trkpt lat="45.20405" lon="0.45047">
        <ele>205</ele>
        <time>2025-04-16T08:40:02Z</time>
      </trkpt>
      <trkpt lat="45.20399" lon="0.45056">
        <ele>206</ele>
        <time>2025-04-16T08:40:03Z</time>
      </trkpt>
      <trkpt lat="45.20364" lon="0.45093">
        <ele>207</ele>
        <time>2025-04-16T08:40:11Z</time>
      </trkpt>
      <trkpt lat="45.20338" lon="0.45108">
        <ele>207</ele>
        <time>2025-04-16T08:40:16Z</time>
      </trkpt>
      <trkpt lat="45.20307" lon="0.45119">
        <ele>208</ele>
        <time>2025-04-16T08:40:22Z</time>
      </trkpt>
      <trkpt lat="45.20291" lon="0.45123">
        <ele>209</ele>
        <time>2025-04-16T08:40:25Z</time>
      </trkpt>
      <trkpt lat="45.20145" lon="0.45135">
        <ele>211</ele>
        <time>2025-04-16T08:40:51Z</time>
      </trkpt>
      <trkpt lat="45.20117" lon="0.45122">
        <ele>211</ele>
        <time>2025-04-16T08:40:56Z</time>
      </trkpt>
      <trkpt lat="45.20068" lon="0.45092">
        <ele>211</ele>
        <time>2025-04-16T08:41:05Z</time>
      </trkpt>
      <trkpt lat="45.19909" lon="0.44986">
        <ele>210</ele>
        <time>2025-04-16T08:41:37Z</time>
      </trkpt>
      <trkpt lat="45.19882" lon="0.44969">
        <ele>211</ele>
        <time>2025-04-16T08:41:42Z</time>
      </trkpt>
      <trkpt lat="45.1986" lon="0.44965">
        <ele>211</ele>
        <time>2025-04-16T08:41:46Z</time>
      </trkpt>
      <trkpt lat="45.19839" lon="0.44964">
        <ele>211</ele>
        <time>2025-04-16T08:41:50Z</time>
      </trkpt>
      <trkpt lat="45.19805" lon="0.44971">
        <ele>211</ele>
        <time>2025-04-16T08:41:56Z</time>
      </trkpt>
      <trkpt lat="45.19711" lon="0.44993">
        <ele>209</ele>
        <time>2025-04-16T08:42:13Z</time>
      </trkpt>
      <trkpt lat="45.19683" lon="0.45006">
        <ele>209</ele>
        <time>2025-04-16T08:42:18Z</time>
      </trkpt>
      <trkpt lat="45.19586" lon="0.45065">
        <ele>212</ele>
        <time>2025-04-16T08:42:37Z</time>
      </trkpt>
      <trkpt lat="45.19554" lon="0.45077">
        <ele>212</ele>
        <time>2025-04-16T08:42:42Z</time>
      </trkpt>
      <trkpt lat="45.19498" lon="0.45093">
        <ele>211</ele>
        <time>2025-04-16T08:42:53Z</time>
      </trkpt>
      <trkpt lat="45.19476" lon="0.45091">
        <ele>210</ele>
        <time>2025-04-16T08:42:57Z</time>
      </trkpt>
      <trkpt lat="45.19438" lon="0.45074">
        <ele>210</ele>
        <time>2025-04-16T08:43:04Z</time>
      </trkpt>
      <trkpt lat="45.1944" lon="0.45043">
        <ele>210</ele>
        <time>2025-04-16T08:43:08Z</time>
      </trkpt>
      <trkpt lat="45.19434" lon="0.4499">
        <ele>210</ele>
        <time>2025-04-16T08:43:14Z</time>
      </trkpt>
      <trkpt lat="45.1942" lon="0.44906">
        <ele>210</ele>
        <time>2025-04-16T08:43:25Z</time>
      </trkpt>
      <trkpt lat="45.194" lon="0.44825">
        <ele>210</ele>
        <time>2025-04-16T08:43:36Z</time>
      </trkpt>
      <trkpt lat="45.19385" lon="0.44778">
        <ele>211</ele>
        <time>2025-04-16T08:43:42Z</time>
      </trkpt>
      <trkpt lat="45.19364" lon="0.44723">
        <ele>212</ele>
        <time>2025-04-16T08:43:50Z</time>
      </trkpt>
      <trkpt lat="45.19353" lon="0.44696">
        <ele>212</ele>
        <time>2025-04-16T08:43:54Z</time>
      </trkpt>
      <trkpt lat="45.19294" lon="0.44554">
        <ele>213</ele>
        <time>2025-04-16T08:44:15Z</time>
      </trkpt>
      <trkpt lat="45.1927" lon="0.44494">
        <ele>212</ele>
        <time>2025-04-16T08:44:23Z</time>
      </trkpt>
      <trkpt lat="45.19252" lon="0.44441">
        <ele>213</ele>
        <time>2025-04-16T08:44:31Z</time>
      </trkpt>
      <trkpt lat="45.19187" lon="0.44319">
        <ele>215</ele>
        <time>2025-04-16T08:44:50Z</time>
      </trkpt>
      <trkpt lat="45.19175" lon="0.44298">
        <ele>215</ele>
        <time>2025-04-16T08:44:53Z</time>
      </trkpt>
      <trkpt lat="45.19164" lon="0.44285">
        <ele>216</ele>
        <time>2025-04-16T08:44:56Z</time>
      </trkpt>
      <trkpt lat="45.19151" lon="0.44276">
        <ele>215</ele>
        <time>2025-04-16T08:44:58Z</time>
      </trkpt>
      <trkpt lat="45.19141" lon="0.44273">
        <ele>215</ele>
        <time>2025-04-16T08:45:00Z</time>
      </trkpt>
      <trkpt lat="45.19115" lon="0.44269">
        <ele>215</ele>
        <time>2025-04-16T08:45:05Z</time>
      </trkpt>
      <trkpt lat="45.19101" lon="0.44263">
        <ele>215</ele>
        <time>2025-04-16T08:45:08Z</time>
      </trkpt>
      <trkpt lat="45.19095" lon="0.44256">
        <ele>215</ele>
        <time>2025-04-16T08:45:09Z</time>
      </trkpt>
      <trkpt lat="45.19088" lon="0.44236">
        <ele>215</ele>
        <time>2025-04-16T08:45:12Z</time>
      </trkpt>
      <trkpt lat="45.19082" lon="0.44157">
        <ele>214</ele>
        <time>2025-04-16T08:45:22Z</time>
      </trkpt>
      <trkpt lat="45.19077" lon="0.44156">
        <ele>214</ele>
        <time>2025-04-16T08:45:23Z</time>
      </trkpt>
      <trkpt lat="45.1898" lon="0.44078">
        <ele>212</ele>
        <time>2025-04-16T08:45:42Z</time>
      </trkpt>
      <trkpt lat="45.18935" lon="0.44048">
        <ele>212</ele>
        <time>2025-04-16T08:45:51Z</time>
      </trkpt>
      <trkpt lat="45.18908" lon="0.44036">
        <ele>212</ele>
        <time>2025-04-16T08:45:56Z</time>
      </trkpt>
      <trkpt lat="45.18735" lon="0.43971">
        <ele>211</ele>
        <time>2025-04-16T08:46:28Z</time>
      </trkpt>
      <trkpt lat="45.18703" lon="0.43952">
        <ele>211</ele>
        <time>2025-04-16T08:46:34Z</time>
      </trkpt>
      <trkpt lat="45.18619" lon="0.43881">
        <ele>215</ele>
        <time>2025-04-16T08:46:52Z</time>
      </trkpt>
      <trkpt lat="45.18582" lon="0.4385">
        <ele>216</ele>
        <time>2025-04-16T08:46:59Z</time>
      </trkpt>
      <trkpt lat="45.18545" lon="0.43822">
        <ele>216</ele>
        <time>2025-04-16T08:47:07Z</time>
      </trkpt>
      <trkpt lat="45.18503" lon="0.43801">
        <ele>217</ele>
        <time>2025-04-16T08:47:15Z</time>
      </trkpt>
      <trkpt lat="45.18466" lon="0.43792">
        <ele>216</ele>
        <time>2025-04-16T08:47:21Z</time>
      </trkpt>
      <trkpt lat="45.18429" lon="0.43788">
        <ele>216</ele>
        <time>2025-04-16T08:47:28Z</time>
      </trkpt>
      <trkpt lat="45.18389" lon="0.4379">
        <ele>215</ele>
        <time>2025-04-16T08:47:35Z</time>
      </trkpt>
      <trkpt lat="45.18336" lon="0.43802">
        <ele>213</ele>
        <time>2025-04-16T08:47:45Z</time>
      </trkpt>
      <trkpt lat="45.18314" lon="0.43803">
        <ele>212</ele>
        <time>2025-04-16T08:47:49Z</time>
      </trkpt>
      <trkpt lat="45.18283" lon="0.43797">
        <ele>211</ele>
        <time>2025-04-16T08:47:54Z</time>
      </trkpt>
      <trkpt lat="45.18224" lon="0.43779">
        <ele>210</ele>
        <time>2025-04-16T08:48:05Z</time>
      </trkpt>
      <trkpt lat="45.18184" lon="0.43763">
        <ele>211</ele>
        <time>2025-04-16T08:48:12Z</time>
      </trkpt>
      <trkpt lat="45.18143" lon="0.43741">
        <ele>212</ele>
        <time>2025-04-16T08:48:20Z</time>
      </trkpt>
      <trkpt lat="45.18108" lon="0.43719">
        <ele>211</ele>
        <time>2025-04-16T08:48:27Z</time>
      </trkpt>
      <trkpt lat="45.18078" lon="0.43693">
        <ele>211</ele>
        <time>2025-04-16T08:48:33Z</time>
      </trkpt>
      <trkpt lat="45.18028" lon="0.43645">
        <ele>209</ele>
        <time>2025-04-16T08:48:44Z</time>
      </trkpt>
      <trkpt lat="45.17979" lon="0.43589">
        <ele>208</ele>
        <time>2025-04-16T08:48:55Z</time>
      </trkpt>
      <trkpt lat="45.17942" lon="0.43546">
        <ele>208</ele>
        <time>2025-04-16T08:49:04Z</time>
      </trkpt>
      <trkpt lat="45.17938" lon="0.43541">
        <ele>208</ele>
        <time>2025-04-16T08:49:05Z</time>
      </trkpt>
      <trkpt lat="45.17919" lon="0.43522">
        <ele>208</ele>
        <time>2025-04-16T08:49:09Z</time>
      </trkpt>
      <trkpt lat="45.179" lon="0.4351">
        <ele>208</ele>
        <time>2025-04-16T08:49:12Z</time>
      </trkpt>
      <trkpt lat="45.1789" lon="0.43508">
        <ele>207</ele>
        <time>2025-04-16T08:49:14Z</time>
      </trkpt>
      <trkpt lat="45.17876" lon="0.43509">
        <ele>206</ele>
        <time>2025-04-16T08:49:17Z</time>
      </trkpt>
      <trkpt lat="45.17591" lon="0.43621">
        <ele>199</ele>
        <time>2025-04-16T08:50:09Z</time>
      </trkpt>
      <trkpt lat="45.17553" lon="0.43632">
        <ele>198</ele>
        <time>2025-04-16T08:50:16Z</time>
      </trkpt>
      <trkpt lat="45.17521" lon="0.43639">
        <ele>198</ele>
        <time>2025-04-16T08:50:22Z</time>
      </trkpt>
      <trkpt lat="45.17476" lon="0.43645">
        <ele>197</ele>
        <time>2025-04-16T08:50:30Z</time>
      </trkpt>
      <trkpt lat="45.17328" lon="0.43652">
        <ele>194</ele>
        <time>2025-04-16T08:50:56Z</time>
      </trkpt>
      <trkpt lat="45.17298" lon="0.43649">
        <ele>193</ele>
        <time>2025-04-16T08:51:02Z</time>
      </trkpt>
      <trkpt lat="45.17288" lon="0.43645">
        <ele>192</ele>
        <time>2025-04-16T08:51:04Z</time>
      </trkpt>
      <trkpt lat="45.17267" lon="0.43624">
        <ele>191</ele>
        <time>2025-04-16T08:51:08Z</time>
      </trkpt>
      <trkpt lat="45.17256" lon="0.43607">
        <ele>190</ele>
        <time>2025-04-16T08:51:11Z</time>
      </trkpt>
      <trkpt lat="45.17238" lon="0.43571">
        <ele>189</ele>
        <time>2025-04-16T08:51:17Z</time>
      </trkpt>
      <trkpt lat="45.17225" lon="0.43548">
        <ele>188</ele>
        <time>2025-04-16T08:51:20Z</time>
      </trkpt>
      <trkpt lat="45.1721" lon="0.43532">
        <ele>187</ele>
        <time>2025-04-16T08:51:24Z</time>
      </trkpt>
      <trkpt lat="45.17195" lon="0.43521">
        <ele>186</ele>
        <time>2025-04-16T08:51:27Z</time>
      </trkpt>
      <trkpt lat="45.17181" lon="0.43515">
        <ele>185</ele>
        <time>2025-04-16T08:51:29Z</time>
      </trkpt>
      <trkpt lat="45.17113" lon="0.43499">
        <ele>179</ele>
        <time>2025-04-16T08:51:42Z</time>
      </trkpt>
      <trkpt lat="45.17095" lon="0.43492">
        <ele>178</ele>
        <time>2025-04-16T08:51:45Z</time>
      </trkpt>
      <trkpt lat="45.17078" lon="0.43483">
        <ele>177</ele>
        <time>2025-04-16T08:51:48Z</time>
      </trkpt>
      <trkpt lat="45.17058" lon="0.43468">
        <ele>177</ele>
        <time>2025-04-16T08:51:52Z</time>
      </trkpt>
      <trkpt lat="45.17025" lon="0.4344">
        <ele>174</ele>
        <time>2025-04-16T08:51:59Z</time>
      </trkpt>
      <trkpt lat="45.16984" lon="0.43399">
        <ele>171</ele>
        <time>2025-04-16T08:52:08Z</time>
      </trkpt>
      <trkpt lat="45.16968" lon="0.43367">
        <ele>170</ele>
        <time>2025-04-16T08:52:13Z</time>
      </trkpt>
      <trkpt lat="45.16964" lon="0.43346">
        <ele>168</ele>
        <time>2025-04-16T08:52:16Z</time>
      </trkpt>
      <trkpt lat="45.16962" lon="0.43325">
        <ele>167</ele>
        <time>2025-04-16T08:52:18Z</time>
      </trkpt>
      <trkpt lat="45.16963" lon="0.43298">
        <ele>166</ele>
        <time>2025-04-16T08:52:22Z</time>
      </trkpt>
      <trkpt lat="45.16968" lon="0.43269">
        <ele>164</ele>
        <time>2025-04-16T08:52:25Z</time>
      </trkpt>
      <trkpt lat="45.16973" lon="0.43244">
        <ele>162</ele>
        <time>2025-04-16T08:52:29Z</time>
      </trkpt>
      <trkpt lat="45.16983" lon="0.43221">
        <ele>162</ele>
        <time>2025-04-16T08:52:32Z</time>
      </trkpt>
      <trkpt lat="45.17049" lon="0.43083">
        <ele>156</ele>
        <time>2025-04-16T08:52:53Z</time>
      </trkpt>
      <trkpt lat="45.1706" lon="0.4305">
        <ele>155</ele>
        <time>2025-04-16T08:52:57Z</time>
      </trkpt>
      <trkpt lat="45.17067" lon="0.43018">
        <ele>154</ele>
        <time>2025-04-16T08:53:02Z</time>
      </trkpt>
      <trkpt lat="45.17072" lon="0.42977">
        <ele>153</ele>
        <time>2025-04-16T08:53:07Z</time>
      </trkpt>
      <trkpt lat="45.17071" lon="0.42944">
        <ele>152</ele>
        <time>2025-04-16T08:53:11Z</time>
      </trkpt>
      <trkpt lat="45.17068" lon="0.42912">
        <ele>152</ele>
        <time>2025-04-16T08:53:15Z</time>
      </trkpt>
      <trkpt lat="45.17073" lon="0.42869">
        <ele>151</ele>
        <time>2025-04-16T08:53:21Z</time>
      </trkpt>
      <trkpt lat="45.17081" lon="0.42838">
        <ele>149</ele>
        <time>2025-04-16T08:53:25Z</time>
      </trkpt>
      <trkpt lat="45.17147" lon="0.42677">
        <ele>143</ele>
        <time>2025-04-16T08:53:48Z</time>
      </trkpt>
      <trkpt lat="45.17151" lon="0.42661">
        <ele>143</ele>
        <time>2025-04-16T08:53:50Z</time>
      </trkpt>
      <trkpt lat="45.17154" lon="0.4264">
        <ele>142</ele>
        <time>2025-04-16T08:53:53Z</time>
      </trkpt>
      <trkpt lat="45.17155" lon="0.42616">
        <ele>141</ele>
        <time>2025-04-16T08:53:56Z</time>
      </trkpt>
      <trkpt lat="45.17134" lon="0.42451">
        <ele>140</ele>
        <time>2025-04-16T08:54:17Z</time>
      </trkpt>
      <trkpt lat="45.17136" lon="0.42416">
        <ele>139</ele>
        <time>2025-04-16T08:54:21Z</time>
      </trkpt>
      <trkpt lat="45.17141" lon="0.42397">
        <ele>139</ele>
        <time>2025-04-16T08:54:24Z</time>
      </trkpt>
      <trkpt lat="45.17159" lon="0.42346">
        <ele>136</ele>
        <time>2025-04-16T08:54:31Z</time>
      </trkpt>
      <trkpt lat="45.17233" lon="0.42154">
        <ele>136</ele>
        <time>2025-04-16T08:54:58Z</time>
      </trkpt>
      <trkpt lat="45.17243" lon="0.42122">
        <ele>135</ele>
        <time>2025-04-16T08:55:03Z</time>
      </trkpt>
      <trkpt lat="45.17248" lon="0.4209">
        <ele>134</ele>
        <time>2025-04-16T08:55:07Z</time>
      </trkpt>
      <trkpt lat="45.17247" lon="0.4207">
        <ele>134</ele>
        <time>2025-04-16T08:55:09Z</time>
      </trkpt>
      <trkpt lat="45.17243" lon="0.42032">
        <ele>132</ele>
        <time>2025-04-16T08:55:14Z</time>
      </trkpt>
      <trkpt lat="45.17232" lon="0.41945">
        <ele>130</ele>
        <time>2025-04-16T08:55:25Z</time>
      </trkpt>
      <trkpt lat="45.17232" lon="0.41889">
        <ele>129</ele>
        <time>2025-04-16T08:55:32Z</time>
      </trkpt>
      <trkpt lat="45.17236" lon="0.41839">
        <ele>129</ele>
        <time>2025-04-16T08:55:39Z</time>
      </trkpt>
      <trkpt lat="45.17242" lon="0.41753">
        <ele>129</ele>
        <time>2025-04-16T08:55:50Z</time>
      </trkpt>
      <trkpt lat="45.17242" lon="0.41717">
        <ele>129</ele>
        <time>2025-04-16T08:55:54Z</time>
      </trkpt>
      <trkpt lat="45.17239" lon="0.41684">
        <ele>130</ele>
        <time>2025-04-16T08:55:58Z</time>
      </trkpt>
      <trkpt lat="45.172" lon="0.4139">
        <ele>125</ele>
        <time>2025-04-16T08:56:36Z</time>
      </trkpt>
      <trkpt lat="45.17165" lon="0.41251">
        <ele>122</ele>
        <time>2025-04-16T08:56:54Z</time>
      </trkpt>
      <trkpt lat="45.17146" lon="0.41132">
        <ele>123</ele>
        <time>2025-04-16T08:57:10Z</time>
      </trkpt>
      <trkpt lat="45.17141" lon="0.41116">
        <ele>122</ele>
        <time>2025-04-16T08:57:12Z</time>
      </trkpt>
      <trkpt lat="45.17132" lon="0.41098">
        <ele>122</ele>
        <time>2025-04-16T08:57:15Z</time>
      </trkpt>
      <trkpt lat="45.17108" lon="0.4106">
        <ele>120</ele>
        <time>2025-04-16T08:57:21Z</time>
      </trkpt>
      <trkpt lat="45.17078" lon="0.40955">
        <ele>120</ele>
        <time>2025-04-16T08:57:35Z</time>
      </trkpt>
      <trkpt lat="45.17058" lon="0.40897">
        <ele>121</ele>
        <time>2025-04-16T08:57:43Z</time>
      </trkpt>
      <trkpt lat="45.17049" lon="0.40877">
        <ele>121</ele>
        <time>2025-04-16T08:57:46Z</time>
      </trkpt>
      <trkpt lat="45.17033" lon="0.40852">
        <ele>121</ele>
        <time>2025-04-16T08:57:50Z</time>
      </trkpt>
      <trkpt lat="45.17025" lon="0.40843">
        <ele>121</ele>
        <time>2025-04-16T08:57:52Z</time>
      </trkpt>
      <trkpt lat="45.17013" lon="0.40836">
        <ele>121</ele>
        <time>2025-04-16T08:57:55Z</time>
      </trkpt>
      <trkpt lat="45.16992" lon="0.40825">
        <ele>120</ele>
        <time>2025-04-16T08:57:59Z</time>
      </trkpt>
      <trkpt lat="45.16981" lon="0.40817">
        <ele>119</ele>
        <time>2025-04-16T08:58:01Z</time>
      </trkpt>
      <trkpt lat="45.16968" lon="0.40799">
        <ele>119</ele>
        <time>2025-04-16T08:58:04Z</time>
      </trkpt>
      <trkpt lat="45.16958" lon="0.40781">
        <ele>119</ele>
        <time>2025-04-16T08:58:07Z</time>
      </trkpt>
      <trkpt lat="45.16943" lon="0.40747">
        <ele>118</ele>
        <time>2025-04-16T08:58:12Z</time>
      </trkpt>
      <trkpt lat="45.16917" lon="0.40666">
        <ele>116</ele>
        <time>2025-04-16T08:58:23Z</time>
      </trkpt>
      <trkpt lat="45.16866" lon="0.40568">
        <ele>117</ele>
        <time>2025-04-16T08:58:38Z</time>
      </trkpt>
      <trkpt lat="45.16843" lon="0.40517">
        <ele>116</ele>
        <time>2025-04-16T08:58:46Z</time>
      </trkpt>
      <trkpt lat="45.16784" lon="0.4036">
        <ele>118</ele>
        <time>2025-04-16T08:59:08Z</time>
      </trkpt>
      <trkpt lat="45.16782" lon="0.40354">
        <ele>118</ele>
        <time>2025-04-16T08:59:09Z</time>
      </trkpt>
      <trkpt lat="45.16763" lon="0.40304">
        <ele>118</ele>
        <time>2025-04-16T08:59:16Z</time>
      </trkpt>
      <trkpt lat="45.16755" lon="0.40293">
        <ele>118</ele>
        <time>2025-04-16T08:59:18Z</time>
      </trkpt>
      <trkpt lat="45.16557" lon="0.40129">
        <ele>111</ele>
        <time>2025-04-16T08:59:59Z</time>
      </trkpt>
      <trkpt lat="45.16489" lon="0.40061">
        <ele>111</ele>
        <time>2025-04-16T09:00:14Z</time>
      </trkpt>
      <trkpt lat="45.16459" lon="0.40035">
        <ele>110</ele>
        <time>2025-04-16T09:00:20Z</time>
      </trkpt>
      <trkpt lat="45.16439" lon="0.40014">
        <ele>109</ele>
        <time>2025-04-16T09:00:24Z</time>
      </trkpt>
      <trkpt lat="45.16431" lon="0.40005">
        <ele>108</ele>
        <time>2025-04-16T09:00:26Z</time>
      </trkpt>
      <trkpt lat="45.16412" lon="0.39973">
        <ele>108</ele>
        <time>2025-04-16T09:00:32Z</time>
      </trkpt>
      <trkpt lat="45.16398" lon="0.39945">
        <ele>109</ele>
        <time>2025-04-16T09:00:36Z</time>
      </trkpt>
      <trkpt lat="45.16393" lon="0.39924">
        <ele>109</ele>
        <time>2025-04-16T09:00:39Z</time>
      </trkpt>
      <trkpt lat="45.1639" lon="0.39911">
        <ele>110</ele>
        <time>2025-04-16T09:00:40Z</time>
      </trkpt>
      <trkpt lat="45.16388" lon="0.39895">
        <ele>110</ele>
        <time>2025-04-16T09:00:42Z</time>
      </trkpt>
      <trkpt lat="45.16388" lon="0.39891">
        <ele>110</ele>
        <time>2025-04-16T09:00:43Z</time>
      </trkpt>
      <trkpt lat="45.16388" lon="0.39867">
        <ele>110</ele>
        <time>2025-04-16T09:00:46Z</time>
      </trkpt>
      <trkpt lat="45.16391" lon="0.39842">
        <ele>111</ele>
        <time>2025-04-16T09:00:49Z</time>
      </trkpt>
      <trkpt lat="45.16396" lon="0.39824">
        <ele>111</ele>
        <time>2025-04-16T09:00:52Z</time>
      </trkpt>
      <trkpt lat="45.16405" lon="0.39806">
        <ele>112</ele>
        <time>2025-04-16T09:00:54Z</time>
      </trkpt>
      <trkpt lat="45.16417" lon="0.39791">
        <ele>113</ele>
        <time>2025-04-16T09:00:57Z</time>
      </trkpt>
      <trkpt lat="45.16422" lon="0.39788">
        <ele>113</ele>
        <time>2025-04-16T09:00:58Z</time>
      </trkpt>
      <trkpt lat="45.16443" lon="0.39773">
        <ele>114</ele>
        <time>2025-04-16T09:01:02Z</time>
      </trkpt>
      <trkpt lat="45.16463" lon="0.39759">
        <ele>114</ele>
        <time>2025-04-16T09:01:06Z</time>
      </trkpt>
      <trkpt lat="45.16471" lon="0.39754">
        <ele>114</ele>
        <time>2025-04-16T09:01:08Z</time>
      </trkpt>
      <trkpt lat="45.16497" lon="0.39705">
        <ele>115</ele>
        <time>2025-04-16T09:01:16Z</time>
      </trkpt>
      <trkpt lat="45.16511" lon="0.39674">
        <ele>115</ele>
        <time>2025-04-16T09:01:20Z</time>
      </trkpt>
      <trkpt lat="45.16519" lon="0.3965">
        <ele>117</ele>
        <time>2025-04-16T09:01:23Z</time>
      </trkpt>
      <trkpt lat="45.16519" lon="0.39639">
        <ele>117</ele>
        <time>2025-04-16T09:01:25Z</time>
      </trkpt>
      <trkpt lat="45.16516" lon="0.39612">
        <ele>119</ele>
        <time>2025-04-16T09:01:28Z</time>
      </trkpt>
      <trkpt lat="45.165" lon="0.3956">
        <ele>124</ele>
        <time>2025-04-16T09:01:35Z</time>
      </trkpt>
      <trkpt lat="45.16449" lon="0.39394">
        <ele>135</ele>
        <time>2025-04-16T09:01:58Z</time>
      </trkpt>
      <trkpt lat="45.16435" lon="0.39351">
        <ele>137</ele>
        <time>2025-04-16T09:02:04Z</time>
      </trkpt>
      <trkpt lat="45.16421" lon="0.39322">
        <ele>137</ele>
        <time>2025-04-16T09:02:08Z</time>
      </trkpt>
      <trkpt lat="45.16404" lon="0.39298">
        <ele>138</ele>
        <time>2025-04-16T09:02:13Z</time>
      </trkpt>
      <trkpt lat="45.1632" lon="0.39179">
        <ele>141</ele>
        <time>2025-04-16T09:02:34Z</time>
      </trkpt>
      <trkpt lat="45.16274" lon="0.3911">
        <ele>143</ele>
        <time>2025-04-16T09:02:46Z</time>
      </trkpt>
      <trkpt lat="45.16256" lon="0.39071">
        <ele>143</ele>
        <time>2025-04-16T09:02:52Z</time>
      </trkpt>
      <trkpt lat="45.1624" lon="0.39032">
        <ele>143</ele>
        <time>2025-04-16T09:02:57Z</time>
      </trkpt>
      <trkpt lat="45.16222" lon="0.38977">
        <ele>143</ele>
        <time>2025-04-16T09:03:05Z</time>
      </trkpt>
      <trkpt lat="45.16219" lon="0.38929">
        <ele>142</ele>
        <time>2025-04-16T09:03:11Z</time>
      </trkpt>
      <trkpt lat="45.16227" lon="0.38861">
        <ele>139</ele>
        <time>2025-04-16T09:03:20Z</time>
      </trkpt>
      <trkpt lat="45.16241" lon="0.38734">
        <ele>134</ele>
        <time>2025-04-16T09:03:36Z</time>
      </trkpt>
      <trkpt lat="45.16256" lon="0.38599">
        <ele>131</ele>
        <time>2025-04-16T09:03:53Z</time>
      </trkpt>
      <trkpt lat="45.16263" lon="0.38569">
        <ele>131</ele>
        <time>2025-04-16T09:03:57Z</time>
      </trkpt>
      <trkpt lat="45.16287" lon="0.38518">
        <ele>131</ele>
        <time>2025-04-16T09:04:04Z</time>
      </trkpt>
      <trkpt lat="45.16535" lon="0.3815">
        <ele>141</ele>
        <time>2025-04-16T09:05:08Z</time>
      </trkpt>
      <trkpt lat="45.16556" lon="0.38111">
        <ele>141</ele>
        <time>2025-04-16T09:05:15Z</time>
      </trkpt>
      <trkpt lat="45.16596" lon="0.37986">
        <ele>144</ele>
        <time>2025-04-16T09:05:32Z</time>
      </trkpt>
      <trkpt lat="45.16606" lon="0.37931">
        <ele>145</ele>
        <time>2025-04-16T09:05:39Z</time>
      </trkpt>
      <trkpt lat="45.16607" lon="0.37892">
        <ele>145</ele>
        <time>2025-04-16T09:05:44Z</time>
      </trkpt>
      <trkpt lat="45.16596" lon="0.37767">
        <ele>144</ele>
        <time>2025-04-16T09:06:00Z</time>
      </trkpt>
      <trkpt lat="45.16597" lon="0.37679">
        <ele>143</ele>
        <time>2025-04-16T09:06:11Z</time>
      </trkpt>
      <trkpt lat="45.166" lon="0.37641">
        <ele>142</ele>
        <time>2025-04-16T09:06:15Z</time>
      </trkpt>
      <trkpt lat="45.16606" lon="0.37563">
        <ele>140</ele>
        <time>2025-04-16T09:06:25Z</time>
      </trkpt>
      <trkpt lat="45.16607" lon="0.37517">
        <ele>139</ele>
        <time>2025-04-16T09:06:31Z</time>
      </trkpt>
      <trkpt lat="45.16598" lon="0.3745">
        <ele>137</ele>
        <time>2025-04-16T09:06:40Z</time>
      </trkpt>
      <trkpt lat="45.166" lon="0.3742">
        <ele>136</ele>
        <time>2025-04-16T09:06:43Z</time>
      </trkpt>
      <trkpt lat="45.16625" lon="0.37358">
        <ele>135</ele>
        <time>2025-04-16T09:06:52Z</time>
      </trkpt>
      <trkpt lat="45.16626" lon="0.37336">
        <ele>134</ele>
        <time>2025-04-16T09:06:55Z</time>
      </trkpt>
      <trkpt lat="45.16619" lon="0.37322">
        <ele>133</ele>
        <time>2025-04-16T09:06:57Z</time>
      </trkpt>
      <trkpt lat="45.16542" lon="0.37264">
        <ele>128</ele>
        <time>2025-04-16T09:07:13Z</time>
      </trkpt>
      <trkpt lat="45.16534" lon="0.37249">
        <ele>127</ele>
        <time>2025-04-16T09:07:15Z</time>
      </trkpt>
      <trkpt lat="45.1653" lon="0.37234">
        <ele>127</ele>
        <time>2025-04-16T09:07:17Z</time>
      </trkpt>
      <trkpt lat="45.16529" lon="0.37197">
        <ele>127</ele>
        <time>2025-04-16T09:07:22Z</time>
      </trkpt>
      <trkpt lat="45.16538" lon="0.37114">
        <ele>127</ele>
        <time>2025-04-16T09:07:32Z</time>
      </trkpt>
      <trkpt lat="45.16554" lon="0.37011">
        <ele>125</ele>
        <time>2025-04-16T09:07:46Z</time>
      </trkpt>
      <trkpt lat="45.16563" lon="0.36978">
        <ele>124</ele>
        <time>2025-04-16T09:07:50Z</time>
      </trkpt>
      <trkpt lat="45.16584" lon="0.36929">
        <ele>122</ele>
        <time>2025-04-16T09:07:57Z</time>
      </trkpt>
      <trkpt lat="45.16626" lon="0.36814">
        <ele>120</ele>
        <time>2025-04-16T09:08:13Z</time>
      </trkpt>
      <trkpt lat="45.16668" lon="0.36712">
        <ele>119</ele>
        <time>2025-04-16T09:08:28Z</time>
      </trkpt>
      <trkpt lat="45.16672" lon="0.36679">
        <ele>118</ele>
        <time>2025-04-16T09:08:32Z</time>
      </trkpt>
      <trkpt lat="45.16667" lon="0.36629">
        <ele>118</ele>
        <time>2025-04-16T09:08:39Z</time>
      </trkpt>
      <trkpt lat="45.16664" lon="0.36545">
        <ele>117</ele>
        <time>2025-04-16T09:08:49Z</time>
      </trkpt>
      <trkpt lat="45.16688" lon="0.3637">
        <ele>113</ele>
        <time>2025-04-16T09:09:12Z</time>
      </trkpt>
      <trkpt lat="45.16711" lon="0.36254">
        <ele>113</ele>
        <time>2025-04-16T09:09:27Z</time>
      </trkpt>
      <trkpt lat="45.1673" lon="0.36205">
        <ele>112</ele>
        <time>2025-04-16T09:09:34Z</time>
      </trkpt>
      <trkpt lat="45.16762" lon="0.36157">
        <ele>109</ele>
        <time>2025-04-16T09:09:42Z</time>
      </trkpt>
      <trkpt lat="45.16795" lon="0.3607">
        <ele>108</ele>
        <time>2025-04-16T09:09:54Z</time>
      </trkpt>
      <trkpt lat="45.16817" lon="0.3596">
        <ele>107</ele>
        <time>2025-04-16T09:10:09Z</time>
      </trkpt>
      <trkpt lat="45.16822" lon="0.35864">
        <ele>107</ele>
        <time>2025-04-16T09:10:21Z</time>
      </trkpt>
      <trkpt lat="45.16841" lon="0.35807">
        <ele>107</ele>
        <time>2025-04-16T09:10:29Z</time>
      </trkpt>
      <trkpt lat="45.16857" lon="0.3574">
        <ele>107</ele>
        <time>2025-04-16T09:10:38Z</time>
      </trkpt>
      <trkpt lat="45.16907" lon="0.35764">
        <ele>109</ele>
        <time>2025-04-16T09:10:47Z</time>
      </trkpt>
      <trkpt lat="45.16929" lon="0.35768">
        <ele>110</ele>
        <time>2025-04-16T09:10:51Z</time>
      </trkpt>
      <trkpt lat="45.16952" lon="0.35765">
        <ele>111</ele>
        <time>2025-04-16T09:10:55Z</time>
      </trkpt>
      <trkpt lat="45.1701" lon="0.35739">
        <ele>116</ele>
        <time>2025-04-16T09:11:06Z</time>
      </trkpt>
      <trkpt lat="45.17063" lon="0.35726">
        <ele>121</ele>
        <time>2025-04-16T09:11:16Z</time>
      </trkpt>
      <trkpt lat="45.17096" lon="0.35716">
        <ele>125</ele>
        <time>2025-04-16T09:11:22Z</time>
      </trkpt>
      <trkpt lat="45.17103" lon="0.3571">
        <ele>126</ele>
        <time>2025-04-16T09:11:23Z</time>
      </trkpt>
      <trkpt lat="45.17125" lon="0.35693">
        <ele>130</ele>
        <time>2025-04-16T09:11:27Z</time>
      </trkpt>
      <trkpt lat="45.17141" lon="0.35684">
        <ele>133</ele>
        <time>2025-04-16T09:11:31Z</time>
      </trkpt>
      <trkpt lat="45.17156" lon="0.35681">
        <ele>135</ele>
        <time>2025-04-16T09:11:33Z</time>
      </trkpt>
      <trkpt lat="45.17169" lon="0.35683">
        <ele>136</ele>
        <time>2025-04-16T09:11:36Z</time>
      </trkpt>
      <trkpt lat="45.1721" lon="0.35699">
        <ele>135</ele>
        <time>2025-04-16T09:11:43Z</time>
      </trkpt>
      <trkpt lat="45.17224" lon="0.35702">
        <ele>135</ele>
        <time>2025-04-16T09:11:46Z</time>
      </trkpt>
      <trkpt lat="45.1724" lon="0.35699">
        <ele>135</ele>
        <time>2025-04-16T09:11:48Z</time>
      </trkpt>
      <trkpt lat="45.1727" lon="0.35683">
        <ele>137</ele>
        <time>2025-04-16T09:11:54Z</time>
      </trkpt>
      <trkpt lat="45.17289" lon="0.35675">
        <ele>137</ele>
        <time>2025-04-16T09:11:58Z</time>
      </trkpt>
      <trkpt lat="45.17305" lon="0.35678">
        <ele>137</ele>
        <time>2025-04-16T09:12:01Z</time>
      </trkpt>
      <trkpt lat="45.17317" lon="0.35684">
        <ele>138</ele>
        <time>2025-04-16T09:12:03Z</time>
      </trkpt>
      <trkpt lat="45.17424" lon="0.35756">
        <ele>142</ele>
        <time>2025-04-16T09:12:24Z</time>
      </trkpt>
      <trkpt lat="45.17441" lon="0.35762">
        <ele>142</ele>
        <time>2025-04-16T09:12:27Z</time>
      </trkpt>
      <trkpt lat="45.17452" lon="0.35763">
        <ele>142</ele>
        <time>2025-04-16T09:12:29Z</time>
      </trkpt>
      <trkpt lat="45.1746" lon="0.3576">
        <ele>142</ele>
        <time>2025-04-16T09:12:30Z</time>
      </trkpt>
      <trkpt lat="45.17516" lon="0.35734">
        <ele>141</ele>
        <time>2025-04-16T09:12:41Z</time>
      </trkpt>
      <trkpt lat="45.17608" lon="0.35682">
        <ele>133</ele>
        <time>2025-04-16T09:12:59Z</time>
      </trkpt>
      <trkpt lat="45.17621" lon="0.35662">
        <ele>132</ele>
        <time>2025-04-16T09:13:02Z</time>
      </trkpt>
      <trkpt lat="45.17626" lon="0.35634">
        <ele>132</ele>
        <time>2025-04-16T09:13:06Z</time>
      </trkpt>
      <trkpt lat="45.17635" lon="0.3561">
        <ele>131</ele>
        <time>2025-04-16T09:13:09Z</time>
      </trkpt>
      <trkpt lat="45.17648" lon="0.35595">
        <ele>130</ele>
        <time>2025-04-16T09:13:12Z</time>
      </trkpt>
      <trkpt lat="45.17662" lon="0.35588">
        <ele>129</ele>
        <time>2025-04-16T09:13:15Z</time>
      </trkpt>
      <trkpt lat="45.17674" lon="0.35586">
        <ele>130</ele>
        <time>2025-04-16T09:13:17Z</time>
      </trkpt>
      <trkpt lat="45.17689" lon="0.3559">
        <ele>131</ele>
        <time>2025-04-16T09:13:20Z</time>
      </trkpt>
      <trkpt lat="45.17727" lon="0.35607">
        <ele>134</ele>
        <time>2025-04-16T09:13:27Z</time>
      </trkpt>
      <trkpt lat="45.1778" lon="0.35635">
        <ele>138</ele>
        <time>2025-04-16T09:13:37Z</time>
      </trkpt>
      <trkpt lat="45.17804" lon="0.35647">
        <ele>140</ele>
        <time>2025-04-16T09:13:41Z</time>
      </trkpt>
      <trkpt lat="45.17836" lon="0.35658">
        <ele>142</ele>
        <time>2025-04-16T09:13:47Z</time>
      </trkpt>
      <trkpt lat="45.17872" lon="0.35661">
        <ele>143</ele>
        <time>2025-04-16T09:13:53Z</time>
      </trkpt>
      <trkpt lat="45.17903" lon="0.35657">
        <ele>143</ele>
        <time>2025-04-16T09:13:59Z</time>
      </trkpt>
      <trkpt lat="45.17925" lon="0.35656">
        <ele>144</ele>
        <time>2025-04-16T09:14:03Z</time>
      </trkpt>
      <trkpt lat="45.1798" lon="0.35665">
        <ele>144</ele>
        <time>2025-04-16T09:14:13Z</time>
      </trkpt>
      <trkpt lat="45.17985" lon="0.35672">
        <ele>144</ele>
        <time>2025-04-16T09:14:14Z</time>
      </trkpt>
      <trkpt lat="45.18015" lon="0.35698">
        <ele>145</ele>
        <time>2025-04-16T09:14:20Z</time>
      </trkpt>
      <trkpt lat="45.18027" lon="0.35712">
        <ele>145</ele>
        <time>2025-04-16T09:14:23Z</time>
      </trkpt>
      <trkpt lat="45.18039" lon="0.35735">
        <ele>146</ele>
        <time>2025-04-16T09:14:27Z</time>
      </trkpt>
      <trkpt lat="45.18056" lon="0.35777">
        <ele>146</ele>
        <time>2025-04-16T09:14:33Z</time>
      </trkpt>
      <trkpt lat="45.18083" lon="0.3587">
        <ele>145</ele>
        <time>2025-04-16T09:14:45Z</time>
      </trkpt>
      <trkpt lat="45.18096" lon="0.35898">
        <ele>145</ele>
        <time>2025-04-16T09:14:50Z</time>
      </trkpt>
      <trkpt lat="45.18115" lon="0.35922">
        <ele>145</ele>
        <time>2025-04-16T09:14:54Z</time>
      </trkpt>
      <trkpt lat="45.18135" lon="0.35936">
        <ele>145</ele>
        <time>2025-04-16T09:14:58Z</time>
      </trkpt>
      <trkpt lat="45.18147" lon="0.35939">
        <ele>145</ele>
        <time>2025-04-16T09:15:00Z</time>
      </trkpt>
      <trkpt lat="45.18173" lon="0.35945">
        <ele>144</ele>
        <time>2025-04-16T09:15:05Z</time>
      </trkpt>
      <trkpt lat="45.18195" lon="0.35939">
        <ele>142</ele>
        <time>2025-04-16T09:15:09Z</time>
      </trkpt>
      <trkpt lat="45.18256" lon="0.35901">
        <ele>138</ele>
        <time>2025-04-16T09:15:21Z</time>
      </trkpt>
      <trkpt lat="45.18364" lon="0.35833">
        <ele>132</ele>
        <time>2025-04-16T09:15:42Z</time>
      </trkpt>
      <trkpt lat="45.18391" lon="0.35819">
        <ele>131</ele>
        <time>2025-04-16T09:15:47Z</time>
      </trkpt>
      <trkpt lat="45.18405" lon="0.35816">
        <ele>131</ele>
        <time>2025-04-16T09:15:49Z</time>
      </trkpt>
      <trkpt lat="45.18434" lon="0.35834">
        <ele>127</ele>
        <time>2025-04-16T09:15:55Z</time>
      </trkpt>
      <trkpt lat="45.18494" lon="0.35879">
        <ele>118</ele>
        <time>2025-04-16T09:16:07Z</time>
      </trkpt>
      <trkpt lat="45.18518" lon="0.35889">
        <ele>118</ele>
        <time>2025-04-16T09:16:12Z</time>
      </trkpt>
      <trkpt lat="45.18538" lon="0.35891">
        <ele>119</ele>
        <time>2025-04-16T09:16:15Z</time>
      </trkpt>
      <trkpt lat="45.18831" lon="0.35844">
        <ele>142</ele>
        <time>2025-04-16T09:17:08Z</time>
      </trkpt>
      <trkpt lat="45.18852" lon="0.35839">
        <ele>143</ele>
        <time>2025-04-16T09:17:11Z</time>
      </trkpt>
      <trkpt lat="45.18872" lon="0.35831">
        <ele>145</ele>
        <time>2025-04-16T09:17:15Z</time>
      </trkpt>
      <trkpt lat="45.19004" lon="0.35734">
        <ele>151</ele>
        <time>2025-04-16T09:17:42Z</time>
      </trkpt>
      <trkpt lat="45.1901" lon="0.35724">
        <ele>151</ele>
        <time>2025-04-16T09:17:43Z</time>
      </trkpt>
      <trkpt lat="45.19014" lon="0.35717">
        <ele>151</ele>
        <time>2025-04-16T09:17:44Z</time>
      </trkpt>
      <trkpt lat="45.1903" lon="0.35679">
        <ele>149</ele>
        <time>2025-04-16T09:17:50Z</time>
      </trkpt>
      <trkpt lat="45.19043" lon="0.35665">
        <ele>147</ele>
        <time>2025-04-16T09:17:53Z</time>
      </trkpt>
      <trkpt lat="45.19056" lon="0.35661">
        <ele>146</ele>
        <time>2025-04-16T09:17:55Z</time>
      </trkpt>
      <trkpt lat="45.19069" lon="0.35666">
        <ele>146</ele>
        <time>2025-04-16T09:17:57Z</time>
      </trkpt>
      <trkpt lat="45.19084" lon="0.35678">
        <ele>146</ele>
        <time>2025-04-16T09:18:01Z</time>
      </trkpt>
      <trkpt lat="45.19124" lon="0.35727">
        <ele>144</ele>
        <time>2025-04-16T09:18:10Z</time>
      </trkpt>
      <trkpt lat="45.1915" lon="0.35799">
        <ele>144</ele>
        <time>2025-04-16T09:18:20Z</time>
      </trkpt>
      <trkpt lat="45.19161" lon="0.35815">
        <ele>144</ele>
        <time>2025-04-16T09:18:23Z</time>
      </trkpt>
      <trkpt lat="45.19177" lon="0.35826">
        <ele>142</ele>
        <time>2025-04-16T09:18:26Z</time>
      </trkpt>
      <trkpt lat="45.19194" lon="0.35829">
        <ele>140</ele>
        <time>2025-04-16T09:18:29Z</time>
      </trkpt>
      <trkpt lat="45.19214" lon="0.35825">
        <ele>137</ele>
        <time>2025-04-16T09:18:33Z</time>
      </trkpt>
      <trkpt lat="45.19243" lon="0.35812">
        <ele>134</ele>
        <time>2025-04-16T09:18:38Z</time>
      </trkpt>
      <trkpt lat="45.19294" lon="0.35794">
        <ele>138</ele>
        <time>2025-04-16T09:18:47Z</time>
      </trkpt>
      <trkpt lat="45.19318" lon="0.35793">
        <ele>140</ele>
        <time>2025-04-16T09:18:52Z</time>
      </trkpt>
      <trkpt lat="45.1933" lon="0.35796">
        <ele>141</ele>
        <time>2025-04-16T09:18:54Z</time>
      </trkpt>
      <trkpt lat="45.1939" lon="0.35815">
        <ele>147</ele>
        <time>2025-04-16T09:19:05Z</time>
      </trkpt>
      <trkpt lat="45.19401" lon="0.35823">
        <ele>148</ele>
        <time>2025-04-16T09:19:07Z</time>
      </trkpt>
      <trkpt lat="45.19409" lon="0.3583">
        <ele>148</ele>
        <time>2025-04-16T09:19:09Z</time>
      </trkpt>
      <trkpt lat="45.19441" lon="0.3587">
        <ele>151</ele>
        <time>2025-04-16T09:19:16Z</time>
      </trkpt>
      <trkpt lat="45.19448" lon="0.35877">
        <ele>152</ele>
        <time>2025-04-16T09:19:18Z</time>
      </trkpt>
      <trkpt lat="45.19456" lon="0.35881">
        <ele>153</ele>
        <time>2025-04-16T09:19:19Z</time>
      </trkpt>
      <trkpt lat="45.19481" lon="0.35888">
        <ele>157</ele>
        <time>2025-04-16T09:19:24Z</time>
      </trkpt>
      <trkpt lat="45.19534" lon="0.35899">
        <ele>161</ele>
        <time>2025-04-16T09:19:33Z</time>
      </trkpt>
      <trkpt lat="45.1958" lon="0.35908">
        <ele>164</ele>
        <time>2025-04-16T09:19:42Z</time>
      </trkpt>
      <trkpt lat="45.19588" lon="0.35913">
        <ele>165</ele>
        <time>2025-04-16T09:19:43Z</time>
      </trkpt>
      <trkpt lat="45.19596" lon="0.35921">
        <ele>165</ele>
        <time>2025-04-16T09:19:45Z</time>
      </trkpt>
      <trkpt lat="45.19609" lon="0.35941">
        <ele>166</ele>
        <time>2025-04-16T09:19:48Z</time>
      </trkpt>
      <trkpt lat="45.19646" lon="0.36003">
        <ele>170</ele>
        <time>2025-04-16T09:19:59Z</time>
      </trkpt>
      <trkpt lat="45.1966" lon="0.36014">
        <ele>171</ele>
        <time>2025-04-16T09:20:01Z</time>
      </trkpt>
      <trkpt lat="45.19722" lon="0.36023">
        <ele>172</ele>
        <time>2025-04-16T09:20:13Z</time>
      </trkpt>
      <trkpt lat="45.19716" lon="0.35945">
        <ele>168</ele>
        <time>2025-04-16T09:20:22Z</time>
      </trkpt>
      <trkpt lat="45.19717" lon="0.35858">
        <ele>161</ele>
        <time>2025-04-16T09:20:33Z</time>
      </trkpt>
      <trkpt lat="45.19718" lon="0.35841">
        <ele>159</ele>
        <time>2025-04-16T09:20:35Z</time>
      </trkpt>
      <trkpt lat="45.1972" lon="0.35825">
        <ele>157</ele>
        <time>2025-04-16T09:20:37Z</time>
      </trkpt>
      <trkpt lat="45.19728" lon="0.35803">
        <ele>156</ele>
        <time>2025-04-16T09:20:41Z</time>
      </trkpt>
      <trkpt lat="45.19749" lon="0.35833">
        <ele>157</ele>
        <time>2025-04-16T09:20:46Z</time>
      </trkpt>
      <trkpt lat="45.19728" lon="0.35803">
        <ele>156</ele>
        <time>2025-04-16T09:20:51Z</time>
      </trkpt>
      <trkpt lat="45.1973" lon="0.35797">
        <ele>155</ele>
        <time>2025-04-16T09:20:52Z</time>
      </trkpt>
      <trkpt lat="45.19739" lon="0.35768">
        <ele>153</ele>
        <time>2025-04-16T09:20:56Z</time>
      </trkpt>
      <trkpt lat="45.19741" lon="0.35755">
        <ele>152</ele>
        <time>2025-04-16T09:20:58Z</time>
      </trkpt>
      <trkpt lat="45.19738" lon="0.35738">
        <ele>149</ele>
        <time>2025-04-16T09:21:00Z</time>
      </trkpt>
      <trkpt lat="45.19728" lon="0.35727">
        <ele>148</ele>
        <time>2025-04-16T09:21:02Z</time>
      </trkpt>
      <trkpt lat="45.19718" lon="0.35718">
        <ele>147</ele>
        <time>2025-04-16T09:21:04Z</time>
      </trkpt>
      <trkpt lat="45.19712" lon="0.35713">
        <ele>146</ele>
        <time>2025-04-16T09:21:05Z</time>
      </trkpt>
      <trkpt lat="45.19673" lon="0.35688">
        <ele>145</ele>
        <time>2025-04-16T09:21:13Z</time>
      </trkpt>
      <trkpt lat="45.19671" lon="0.35685">
        <ele>145</ele>
        <time>2025-04-16T09:21:14Z</time>
      </trkpt>
      <trkpt lat="45.1967" lon="0.35679">
        <ele>144</ele>
        <time>2025-04-16T09:21:14Z</time>
      </trkpt>
      <trkpt lat="45.19673" lon="0.35672">
        <ele>143</ele>
        <time>2025-04-16T09:21:15Z</time>
      </trkpt>
      <trkpt lat="45.19679" lon="0.35671">
        <ele>142</ele>
        <time>2025-04-16T09:21:16Z</time>
      </trkpt>
      <trkpt lat="45.19759" lon="0.35692">
        <ele>139</ele>
        <time>2025-04-16T09:21:31Z</time>
      </trkpt>
      <trkpt lat="45.19792" lon="0.35699">
        <ele>139</ele>
        <time>2025-04-16T09:21:37Z</time>
      </trkpt>
      <trkpt lat="45.19807" lon="0.357">
        <ele>138</ele>
        <time>2025-04-16T09:21:39Z</time>
      </trkpt>
      <trkpt lat="45.19818" lon="0.35697">
        <ele>137</ele>
        <time>2025-04-16T09:21:41Z</time>
      </trkpt>
      <trkpt lat="45.19826" lon="0.35692">
        <ele>136</ele>
        <time>2025-04-16T09:21:43Z</time>
      </trkpt>
      <trkpt lat="45.19834" lon="0.35683">
        <ele>135</ele>
        <time>2025-04-16T09:21:45Z</time>
      </trkpt>
      <trkpt lat="45.1984" lon="0.35672">
        <ele>135</ele>
        <time>2025-04-16T09:21:47Z</time>
      </trkpt>
      <trkpt lat="45.19845" lon="0.35655">
        <ele>137</ele>
        <time>2025-04-16T09:21:49Z</time>
      </trkpt>
      <trkpt lat="45.19845" lon="0.35641">
        <ele>138</ele>
        <time>2025-04-16T09:21:51Z</time>
      </trkpt>
      <trkpt lat="45.1984" lon="0.35622">
        <ele>139</ele>
        <time>2025-04-16T09:21:53Z</time>
      </trkpt>
      <trkpt lat="45.19835" lon="0.35611">
        <ele>140</ele>
        <time>2025-04-16T09:21:55Z</time>
      </trkpt>
      <trkpt lat="45.19825" lon="0.35595">
        <ele>140</ele>
        <time>2025-04-16T09:21:58Z</time>
      </trkpt>
      <trkpt lat="45.19813" lon="0.35584">
        <ele>139</ele>
        <time>2025-04-16T09:22:00Z</time>
      </trkpt>
      <trkpt lat="45.19719" lon="0.35542">
        <ele>133</ele>
        <time>2025-04-16T09:22:18Z</time>
      </trkpt>
      <trkpt lat="45.19684" lon="0.35523">
        <ele>131</ele>
        <time>2025-04-16T09:22:24Z</time>
      </trkpt>
      <trkpt lat="45.19661" lon="0.35495">
        <ele>129</ele>
        <time>2025-04-16T09:22:30Z</time>
      </trkpt>
      <trkpt lat="45.19647" lon="0.35471">
        <ele>128</ele>
        <time>2025-04-16T09:22:34Z</time>
      </trkpt>
      <trkpt lat="45.19637" lon="0.35454">
        <ele>128</ele>
        <time>2025-04-16T09:22:36Z</time>
      </trkpt>
      <trkpt lat="45.19621" lon="0.35413">
        <ele>125</ele>
        <time>2025-04-16T09:22:42Z</time>
      </trkpt>
      <trkpt lat="45.19595" lon="0.35355">
        <ele>122</ele>
        <time>2025-04-16T09:22:51Z</time>
      </trkpt>
      <trkpt lat="45.19585" lon="0.35349">
        <ele>121</ele>
        <time>2025-04-16T09:22:53Z</time>
      </trkpt>
      <trkpt lat="45.1937" lon="0.35098">
        <ele>120</ele>
        <time>2025-04-16T09:23:42Z</time>
      </trkpt>
      <trkpt lat="45.19318" lon="0.3505">
        <ele>118</ele>
        <time>2025-04-16T09:23:53Z</time>
      </trkpt>
      <trkpt lat="45.1929" lon="0.35021">
        <ele>118</ele>
        <time>2025-04-16T09:24:00Z</time>
      </trkpt>
      <trkpt lat="45.19278" lon="0.35">
        <ele>118</ele>
        <time>2025-04-16T09:24:03Z</time>
      </trkpt>
      <trkpt lat="45.19269" lon="0.34987">
        <ele>117</ele>
        <time>2025-04-16T09:24:05Z</time>
      </trkpt>
      <trkpt lat="45.19244" lon="0.3493">
        <ele>115</ele>
        <time>2025-04-16T09:24:14Z</time>
      </trkpt>
      <trkpt lat="45.1923" lon="0.34906">
        <ele>115</ele>
        <time>2025-04-16T09:24:18Z</time>
      </trkpt>
      <trkpt lat="45.19209" lon="0.34882">
        <ele>114</ele>
        <time>2025-04-16T09:24:22Z</time>
      </trkpt>
      <trkpt lat="45.19084" lon="0.34778">
        <ele>116</ele>
        <time>2025-04-16T09:24:48Z</time>
      </trkpt>
      <trkpt lat="45.18925" lon="0.34638">
        <ele>125</ele>
        <time>2025-04-16T09:25:21Z</time>
      </trkpt>
      <trkpt lat="45.18864" lon="0.34581">
        <ele>128</ele>
        <time>2025-04-16T09:25:34Z</time>
      </trkpt>
      <trkpt lat="45.18846" lon="0.34561">
        <ele>128</ele>
        <time>2025-04-16T09:25:38Z</time>
      </trkpt>
      <trkpt lat="45.18816" lon="0.34526">
        <ele>129</ele>
        <time>2025-04-16T09:25:45Z</time>
      </trkpt>
      <trkpt lat="45.18774" lon="0.34463">
        <ele>129</ele>
        <time>2025-04-16T09:25:56Z</time>
      </trkpt>
      <trkpt lat="45.18763" lon="0.34444">
        <ele>128</ele>
        <time>2025-04-16T09:25:59Z</time>
      </trkpt>
      <trkpt lat="45.18651" lon="0.34113">
        <ele>127</ele>
        <time>2025-04-16T09:26:45Z</time>
      </trkpt>
      <trkpt lat="45.18618" lon="0.33968">
        <ele>123</ele>
        <time>2025-04-16T09:27:04Z</time>
      </trkpt>
      <trkpt lat="45.18594" lon="0.33853">
        <ele>123</ele>
        <time>2025-04-16T09:27:20Z</time>
      </trkpt>
      <trkpt lat="45.18574" lon="0.33696">
        <ele>120</ele>
        <time>2025-04-16T09:27:40Z</time>
      </trkpt>
      <trkpt lat="45.18564" lon="0.33658">
        <ele>120</ele>
        <time>2025-04-16T09:27:45Z</time>
      </trkpt>
      <trkpt lat="45.18553" lon="0.33631">
        <ele>120</ele>
        <time>2025-04-16T09:27:49Z</time>
      </trkpt>
      <trkpt lat="45.18505" lon="0.33554">
        <ele>120</ele>
        <time>2025-04-16T09:28:01Z</time>
      </trkpt>
      <trkpt lat="45.18494" lon="0.33532">
        <ele>119</ele>
        <time>2025-04-16T09:28:05Z</time>
      </trkpt>
      <trkpt lat="45.18441" lon="0.33357">
        <ele>112</ele>
        <time>2025-04-16T09:28:29Z</time>
      </trkpt>
      <trkpt lat="45.18432" lon="0.3334">
        <ele>110</ele>
        <time>2025-04-16T09:28:31Z</time>
      </trkpt>
      <trkpt lat="45.18416" lon="0.3333">
        <ele>109</ele>
        <time>2025-04-16T09:28:34Z</time>
      </trkpt>
      <trkpt lat="45.18372" lon="0.33325">
        <ele>105</ele>
        <time>2025-04-16T09:28:42Z</time>
      </trkpt>
      <trkpt lat="45.18334" lon="0.33302">
        <ele>102</ele>
        <time>2025-04-16T09:28:50Z</time>
      </trkpt>
      <trkpt lat="45.18303" lon="0.33298">
        <ele>101</ele>
        <time>2025-04-16T09:28:55Z</time>
      </trkpt>
      <trkpt lat="45.18286" lon="0.33292">
        <ele>100</ele>
        <time>2025-04-16T09:28:58Z</time>
      </trkpt>
      <trkpt lat="45.18274" lon="0.33279">
        <ele>99</ele>
        <time>2025-04-16T09:29:01Z</time>
      </trkpt>
      <trkpt lat="45.18267" lon="0.33252">
        <ele>98</ele>
        <time>2025-04-16T09:29:05Z</time>
      </trkpt>
      <trkpt lat="45.18214" lon="0.33227">
        <ele>98</ele>
        <time>2025-04-16T09:29:15Z</time>
      </trkpt>
      <trkpt lat="45.17928" lon="0.33089">
        <ele>90</ele>
        <time>2025-04-16T09:30:08Z</time>
      </trkpt>
      <trkpt lat="45.17736" lon="0.32996">
        <ele>92</ele>
        <time>2025-04-16T09:30:44Z</time>
      </trkpt>
      <trkpt lat="45.17714" lon="0.32983">
        <ele>94</ele>
        <time>2025-04-16T09:30:49Z</time>
      </trkpt>
      <trkpt lat="45.17639" lon="0.32936">
        <ele>95</ele>
        <time>2025-04-16T09:31:03Z</time>
      </trkpt>
      <trkpt lat="45.17623" lon="0.32926">
        <ele>95</ele>
        <time>2025-04-16T09:31:06Z</time>
      </trkpt>
      <trkpt lat="45.1753" lon="0.32859">
        <ele>93</ele>
        <time>2025-04-16T09:31:25Z</time>
      </trkpt>
      <trkpt lat="45.17494" lon="0.32838">
        <ele>90</ele>
        <time>2025-04-16T09:31:32Z</time>
      </trkpt>
      <trkpt lat="45.17465" lon="0.32826">
        <ele>88</ele>
        <time>2025-04-16T09:31:37Z</time>
      </trkpt>
      <trkpt lat="45.17256" lon="0.32771">
        <ele>86</ele>
        <time>2025-04-16T09:32:15Z</time>
      </trkpt>
      <trkpt lat="45.17179" lon="0.32733">
        <ele>83</ele>
        <time>2025-04-16T09:32:30Z</time>
      </trkpt>
      <trkpt lat="45.17091" lon="0.3272">
        <ele>81</ele>
        <time>2025-04-16T09:32:45Z</time>
      </trkpt>
      <trkpt lat="45.17057" lon="0.32718">
        <ele>81</ele>
        <time>2025-04-16T09:32:51Z</time>
      </trkpt>
      <trkpt lat="45.17027" lon="0.32726">
        <ele>81</ele>
        <time>2025-04-16T09:32:57Z</time>
      </trkpt>
      <trkpt lat="45.16999" lon="0.32735">
        <ele>80</ele>
        <time>2025-04-16T09:33:02Z</time>
      </trkpt>
      <trkpt lat="45.1696" lon="0.32749">
        <ele>83</ele>
        <time>2025-04-16T09:33:09Z</time>
      </trkpt>
      <trkpt lat="45.16911" lon="0.3276">
        <ele>87</ele>
        <time>2025-04-16T09:33:18Z</time>
      </trkpt>
      <trkpt lat="45.1689" lon="0.32762">
        <ele>88</ele>
        <time>2025-04-16T09:33:22Z</time>
      </trkpt>
      <trkpt lat="45.16826" lon="0.32762">
        <ele>90</ele>
        <time>2025-04-16T09:33:33Z</time>
      </trkpt>
      <trkpt lat="45.16805" lon="0.32766">
        <ele>90</ele>
        <time>2025-04-16T09:33:37Z</time>
      </trkpt>
      <trkpt lat="45.1673" lon="0.32792">
        <ele>92</ele>
        <time>2025-04-16T09:33:50Z</time>
      </trkpt>
      <trkpt lat="45.16677" lon="0.32803">
        <ele>93</ele>
        <time>2025-04-16T09:34:00Z</time>
      </trkpt>
      <trkpt lat="45.16644" lon="0.32805">
        <ele>95</ele>
        <time>2025-04-16T09:34:06Z</time>
      </trkpt>
      <trkpt lat="45.1661" lon="0.32803">
        <ele>98</ele>
        <time>2025-04-16T09:34:12Z</time>
      </trkpt>
      <trkpt lat="45.16495" lon="0.32795">
        <ele>105</ele>
        <time>2025-04-16T09:34:32Z</time>
      </trkpt>
      <trkpt lat="45.16466" lon="0.328">
        <ele>106</ele>
        <time>2025-04-16T09:34:38Z</time>
      </trkpt>
      <trkpt lat="45.16416" lon="0.32814">
        <ele>106</ele>
        <time>2025-04-16T09:34:47Z</time>
      </trkpt>
      <trkpt lat="45.16393" lon="0.32816">
        <ele>106</ele>
        <time>2025-04-16T09:34:51Z</time>
      </trkpt>
      <trkpt lat="45.1638" lon="0.32816">
        <ele>106</ele>
        <time>2025-04-16T09:34:53Z</time>
      </trkpt>
      <trkpt lat="45.16357" lon="0.32806">
        <ele>106</ele>
        <time>2025-04-16T09:34:57Z</time>
      </trkpt>
      <trkpt lat="45.16344" lon="0.32795">
        <ele>107</ele>
        <time>2025-04-16T09:35:00Z</time>
      </trkpt>
      <trkpt lat="45.16332" lon="0.32781">
        <ele>107</ele>
        <time>2025-04-16T09:35:03Z</time>
      </trkpt>
      <trkpt lat="45.16322" lon="0.32764">
        <ele>108</ele>
        <time>2025-04-16T09:35:06Z</time>
      </trkpt>
      <trkpt lat="45.16311" lon="0.32735">
        <ele>108</ele>
        <time>2025-04-16T09:35:10Z</time>
      </trkpt>
      <trkpt lat="45.16295" lon="0.32664">
        <ele>109</ele>
        <time>2025-04-16T09:35:19Z</time>
      </trkpt>
      <trkpt lat="45.16289" lon="0.32645">
        <ele>109</ele>
        <time>2025-04-16T09:35:22Z</time>
      </trkpt>
      <trkpt lat="45.16278" lon="0.32627">
        <ele>109</ele>
        <time>2025-04-16T09:35:25Z</time>
      </trkpt>
      <trkpt lat="45.16249" lon="0.32593">
        <ele>109</ele>
        <time>2025-04-16T09:35:31Z</time>
      </trkpt>
      <trkpt lat="45.16228" lon="0.3257">
        <ele>109</ele>
        <time>2025-04-16T09:35:36Z</time>
      </trkpt>
      <trkpt lat="45.16173" lon="0.32481">
        <ele>109</ele>
        <time>2025-04-16T09:35:51Z</time>
      </trkpt>
      <trkpt lat="45.16155" lon="0.32457">
        <ele>109</ele>
        <time>2025-04-16T09:35:55Z</time>
      </trkpt>
      <trkpt lat="45.16139" lon="0.32441">
        <ele>110</ele>
        <time>2025-04-16T09:35:59Z</time>
      </trkpt>
      <trkpt lat="45.16095" lon="0.32409">
        <ele>112</ele>
        <time>2025-04-16T09:36:08Z</time>
      </trkpt>
      <trkpt lat="45.16077" lon="0.32392">
        <ele>113</ele>
        <time>2025-04-16T09:36:12Z</time>
      </trkpt>
      <trkpt lat="45.16033" lon="0.32342">
        <ele>114</ele>
        <time>2025-04-16T09:36:22Z</time>
      </trkpt>
      <trkpt lat="45.15664" lon="0.31955">
        <ele>99</ele>
        <time>2025-04-16T09:37:43Z</time>
      </trkpt>
      <trkpt lat="45.15617" lon="0.31905">
        <ele>97</ele>
        <time>2025-04-16T09:37:54Z</time>
      </trkpt>
      <trkpt lat="45.15571" lon="0.31859">
        <ele>96</ele>
        <time>2025-04-16T09:38:04Z</time>
      </trkpt>
      <trkpt lat="45.15539" lon="0.31835">
        <ele>94</ele>
        <time>2025-04-16T09:38:10Z</time>
      </trkpt>
      <trkpt lat="45.15521" lon="0.31824">
        <ele>94</ele>
        <time>2025-04-16T09:38:14Z</time>
      </trkpt>
      <trkpt lat="45.15503" lon="0.31818">
        <ele>93</ele>
        <time>2025-04-16T09:38:17Z</time>
      </trkpt>
      <trkpt lat="45.15451" lon="0.31807">
        <ele>94</ele>
        <time>2025-04-16T09:38:26Z</time>
      </trkpt>
      <trkpt lat="45.14981" lon="0.3177">
        <ele>104</ele>
        <time>2025-04-16T09:39:50Z</time>
      </trkpt>
      <trkpt lat="45.14822" lon="0.31758">
        <ele>113</ele>
        <time>2025-04-16T09:40:18Z</time>
      </trkpt>
      <trkpt lat="45.14812" lon="0.31755">
        <ele>113</ele>
        <time>2025-04-16T09:40:20Z</time>
      </trkpt>
      <trkpt lat="45.14771" lon="0.31746">
        <ele>114</ele>
        <time>2025-04-16T09:40:28Z</time>
      </trkpt>
      <trkpt lat="45.14719" lon="0.31728">
        <ele>114</ele>
        <time>2025-04-16T09:40:37Z</time>
      </trkpt>
      <trkpt lat="45.14767" lon="0.31637">
        <ele>111</ele>
        <time>2025-04-16T09:40:51Z</time>
      </trkpt>
      <trkpt lat="45.14806" lon="0.31558">
        <ele>107</ele>
        <time>2025-04-16T09:41:03Z</time>
      </trkpt>
      <trkpt lat="45.14852" lon="0.31475">
        <ele>104</ele>
        <time>2025-04-16T09:41:17Z</time>
      </trkpt>
      <trkpt lat="45.14894" lon="0.3141">
        <ele>102</ele>
        <time>2025-04-16T09:41:28Z</time>
      </trkpt>
      <trkpt lat="45.1494" lon="0.31355">
        <ele>106</ele>
        <time>2025-04-16T09:41:38Z</time>
      </trkpt>
      <trkpt lat="45.14969" lon="0.31314">
        <ele>109</ele>
        <time>2025-04-16T09:41:46Z</time>
      </trkpt>
      <trkpt lat="45.15026" lon="0.31241">
        <ele>111</ele>
        <time>2025-04-16T09:41:59Z</time>
      </trkpt>
      <trkpt lat="45.15047" lon="0.31212">
        <ele>110</ele>
        <time>2025-04-16T09:42:05Z</time>
      </trkpt>
      <trkpt lat="45.15056" lon="0.31183">
        <ele>110</ele>
        <time>2025-04-16T09:42:09Z</time>
      </trkpt>
      <trkpt lat="45.15058" lon="0.31148">
        <ele>111</ele>
        <time>2025-04-16T09:42:13Z</time>
      </trkpt>
      <trkpt lat="45.15057" lon="0.31087">
        <ele>113</ele>
        <time>2025-04-16T09:42:21Z</time>
      </trkpt>
      <trkpt lat="45.15057" lon="0.31054">
        <ele>113</ele>
        <time>2025-04-16T09:42:25Z</time>
      </trkpt>
      <trkpt lat="45.15059" lon="0.3104">
        <ele>113</ele>
        <time>2025-04-16T09:42:27Z</time>
      </trkpt>
      <trkpt lat="45.15071" lon="0.30973">
        <ele>111</ele>
        <time>2025-04-16T09:42:35Z</time>
      </trkpt>
      <trkpt lat="45.15072" lon="0.30944">
        <ele>109</ele>
        <time>2025-04-16T09:42:39Z</time>
      </trkpt>
      <trkpt lat="45.15071" lon="0.30919">
        <ele>108</ele>
        <time>2025-04-16T09:42:42Z</time>
      </trkpt>
      <trkpt lat="45.15051" lon="0.3061">
        <ele>103</ele>
        <time>2025-04-16T09:43:21Z</time>
      </trkpt>
      <trkpt lat="45.15047" lon="0.30518">
        <ele>100</ele>
        <time>2025-04-16T09:43:33Z</time>
      </trkpt>
      <trkpt lat="45.15047" lon="0.30494">
        <ele>99</ele>
        <time>2025-04-16T09:43:36Z</time>
      </trkpt>
      <trkpt lat="45.15048" lon="0.30479">
        <ele>99</ele>
        <time>2025-04-16T09:43:37Z</time>
      </trkpt>
      <trkpt lat="45.15065" lon="0.30393">
        <ele>97</ele>
        <time>2025-04-16T09:43:49Z</time>
      </trkpt>
      <trkpt lat="45.15097" lon="0.30257">
        <ele>99</ele>
        <time>2025-04-16T09:44:07Z</time>
      </trkpt>
      <trkpt lat="45.15105" lon="0.30233">
        <ele>100</ele>
        <time>2025-04-16T09:44:10Z</time>
      </trkpt>
      <trkpt lat="45.15114" lon="0.30214">
        <ele>100</ele>
        <time>2025-04-16T09:44:13Z</time>
      </trkpt>
      <trkpt lat="45.15129" lon="0.30188">
        <ele>101</ele>
        <time>2025-04-16T09:44:17Z</time>
      </trkpt>
      <trkpt lat="45.15188" lon="0.30104">
        <ele>101</ele>
        <time>2025-04-16T09:44:32Z</time>
      </trkpt>
      <trkpt lat="45.15207" lon="0.30071">
        <ele>101</ele>
        <time>2025-04-16T09:44:37Z</time>
      </trkpt>
      <trkpt lat="45.15216" lon="0.30047">
        <ele>101</ele>
        <time>2025-04-16T09:44:41Z</time>
      </trkpt>
      <trkpt lat="45.15222" lon="0.30025">
        <ele>101</ele>
        <time>2025-04-16T09:44:44Z</time>
      </trkpt>
      <trkpt lat="45.15225" lon="0.30001">
        <ele>101</ele>
        <time>2025-04-16T09:44:47Z</time>
      </trkpt>
      <trkpt lat="45.15226" lon="0.29955">
        <ele>102</ele>
        <time>2025-04-16T09:44:52Z</time>
      </trkpt>
      <trkpt lat="45.15229" lon="0.29916">
        <ele>103</ele>
        <time>2025-04-16T09:44:57Z</time>
      </trkpt>
      <trkpt lat="45.15241" lon="0.2987">
        <ele>103</ele>
        <time>2025-04-16T09:45:04Z</time>
      </trkpt>
      <trkpt lat="45.1525" lon="0.29846">
        <ele>102</ele>
        <time>2025-04-16T09:45:07Z</time>
      </trkpt>
      <trkpt lat="45.15271" lon="0.29804">
        <ele>101</ele>
        <time>2025-04-16T09:45:13Z</time>
      </trkpt>
      <trkpt lat="45.15276" lon="0.29792">
        <ele>101</ele>
        <time>2025-04-16T09:45:15Z</time>
      </trkpt>
      <trkpt lat="45.15292" lon="0.29731">
        <ele>100</ele>
        <time>2025-04-16T09:45:23Z</time>
      </trkpt>
      <trkpt lat="45.15294" lon="0.29726">
        <ele>100</ele>
        <time>2025-04-16T09:45:24Z</time>
      </trkpt>
      <trkpt lat="45.15297" lon="0.29715">
        <ele>100</ele>
        <time>2025-04-16T09:45:26Z</time>
      </trkpt>
      <trkpt lat="45.15347" lon="0.29532">
        <ele>107</ele>
        <time>2025-04-16T09:45:50Z</time>
      </trkpt>
      <trkpt lat="45.1535" lon="0.29509">
        <ele>108</ele>
        <time>2025-04-16T09:45:53Z</time>
      </trkpt>
      <trkpt lat="45.1535" lon="0.29492">
        <ele>109</ele>
        <time>2025-04-16T09:45:55Z</time>
      </trkpt>
      <trkpt lat="45.15344" lon="0.29412">
        <ele>113</ele>
        <time>2025-04-16T09:46:05Z</time>
      </trkpt>
      <trkpt lat="45.15344" lon="0.29397">
        <ele>113</ele>
        <time>2025-04-16T09:46:07Z</time>
      </trkpt>
      <trkpt lat="45.15346" lon="0.29387">
        <ele>113</ele>
        <time>2025-04-16T09:46:09Z</time>
      </trkpt>
      <trkpt lat="45.1535" lon="0.2938">
        <ele>113</ele>
        <time>2025-04-16T09:46:10Z</time>
      </trkpt>
      <trkpt lat="45.15358" lon="0.29372">
        <ele>114</ele>
        <time>2025-04-16T09:46:11Z</time>
      </trkpt>
      <trkpt lat="45.15374" lon="0.29369">
        <ele>113</ele>
        <time>2025-04-16T09:46:14Z</time>
      </trkpt>
      <trkpt lat="45.15425" lon="0.29367">
        <ele>112</ele>
        <time>2025-04-16T09:46:23Z</time>
      </trkpt>
      <trkpt lat="45.15457" lon="0.2937">
        <ele>111</ele>
        <time>2025-04-16T09:46:29Z</time>
      </trkpt>
      <trkpt lat="45.15472" lon="0.29369">
        <ele>111</ele>
        <time>2025-04-16T09:46:32Z</time>
      </trkpt>
      <trkpt lat="45.15493" lon="0.29364">
        <ele>110</ele>
        <time>2025-04-16T09:46:36Z</time>
      </trkpt>
      <trkpt lat="45.15604" lon="0.29324">
        <ele>109</ele>
        <time>2025-04-16T09:46:56Z</time>
      </trkpt>
      <trkpt lat="45.15642" lon="0.29301">
        <ele>110</ele>
        <time>2025-04-16T09:47:03Z</time>
      </trkpt>
      <trkpt lat="45.15659" lon="0.29285">
        <ele>111</ele>
        <time>2025-04-16T09:47:07Z</time>
      </trkpt>
      <trkpt lat="45.15699" lon="0.29234">
        <ele>114</ele>
        <time>2025-04-16T09:47:16Z</time>
      </trkpt>
      <trkpt lat="45.1571" lon="0.29209">
        <ele>115</ele>
        <time>2025-04-16T09:47:20Z</time>
      </trkpt>
      <trkpt lat="45.15718" lon="0.29181">
        <ele>117</ele>
        <time>2025-04-16T09:47:24Z</time>
      </trkpt>
      <trkpt lat="45.15737" lon="0.29086">
        <ele>116</ele>
        <time>2025-04-16T09:47:36Z</time>
      </trkpt>
      <trkpt lat="45.15752" lon="0.29028">
        <ele>114</ele>
        <time>2025-04-16T09:47:44Z</time>
      </trkpt>
      <trkpt lat="45.1577" lon="0.28975">
        <ele>112</ele>
        <time>2025-04-16T09:47:51Z</time>
      </trkpt>
      <trkpt lat="45.15802" lon="0.28911">
        <ele>109</ele>
        <time>2025-04-16T09:48:01Z</time>
      </trkpt>
      <trkpt lat="45.15839" lon="0.28834">
        <ele>106</ele>
        <time>2025-04-16T09:48:13Z</time>
      </trkpt>
      <trkpt lat="45.15876" lon="0.28764">
        <ele>98</ele>
        <time>2025-04-16T09:48:24Z</time>
      </trkpt>
      <trkpt lat="45.15905" lon="0.28699">
        <ele>94</ele>
        <time>2025-04-16T09:48:34Z</time>
      </trkpt>
      <trkpt lat="45.1591" lon="0.28692">
        <ele>93</ele>
        <time>2025-04-16T09:48:35Z</time>
      </trkpt>
      <trkpt lat="45.15906" lon="0.28685">
        <ele>93</ele>
        <time>2025-04-16T09:48:36Z</time>
      </trkpt>
      <trkpt lat="45.15899" lon="0.28665">
        <ele>93</ele>
        <time>2025-04-16T09:48:39Z</time>
      </trkpt>
      <trkpt lat="45.15897" lon="0.28655">
        <ele>93</ele>
        <time>2025-04-16T09:48:40Z</time>
      </trkpt>
      <trkpt lat="45.15898" lon="0.28643">
        <ele>92</ele>
        <time>2025-04-16T09:48:42Z</time>
      </trkpt>
      <trkpt lat="45.159" lon="0.28632">
        <ele>92</ele>
        <time>2025-04-16T09:48:43Z</time>
      </trkpt>
      <trkpt lat="45.15903" lon="0.28624">
        <ele>92</ele>
        <time>2025-04-16T09:48:44Z</time>
      </trkpt>
      <trkpt lat="45.15917" lon="0.28599">
        <ele>91</ele>
        <time>2025-04-16T09:48:48Z</time>
      </trkpt>
      <trkpt lat="45.15922" lon="0.28591">
        <ele>91</ele>
        <time>2025-04-16T09:48:50Z</time>
      </trkpt>
      <trkpt lat="45.15949" lon="0.28548">
        <ele>92</ele>
        <time>2025-04-16T09:48:57Z</time>
      </trkpt>
      <trkpt lat="45.15966" lon="0.28525">
        <ele>92</ele>
        <time>2025-04-16T09:49:01Z</time>
      </trkpt>
      <trkpt lat="45.1602" lon="0.28463">
        <ele>96</ele>
        <time>2025-04-16T09:49:13Z</time>
      </trkpt>
      <trkpt lat="45.16044" lon="0.2842">
        <ele>97</ele>
        <time>2025-04-16T09:49:20Z</time>
      </trkpt>
      <trkpt lat="45.16096" lon="0.28316">
        <ele>97</ele>
        <time>2025-04-16T09:49:36Z</time>
      </trkpt>
      <trkpt lat="45.16159" lon="0.28187">
        <ele>100</ele>
        <time>2025-04-16T09:49:56Z</time>
      </trkpt>
      <trkpt lat="45.16199" lon="0.28096">
        <ele>101</ele>
        <time>2025-04-16T09:50:09Z</time>
      </trkpt>
      <trkpt lat="45.16214" lon="0.28027">
        <ele>99</ele>
        <time>2025-04-16T09:50:18Z</time>
      </trkpt>
      <trkpt lat="45.16215" lon="0.27957">
        <ele>96</ele>
        <time>2025-04-16T09:50:27Z</time>
      </trkpt>
      <trkpt lat="45.16212" lon="0.27918">
        <ele>95</ele>
        <time>2025-04-16T09:50:32Z</time>
      </trkpt>
      <trkpt lat="45.16211" lon="0.2791">
        <ele>94</ele>
        <time>2025-04-16T09:50:33Z</time>
      </trkpt>
      <trkpt lat="45.16129" lon="0.27519">
        <ele>86</ele>
        <time>2025-04-16T09:51:24Z</time>
      </trkpt>
      <trkpt lat="45.16127" lon="0.27509">
        <ele>86</ele>
        <time>2025-04-16T09:51:26Z</time>
      </trkpt>
      <trkpt lat="45.16061" lon="0.27184">
        <ele>99</ele>
        <time>2025-04-16T09:52:08Z</time>
      </trkpt>
      <trkpt lat="45.1606" lon="0.27143">
        <ele>100</ele>
        <time>2025-04-16T09:52:13Z</time>
      </trkpt>
      <trkpt lat="45.16071" lon="0.27102">
        <ele>101</ele>
        <time>2025-04-16T09:52:19Z</time>
      </trkpt>
      <trkpt lat="45.16089" lon="0.27071">
        <ele>102</ele>
        <time>2025-04-16T09:52:24Z</time>
      </trkpt>
      <trkpt lat="45.16108" lon="0.27049">
        <ele>100</ele>
        <time>2025-04-16T09:52:28Z</time>
      </trkpt>
      <trkpt lat="45.16204" lon="0.27006">
        <ele>93</ele>
        <time>2025-04-16T09:52:46Z</time>
      </trkpt>
      <trkpt lat="45.16214" lon="0.26996">
        <ele>92</ele>
        <time>2025-04-16T09:52:48Z</time>
      </trkpt>
      <trkpt lat="45.16221" lon="0.26981">
        <ele>92</ele>
        <time>2025-04-16T09:52:50Z</time>
      </trkpt>
      <trkpt lat="45.16225" lon="0.26967">
        <ele>91</ele>
        <time>2025-04-16T09:52:52Z</time>
      </trkpt>
      <trkpt lat="45.16228" lon="0.26951">
        <ele>91</ele>
        <time>2025-04-16T09:52:54Z</time>
      </trkpt>
      <trkpt lat="45.1623" lon="0.26902">
        <ele>91</ele>
        <time>2025-04-16T09:53:01Z</time>
      </trkpt>
      <trkpt lat="45.16231" lon="0.26892">
        <ele>91</ele>
        <time>2025-04-16T09:53:02Z</time>
      </trkpt>
      <trkpt lat="45.16234" lon="0.26882">
        <ele>91</ele>
        <time>2025-04-16T09:53:03Z</time>
      </trkpt>
      <trkpt lat="45.16243" lon="0.26864">
        <ele>90</ele>
        <time>2025-04-16T09:53:06Z</time>
      </trkpt>
      <trkpt lat="45.16317" lon="0.26754">
        <ele>95</ele>
        <time>2025-04-16T09:53:25Z</time>
      </trkpt>
      <trkpt lat="45.16322" lon="0.26742">
        <ele>96</ele>
        <time>2025-04-16T09:53:27Z</time>
      </trkpt>
      <trkpt lat="45.16327" lon="0.26717">
        <ele>97</ele>
        <time>2025-04-16T09:53:30Z</time>
      </trkpt>
      <trkpt lat="45.1633" lon="0.26535">
        <ele>103</ele>
        <time>2025-04-16T09:53:53Z</time>
      </trkpt>
      <trkpt lat="45.16349" lon="0.26447">
        <ele>104</ele>
        <time>2025-04-16T09:54:04Z</time>
      </trkpt>
      <trkpt lat="45.16384" lon="0.26318">
        <ele>105</ele>
        <time>2025-04-16T09:54:22Z</time>
      </trkpt>
      <trkpt lat="45.16393" lon="0.26301">
        <ele>107</ele>
        <time>2025-04-16T09:54:24Z</time>
      </trkpt>
      <trkpt lat="45.16409" lon="0.26286">
        <ele>108</ele>
        <time>2025-04-16T09:54:28Z</time>
      </trkpt>
      <trkpt lat="45.16479" lon="0.26244">
        <ele>108</ele>
        <time>2025-04-16T09:54:41Z</time>
      </trkpt>
      <trkpt lat="45.16543" lon="0.2623">
        <ele>107</ele>
        <time>2025-04-16T09:54:53Z</time>
      </trkpt>
      <trkpt lat="45.16559" lon="0.26218">
        <ele>106</ele>
        <time>2025-04-16T09:54:56Z</time>
      </trkpt>
      <trkpt lat="45.16602" lon="0.26138">
        <ele>104</ele>
        <time>2025-04-16T09:55:09Z</time>
      </trkpt>
      <trkpt lat="45.16625" lon="0.26116">
        <ele>105</ele>
        <time>2025-04-16T09:55:14Z</time>
      </trkpt>
      <trkpt lat="45.16655" lon="0.26101">
        <ele>104</ele>
        <time>2025-04-16T09:55:19Z</time>
      </trkpt>
      <trkpt lat="45.16682" lon="0.26099">
        <ele>103</ele>
        <time>2025-04-16T09:55:24Z</time>
      </trkpt>
      <trkpt lat="45.16718" lon="0.26084">
        <ele>102</ele>
        <time>2025-04-16T09:55:31Z</time>
      </trkpt>
      <trkpt lat="45.16763" lon="0.26043">
        <ele>100</ele>
        <time>2025-04-16T09:55:40Z</time>
      </trkpt>
      <trkpt lat="45.16789" lon="0.26034">
        <ele>100</ele>
        <time>2025-04-16T09:55:45Z</time>
      </trkpt>
      <trkpt lat="45.1682" lon="0.26036">
        <ele>100</ele>
        <time>2025-04-16T09:55:51Z</time>
      </trkpt>
      <trkpt lat="45.16846" lon="0.26016">
        <ele>100</ele>
        <time>2025-04-16T09:55:56Z</time>
      </trkpt>
      <trkpt lat="45.16864" lon="0.25981">
        <ele>100</ele>
        <time>2025-04-16T09:56:01Z</time>
      </trkpt>
      <trkpt lat="45.16871" lon="0.25807">
        <ele>107</ele>
        <time>2025-04-16T09:56:23Z</time>
      </trkpt>
      <trkpt lat="45.16876" lon="0.25788">
        <ele>108</ele>
        <time>2025-04-16T09:56:26Z</time>
      </trkpt>
      <trkpt lat="45.16905" lon="0.25711">
        <ele>108</ele>
        <time>2025-04-16T09:56:37Z</time>
      </trkpt>
      <trkpt lat="45.16915" lon="0.25689">
        <ele>109</ele>
        <time>2025-04-16T09:56:40Z</time>
      </trkpt>
      <trkpt lat="45.16933" lon="0.25675">
        <ele>108</ele>
        <time>2025-04-16T09:56:44Z</time>
      </trkpt>
      <trkpt lat="45.16936" lon="0.25671">
        <ele>108</ele>
        <time>2025-04-16T09:56:44Z</time>
      </trkpt>
      <trkpt lat="45.16944" lon="0.25677">
        <ele>108</ele>
        <time>2025-04-16T09:56:46Z</time>
      </trkpt>
      <trkpt lat="45.16965" lon="0.25684">
        <ele>107</ele>
        <time>2025-04-16T09:56:50Z</time>
      </trkpt>
      <trkpt lat="45.16981" lon="0.25685">
        <ele>107</ele>
        <time>2025-04-16T09:56:53Z</time>
      </trkpt>
      <trkpt lat="45.17004" lon="0.25684">
        <ele>107</ele>
        <time>2025-04-16T09:56:57Z</time>
      </trkpt>
      <trkpt lat="45.17018" lon="0.25683">
        <ele>106</ele>
        <time>2025-04-16T09:56:59Z</time>
      </trkpt>
      <trkpt lat="45.17032" lon="0.25683">
        <ele>106</ele>
        <time>2025-04-16T09:57:02Z</time>
      </trkpt>
      <trkpt lat="45.17051" lon="0.25682">
        <ele>106</ele>
        <time>2025-04-16T09:57:05Z</time>
      </trkpt>
      <trkpt lat="45.17092" lon="0.25675">
        <ele>105</ele>
        <time>2025-04-16T09:57:12Z</time>
      </trkpt>
      <trkpt lat="45.17107" lon="0.25667">
        <ele>104</ele>
        <time>2025-04-16T09:57:15Z</time>
      </trkpt>
      <trkpt lat="45.17125" lon="0.25655">
        <ele>103</ele>
        <time>2025-04-16T09:57:19Z</time>
      </trkpt>
      <trkpt lat="45.17187" lon="0.25607">
        <ele>102</ele>
        <time>2025-04-16T09:57:31Z</time>
      </trkpt>
      <trkpt lat="45.17203" lon="0.25598">
        <ele>102</ele>
        <time>2025-04-16T09:57:34Z</time>
      </trkpt>
      <trkpt lat="45.17229" lon="0.25588">
        <ele>102</ele>
        <time>2025-04-16T09:57:39Z</time>
      </trkpt>
      <trkpt lat="45.17247" lon="0.25587">
        <ele>102</ele>
        <time>2025-04-16T09:57:42Z</time>
      </trkpt>
      <trkpt lat="45.17277" lon="0.25593">
        <ele>101</ele>
        <time>2025-04-16T09:57:48Z</time>
      </trkpt>
      <trkpt lat="45.17293" lon="0.25602">
        <ele>100</ele>
        <time>2025-04-16T09:57:51Z</time>
      </trkpt>
      <trkpt lat="45.17309" lon="0.25614">
        <ele>100</ele>
        <time>2025-04-16T09:57:54Z</time>
      </trkpt>
      <trkpt lat="45.17325" lon="0.25631">
        <ele>99</ele>
        <time>2025-04-16T09:57:58Z</time>
      </trkpt>
      <trkpt lat="45.17382" lon="0.25701">
        <ele>99</ele>
        <time>2025-04-16T09:58:11Z</time>
      </trkpt>
      <trkpt lat="45.17407" lon="0.25733">
        <ele>100</ele>
        <time>2025-04-16T09:58:17Z</time>
      </trkpt>
      <trkpt lat="45.1743" lon="0.25721">
        <ele>100</ele>
        <time>2025-04-16T09:58:21Z</time>
      </trkpt>
      <trkpt lat="45.17575" lon="0.25597">
        <ele>104</ele>
        <time>2025-04-16T09:58:52Z</time>
      </trkpt>
      <trkpt lat="45.17723" lon="0.25334">
        <ele>106</ele>
        <time>2025-04-16T09:59:34Z</time>
      </trkpt>
      <trkpt lat="45.17754" lon="0.25306">
        <ele>104</ele>
        <time>2025-04-16T09:59:40Z</time>
      </trkpt>
      <trkpt lat="45.17821" lon="0.25262">
        <ele>103</ele>
        <time>2025-04-16T09:59:53Z</time>
      </trkpt>
      <trkpt lat="45.17845" lon="0.25243">
        <ele>103</ele>
        <time>2025-04-16T09:59:58Z</time>
      </trkpt>
      <trkpt lat="45.17858" lon="0.25228">
        <ele>103</ele>
        <time>2025-04-16T10:00:01Z</time>
      </trkpt>
      <trkpt lat="45.17909" lon="0.25157">
        <ele>101</ele>
        <time>2025-04-16T10:00:14Z</time>
      </trkpt>
      <trkpt lat="45.1799" lon="0.25051">
        <ele>100</ele>
        <time>2025-04-16T10:00:34Z</time>
      </trkpt>
      <trkpt lat="45.18013" lon="0.25034">
        <ele>100</ele>
        <time>2025-04-16T10:00:38Z</time>
      </trkpt>
      <trkpt lat="45.18041" lon="0.25017">
        <ele>99</ele>
        <time>2025-04-16T10:00:44Z</time>
      </trkpt>
      <trkpt lat="45.18133" lon="0.24997">
        <ele>98</ele>
        <time>2025-04-16T10:01:00Z</time>
      </trkpt>
      <trkpt lat="45.18155" lon="0.24989">
        <ele>97</ele>
        <time>2025-04-16T10:01:04Z</time>
      </trkpt>
      <trkpt lat="45.18174" lon="0.24975">
        <ele>98</ele>
        <time>2025-04-16T10:01:08Z</time>
      </trkpt>
      <trkpt lat="45.18232" lon="0.24913">
        <ele>98</ele>
        <time>2025-04-16T10:01:21Z</time>
      </trkpt>
      <trkpt lat="45.18247" lon="0.24902">
        <ele>98</ele>
        <time>2025-04-16T10:01:24Z</time>
      </trkpt>
      <trkpt lat="45.18264" lon="0.24894">
        <ele>99</ele>
        <time>2025-04-16T10:01:27Z</time>
      </trkpt>
      <trkpt lat="45.18295" lon="0.24884">
        <ele>99</ele>
        <time>2025-04-16T10:01:33Z</time>
      </trkpt>
      <trkpt lat="45.1833" lon="0.24877">
        <ele>99</ele>
        <time>2025-04-16T10:01:39Z</time>
      </trkpt>
      <trkpt lat="45.18354" lon="0.2487">
        <ele>99</ele>
        <time>2025-04-16T10:01:44Z</time>
      </trkpt>
      <trkpt lat="45.18383" lon="0.2486">
        <ele>99</ele>
        <time>2025-04-16T10:01:49Z</time>
      </trkpt>
      <trkpt lat="45.18418" lon="0.24843">
        <ele>98</ele>
        <time>2025-04-16T10:01:55Z</time>
      </trkpt>
      <trkpt lat="45.18436" lon="0.24839">
        <ele>97</ele>
        <time>2025-04-16T10:01:59Z</time>
      </trkpt>
      <trkpt lat="45.18457" lon="0.24841">
        <ele>95</ele>
        <time>2025-04-16T10:02:02Z</time>
      </trkpt>
      <trkpt lat="45.18509" lon="0.24841">
        <ele>92</ele>
        <time>2025-04-16T10:02:12Z</time>
      </trkpt>
      <trkpt lat="45.18533" lon="0.24839">
        <ele>93</ele>
        <time>2025-04-16T10:02:16Z</time>
      </trkpt>
      <trkpt lat="45.18554" lon="0.2483">
        <ele>93</ele>
        <time>2025-04-16T10:02:20Z</time>
      </trkpt>
      <trkpt lat="45.18679" lon="0.2475">
        <ele>87</ele>
        <time>2025-04-16T10:02:44Z</time>
      </trkpt>
      <trkpt lat="45.18798" lon="0.24679">
        <ele>83</ele>
        <time>2025-04-16T10:03:07Z</time>
      </trkpt>
      <trkpt lat="45.18859" lon="0.24595">
        <ele>81</ele>
        <time>2025-04-16T10:03:22Z</time>
      </trkpt>
      <trkpt lat="45.18873" lon="0.24582">
        <ele>81</ele>
        <time>2025-04-16T10:03:25Z</time>
      </trkpt>
      <trkpt lat="45.18882" lon="0.2458">
        <ele>81</ele>
        <time>2025-04-16T10:03:27Z</time>
      </trkpt>
      <trkpt lat="45.18893" lon="0.24582">
        <ele>81</ele>
        <time>2025-04-16T10:03:29Z</time>
      </trkpt>
      <trkpt lat="45.18918" lon="0.24596">
        <ele>79</ele>
        <time>2025-04-16T10:03:34Z</time>
      </trkpt>
      <trkpt lat="45.18941" lon="0.24603">
        <ele>78</ele>
        <time>2025-04-16T10:03:38Z</time>
      </trkpt>
      <trkpt lat="45.18948" lon="0.24602">
        <ele>77</ele>
        <time>2025-04-16T10:03:39Z</time>
      </trkpt>
      <trkpt lat="45.18957" lon="0.24596">
        <ele>77</ele>
        <time>2025-04-16T10:03:41Z</time>
      </trkpt>
      <trkpt lat="45.18983" lon="0.24565">
        <ele>77</ele>
        <time>2025-04-16T10:03:47Z</time>
      </trkpt>
      <trkpt lat="45.19002" lon="0.24534">
        <ele>77</ele>
        <time>2025-04-16T10:03:52Z</time>
      </trkpt>
      <trkpt lat="45.19014" lon="0.2451">
        <ele>77</ele>
        <time>2025-04-16T10:03:56Z</time>
      </trkpt>
      <trkpt lat="45.19024" lon="0.24494">
        <ele>76</ele>
        <time>2025-04-16T10:03:58Z</time>
      </trkpt>
      <trkpt lat="45.19032" lon="0.24491">
        <ele>75</ele>
        <time>2025-04-16T10:04:00Z</time>
      </trkpt>
      <trkpt lat="45.19042" lon="0.24493">
        <ele>75</ele>
        <time>2025-04-16T10:04:02Z</time>
      </trkpt>
      <trkpt lat="45.1906" lon="0.24512">
        <ele>73</ele>
        <time>2025-04-16T10:04:06Z</time>
      </trkpt>
      <trkpt lat="45.19079" lon="0.24536">
        <ele>71</ele>
        <time>2025-04-16T10:04:10Z</time>
      </trkpt>
      <trkpt lat="45.1909" lon="0.24546">
        <ele>70</ele>
        <time>2025-04-16T10:04:13Z</time>
      </trkpt>
      <trkpt lat="45.19096" lon="0.24549">
        <ele>70</ele>
        <time>2025-04-16T10:04:14Z</time>
      </trkpt>
      <trkpt lat="45.19104" lon="0.24545">
        <ele>69</ele>
        <time>2025-04-16T10:04:15Z</time>
      </trkpt>
      <trkpt lat="45.1911" lon="0.24539">
        <ele>68</ele>
        <time>2025-04-16T10:04:16Z</time>
      </trkpt>
      <trkpt lat="45.19117" lon="0.24521">
        <ele>67</ele>
        <time>2025-04-16T10:04:19Z</time>
      </trkpt>
      <trkpt lat="45.19116" lon="0.24505">
        <ele>68</ele>
        <time>2025-04-16T10:04:21Z</time>
      </trkpt>
      <trkpt lat="45.19109" lon="0.24474">
        <ele>67</ele>
        <time>2025-04-16T10:04:25Z</time>
      </trkpt>
      <trkpt lat="45.19109" lon="0.2446">
        <ele>67</ele>
        <time>2025-04-16T10:04:27Z</time>
      </trkpt>
      <trkpt lat="45.19119" lon="0.24437">
        <ele>65</ele>
        <time>2025-04-16T10:04:30Z</time>
      </trkpt>
      <trkpt lat="45.1913" lon="0.24428">
        <ele>63</ele>
        <time>2025-04-16T10:04:33Z</time>
      </trkpt>
      <trkpt lat="45.19183" lon="0.2442">
        <ele>58</ele>
        <time>2025-04-16T10:04:42Z</time>
      </trkpt>
      <trkpt lat="45.19198" lon="0.24411">
        <ele>57</ele>
        <time>2025-04-16T10:04:45Z</time>
      </trkpt>
      <trkpt lat="45.19208" lon="0.24405">
        <ele>57</ele>
        <time>2025-04-16T10:04:47Z</time>
      </trkpt>
      <trkpt lat="45.19225" lon="0.244">
        <ele>57</ele>
        <time>2025-04-16T10:04:50Z</time>
      </trkpt>
      <trkpt lat="45.19287" lon="0.244">
        <ele>56</ele>
        <time>2025-04-16T10:05:01Z</time>
      </trkpt>
      <trkpt lat="45.19293" lon="0.244">
        <ele>57</ele>
        <time>2025-04-16T10:05:02Z</time>
      </trkpt>
      <trkpt lat="45.19308" lon="0.24402">
        <ele>57</ele>
        <time>2025-04-16T10:05:05Z</time>
      </trkpt>
      <trkpt lat="45.1933" lon="0.24402">
        <ele>57</ele>
        <time>2025-04-16T10:05:09Z</time>
      </trkpt>
      <trkpt lat="45.19334" lon="0.24397">
        <ele>57</ele>
        <time>2025-04-16T10:05:10Z</time>
      </trkpt>
      <trkpt lat="45.19338" lon="0.244">
        <ele>57</ele>
        <time>2025-04-16T10:05:10Z</time>
      </trkpt>
      <trkpt lat="45.19339" lon="0.24405">
        <ele>57</ele>
        <time>2025-04-16T10:05:11Z</time>
      </trkpt>
      <trkpt lat="45.19374" lon="0.24399">
        <ele>58</ele>
        <time>2025-04-16T10:05:17Z</time>
      </trkpt>
      <trkpt lat="45.19384" lon="0.24399">
        <ele>58</ele>
        <time>2025-04-16T10:05:19Z</time>
      </trkpt>
      <trkpt lat="45.19417" lon="0.24409">
        <ele>59</ele>
        <time>2025-04-16T10:05:25Z</time>
      </trkpt>
      <trkpt lat="45.19424" lon="0.24415">
        <ele>60</ele>
        <time>2025-04-16T10:05:27Z</time>
      </trkpt>
      <trkpt lat="45.19439" lon="0.24454">
        <ele>61</ele>
        <time>2025-04-16T10:05:32Z</time>
      </trkpt>
      <trkpt lat="45.19442" lon="0.24459">
        <ele>61</ele>
        <time>2025-04-16T10:05:33Z</time>
      </trkpt>
      <trkpt lat="45.19452" lon="0.24468">
        <ele>62</ele>
        <time>2025-04-16T10:05:35Z</time>
      </trkpt>
      <trkpt lat="45.19474" lon="0.24494">
        <ele>63</ele>
        <time>2025-04-16T10:05:40Z</time>
      </trkpt>
      <trkpt lat="45.19479" lon="0.24507">
        <ele>63</ele>
        <time>2025-04-16T10:05:42Z</time>
      </trkpt>
      <trkpt lat="45.19502" lon="0.24599">
        <ele>65</ele>
        <time>2025-04-16T10:05:54Z</time>
      </trkpt>
      <trkpt lat="45.19521" lon="0.24655">
        <ele>68</ele>
        <time>2025-04-16T10:06:02Z</time>
      </trkpt>
      <trkpt lat="45.19544" lon="0.24706">
        <ele>70</ele>
        <time>2025-04-16T10:06:10Z</time>
      </trkpt>
      <trkpt lat="45.1955" lon="0.24724">
        <ele>71</ele>
        <time>2025-04-16T10:06:12Z</time>
      </trkpt>
      <trkpt lat="45.19552" lon="0.24741">
        <ele>71</ele>
        <time>2025-04-16T10:06:14Z</time>
      </trkpt>
      <trkpt lat="45.19552" lon="0.24784">
        <ele>70</ele>
        <time>2025-04-16T10:06:20Z</time>
      </trkpt>
      <trkpt lat="45.19556" lon="0.2482">
        <ele>70</ele>
        <time>2025-04-16T10:06:24Z</time>
      </trkpt>
      <trkpt lat="45.19562" lon="0.24856">
        <ele>70</ele>
        <time>2025-04-16T10:06:29Z</time>
      </trkpt>
      <trkpt lat="45.19571" lon="0.24891">
        <ele>71</ele>
        <time>2025-04-16T10:06:34Z</time>
      </trkpt>
      <trkpt lat="45.19586" lon="0.24921">
        <ele>72</ele>
        <time>2025-04-16T10:06:38Z</time>
      </trkpt>
      <trkpt lat="45.1961" lon="0.24949">
        <ele>71</ele>
        <time>2025-04-16T10:06:44Z</time>
      </trkpt>
      <trkpt lat="45.1962" lon="0.24968">
        <ele>70</ele>
        <time>2025-04-16T10:06:47Z</time>
      </trkpt>
      <trkpt lat="45.19623" lon="0.24978">
        <ele>70</ele>
        <time>2025-04-16T10:06:48Z</time>
      </trkpt>
      <trkpt lat="45.19626" lon="0.2501">
        <ele>68</ele>
        <time>2025-04-16T10:06:52Z</time>
      </trkpt>
      <trkpt lat="45.19628" lon="0.25056">
        <ele>66</ele>
        <time>2025-04-16T10:06:58Z</time>
      </trkpt>
      <trkpt lat="45.19633" lon="0.25102">
        <ele>64</ele>
        <time>2025-04-16T10:07:04Z</time>
      </trkpt>
      <trkpt lat="45.19637" lon="0.25112">
        <ele>64</ele>
        <time>2025-04-16T10:07:05Z</time>
      </trkpt>
      <trkpt lat="45.19641" lon="0.25121">
        <ele>63</ele>
        <time>2025-04-16T10:07:07Z</time>
      </trkpt>
      <trkpt lat="45.19651" lon="0.25134">
        <ele>63</ele>
        <time>2025-04-16T10:07:09Z</time>
      </trkpt>
      <trkpt lat="45.19659" lon="0.25141">
        <ele>63</ele>
        <time>2025-04-16T10:07:11Z</time>
      </trkpt>
      <trkpt lat="45.19699" lon="0.25162">
        <ele>63</ele>
        <time>2025-04-16T10:07:18Z</time>
      </trkpt>
      <trkpt lat="45.19777" lon="0.25196">
        <ele>64</ele>
        <time>2025-04-16T10:07:33Z</time>
      </trkpt>
      <trkpt lat="45.19796" lon="0.25199">
        <ele>65</ele>
        <time>2025-04-16T10:07:36Z</time>
      </trkpt>
      <trkpt lat="45.19883" lon="0.25194">
        <ele>65</ele>
        <time>2025-04-16T10:07:52Z</time>
      </trkpt>
      <trkpt lat="45.20056" lon="0.2519">
        <ele>67</ele>
        <time>2025-04-16T10:08:22Z</time>
      </trkpt>
      <trkpt lat="45.20113" lon="0.25189">
        <ele>68</ele>
        <time>2025-04-16T10:08:33Z</time>
      </trkpt>
      <trkpt lat="45.20187" lon="0.2519">
        <ele>68</ele>
        <time>2025-04-16T10:08:46Z</time>
      </trkpt>
      <trkpt lat="45.20224" lon="0.25197">
        <ele>68</ele>
        <time>2025-04-16T10:08:52Z</time>
      </trkpt>
      <trkpt lat="45.20255" lon="0.25207">
        <ele>68</ele>
        <time>2025-04-16T10:08:58Z</time>
      </trkpt>
      <trkpt lat="45.20273" lon="0.25216">
        <ele>68</ele>
        <time>2025-04-16T10:09:01Z</time>
      </trkpt>
      <trkpt lat="45.20442" lon="0.25336">
        <ele>66</ele>
        <time>2025-04-16T10:09:35Z</time>
      </trkpt>
      <trkpt lat="45.20439" lon="0.25349">
        <ele>66</ele>
        <time>2025-04-16T10:09:37Z</time>
      </trkpt>
      <trkpt lat="45.20435" lon="0.25364">
        <ele>66</ele>
        <time>2025-04-16T10:09:39Z</time>
      </trkpt>
      <trkpt lat="45.20409" lon="0.25402">
        <ele>67</ele>
        <time>2025-04-16T10:09:45Z</time>
      </trkpt>
      <trkpt lat="45.20403" lon="0.25417">
        <ele>67</ele>
        <time>2025-04-16T10:09:48Z</time>
      </trkpt>
      <trkpt lat="45.20433" lon="0.25417">
        <ele>67</ele>
        <time>2025-04-16T10:09:53Z</time>
      </trkpt>
      <trkpt lat="45.20498" lon="0.2543">
        <ele>68</ele>
        <time>2025-04-16T10:10:05Z</time>
      </trkpt>
      <trkpt lat="45.20569" lon="0.25408">
        <ele>68</ele>
        <time>2025-04-16T10:10:17Z</time>
      </trkpt>
      <trkpt lat="45.20645" lon="0.25389">
        <ele>68</ele>
        <time>2025-04-16T10:10:31Z</time>
      </trkpt>
      <trkpt lat="45.20768" lon="0.25342">
        <ele>69</ele>
        <time>2025-04-16T10:10:54Z</time>
      </trkpt>
      <trkpt lat="45.20801" lon="0.25343">
        <ele>71</ele>
        <time>2025-04-16T10:11:00Z</time>
      </trkpt>
      <trkpt lat="45.20853" lon="0.25349">
        <ele>72</ele>
        <time>2025-04-16T10:11:09Z</time>
      </trkpt>
      <trkpt lat="45.20867" lon="0.25387">
        <ele>72</ele>
        <time>2025-04-16T10:11:14Z</time>
      </trkpt>
      <trkpt lat="45.20887" lon="0.25434">
        <ele>72</ele>
        <time>2025-04-16T10:11:21Z</time>
      </trkpt>
      <trkpt lat="45.2091" lon="0.25473">
        <ele>74</ele>
        <time>2025-04-16T10:11:28Z</time>
      </trkpt>
      <trkpt lat="45.20917" lon="0.25505">
        <ele>75</ele>
        <time>2025-04-16T10:11:32Z</time>
      </trkpt>
      <trkpt lat="45.20926" lon="0.25578">
        <ele>77</ele>
        <time>2025-04-16T10:11:41Z</time>
      </trkpt>
      <trkpt lat="45.20936" lon="0.25589">
        <ele>77</ele>
        <time>2025-04-16T10:11:43Z</time>
      </trkpt>
      <trkpt lat="45.20951" lon="0.25591">
        <ele>78</ele>
        <time>2025-04-16T10:11:46Z</time>
      </trkpt>
      <trkpt lat="45.20981" lon="0.25634">
        <ele>80</ele>
        <time>2025-04-16T10:11:54Z</time>
      </trkpt>
      <trkpt lat="45.2099" lon="0.2568">
        <ele>82</ele>
        <time>2025-04-16T10:12:00Z</time>
      </trkpt>
      <trkpt lat="45.21035" lon="0.25651">
        <ele>82</ele>
        <time>2025-04-16T10:12:08Z</time>
      </trkpt>
      <trkpt lat="45.21098" lon="0.25649">
        <ele>82</ele>
        <time>2025-04-16T10:12:20Z</time>
      </trkpt>
      <trkpt lat="45.21134" lon="0.25651">
        <ele>82</ele>
        <time>2025-04-16T10:12:26Z</time>
      </trkpt>
      <trkpt lat="45.21192" lon="0.2569">
        <ele>82</ele>
        <time>2025-04-16T10:12:37Z</time>
      </trkpt>
      <trkpt lat="45.21322" lon="0.25769">
        <ele>84</ele>
        <time>2025-04-16T10:13:03Z</time>
      </trkpt>
      <trkpt lat="45.21332" lon="0.25774">
        <ele>84</ele>
        <time>2025-04-16T10:13:05Z</time>
      </trkpt>
      <trkpt lat="45.21414" lon="0.25808">
        <ele>83</ele>
        <time>2025-04-16T10:13:20Z</time>
      </trkpt>
      <trkpt lat="45.21495" lon="0.25848">
        <ele>82</ele>
        <time>2025-04-16T10:13:35Z</time>
      </trkpt>
      <trkpt lat="45.21534" lon="0.25879">
        <ele>82</ele>
        <time>2025-04-16T10:13:43Z</time>
      </trkpt>
      <trkpt lat="45.21587" lon="0.25928">
        <ele>80</ele>
        <time>2025-04-16T10:13:54Z</time>
      </trkpt>
      <trkpt lat="45.21665" lon="0.25974">
        <ele>84</ele>
        <time>2025-04-16T10:14:09Z</time>
      </trkpt>
      <trkpt lat="45.21685" lon="0.25986">
        <ele>84</ele>
        <time>2025-04-16T10:14:13Z</time>
      </trkpt>
      <trkpt lat="45.21706" lon="0.26021">
        <ele>84</ele>
        <time>2025-04-16T10:14:19Z</time>
      </trkpt>
      <trkpt lat="45.21728" lon="0.26088">
        <ele>85</ele>
        <time>2025-04-16T10:14:28Z</time>
      </trkpt>
      <trkpt lat="45.21742" lon="0.26149">
        <ele>85</ele>
        <time>2025-04-16T10:14:36Z</time>
      </trkpt>
      <trkpt lat="45.21747" lon="0.262">
        <ele>86</ele>
        <time>2025-04-16T10:14:43Z</time>
      </trkpt>
      <trkpt lat="45.2175" lon="0.26275">
        <ele>87</ele>
        <time>2025-04-16T10:14:52Z</time>
      </trkpt>
      <trkpt lat="45.21758" lon="0.26312">
        <ele>88</ele>
        <time>2025-04-16T10:14:57Z</time>
      </trkpt>
      <trkpt lat="45.21777" lon="0.26374">
        <ele>88</ele>
        <time>2025-04-16T10:15:05Z</time>
      </trkpt>
      <trkpt lat="45.2178" lon="0.26388">
        <ele>88</ele>
        <time>2025-04-16T10:15:07Z</time>
      </trkpt>
      <trkpt lat="45.21801" lon="0.26522">
        <ele>87</ele>
        <time>2025-04-16T10:15:24Z</time>
      </trkpt>
      <trkpt lat="45.21802" lon="0.26541">
        <ele>87</ele>
        <time>2025-04-16T10:15:27Z</time>
      </trkpt>
      <trkpt lat="45.21804" lon="0.26568">
        <ele>88</ele>
        <time>2025-04-16T10:15:30Z</time>
      </trkpt>
      <trkpt lat="45.21791" lon="0.26739">
        <ele>93</ele>
        <time>2025-04-16T10:15:52Z</time>
      </trkpt>
      <trkpt lat="45.21783" lon="0.26783">
        <ele>94</ele>
        <time>2025-04-16T10:15:57Z</time>
      </trkpt>
      <trkpt lat="45.21753" lon="0.26924">
        <ele>97</ele>
        <time>2025-04-16T10:16:16Z</time>
      </trkpt>
      <trkpt lat="45.21738" lon="0.26971">
        <ele>98</ele>
        <time>2025-04-16T10:16:22Z</time>
      </trkpt>
      <trkpt lat="45.21628" lon="0.27306">
        <ele>109</ele>
        <time>2025-04-16T10:17:09Z</time>
      </trkpt>
      <trkpt lat="45.21623" lon="0.27344">
        <ele>111</ele>
        <time>2025-04-16T10:17:14Z</time>
      </trkpt>
      <trkpt lat="45.21629" lon="0.2743">
        <ele>115</ele>
        <time>2025-04-16T10:17:24Z</time>
      </trkpt>
      <trkpt lat="45.21626" lon="0.27465">
        <ele>118</ele>
        <time>2025-04-16T10:17:29Z</time>
      </trkpt>
      <trkpt lat="45.21614" lon="0.27547">
        <ele>123</ele>
        <time>2025-04-16T10:17:39Z</time>
      </trkpt>
      <trkpt lat="45.21613" lon="0.27587">
        <ele>125</ele>
        <time>2025-04-16T10:17:44Z</time>
      </trkpt>
      <trkpt lat="45.21617" lon="0.27639">
        <ele>127</ele>
        <time>2025-04-16T10:17:51Z</time>
      </trkpt>
      <trkpt lat="45.21614" lon="0.27668">
        <ele>130</ele>
        <time>2025-04-16T10:17:55Z</time>
      </trkpt>
      <trkpt lat="45.21598" lon="0.27712">
        <ele>134</ele>
        <time>2025-04-16T10:18:01Z</time>
      </trkpt>
      <trkpt lat="45.21594" lon="0.27727">
        <ele>135</ele>
        <time>2025-04-16T10:18:03Z</time>
      </trkpt>
      <trkpt lat="45.21592" lon="0.27734">
        <ele>136</ele>
        <time>2025-04-16T10:18:04Z</time>
      </trkpt>
      <trkpt lat="45.21592" lon="0.2776">
        <ele>137</ele>
        <time>2025-04-16T10:18:07Z</time>
      </trkpt>
      <trkpt lat="45.2162" lon="0.27838">
        <ele>141</ele>
        <time>2025-04-16T10:18:18Z</time>
      </trkpt>
      <trkpt lat="45.21636" lon="0.27866">
        <ele>141</ele>
        <time>2025-04-16T10:18:22Z</time>
      </trkpt>
      <trkpt lat="45.21667" lon="0.2791">
        <ele>141</ele>
        <time>2025-04-16T10:18:30Z</time>
      </trkpt>
      <trkpt lat="45.21671" lon="0.27932">
        <ele>141</ele>
        <time>2025-04-16T10:18:33Z</time>
      </trkpt>
      <trkpt lat="45.21673" lon="0.27963">
        <ele>141</ele>
        <time>2025-04-16T10:18:37Z</time>
      </trkpt>
      <trkpt lat="45.21667" lon="0.28043">
        <ele>139</ele>
        <time>2025-04-16T10:18:47Z</time>
      </trkpt>
      <trkpt lat="45.21668" lon="0.28078">
        <ele>138</ele>
        <time>2025-04-16T10:18:51Z</time>
      </trkpt>
      <trkpt lat="45.21678" lon="0.28128">
        <ele>137</ele>
        <time>2025-04-16T10:18:58Z</time>
      </trkpt>
      <trkpt lat="45.21677" lon="0.28162">
        <ele>136</ele>
        <time>2025-04-16T10:19:02Z</time>
      </trkpt>
      <trkpt lat="45.21673" lon="0.28229">
        <ele>133</ele>
        <time>2025-04-16T10:19:11Z</time>
      </trkpt>
      <trkpt lat="45.21668" lon="0.28263">
        <ele>131</ele>
        <time>2025-04-16T10:19:15Z</time>
      </trkpt>
      <trkpt lat="45.21661" lon="0.2829">
        <ele>129</ele>
        <time>2025-04-16T10:19:19Z</time>
      </trkpt>
      <trkpt lat="45.21647" lon="0.28331">
        <ele>126</ele>
        <time>2025-04-16T10:19:24Z</time>
      </trkpt>
      <trkpt lat="45.21643" lon="0.28354">
        <ele>124</ele>
        <time>2025-04-16T10:19:27Z</time>
      </trkpt>
      <trkpt lat="45.21642" lon="0.28379">
        <ele>122</ele>
        <time>2025-04-16T10:19:30Z</time>
      </trkpt>
      <trkpt lat="45.21648" lon="0.28435">
        <ele>117</ele>
        <time>2025-04-16T10:19:38Z</time>
      </trkpt>
      <trkpt lat="45.21647" lon="0.28473">
        <ele>115</ele>
        <time>2025-04-16T10:19:42Z</time>
      </trkpt>
      <trkpt lat="45.2164" lon="0.28551">
        <ele>113</ele>
        <time>2025-04-16T10:19:52Z</time>
      </trkpt>
      <trkpt lat="45.21638" lon="0.2861">
        <ele>113</ele>
        <time>2025-04-16T10:20:00Z</time>
      </trkpt>
      <trkpt lat="45.21635" lon="0.28631">
        <ele>113</ele>
        <time>2025-04-16T10:20:02Z</time>
      </trkpt>
      <trkpt lat="45.21636" lon="0.28636">
        <ele>114</ele>
        <time>2025-04-16T10:20:03Z</time>
      </trkpt>
      <trkpt lat="45.21637" lon="0.28641">
        <ele>114</ele>
        <time>2025-04-16T10:20:04Z</time>
      </trkpt>
      <trkpt lat="45.21653" lon="0.28653">
        <ele>114</ele>
        <time>2025-04-16T10:20:07Z</time>
      </trkpt>
      <trkpt lat="45.21669" lon="0.2866">
        <ele>115</ele>
        <time>2025-04-16T10:20:10Z</time>
      </trkpt>
      <trkpt lat="45.21666" lon="0.28685">
        <ele>115</ele>
        <time>2025-04-16T10:20:13Z</time>
      </trkpt>
      <trkpt lat="45.21659" lon="0.28709">
        <ele>115</ele>
        <time>2025-04-16T10:20:16Z</time>
      </trkpt>
      <trkpt lat="45.2165" lon="0.28728">
        <ele>115</ele>
        <time>2025-04-16T10:20:19Z</time>
      </trkpt>
      <trkpt lat="45.21643" lon="0.28744">
        <ele>115</ele>
        <time>2025-04-16T10:20:21Z</time>
      </trkpt>
      <trkpt lat="45.2164" lon="0.28751">
        <ele>115</ele>
        <time>2025-04-16T10:20:22Z</time>
      </trkpt>
      <trkpt lat="45.2162" lon="0.28795">
        <ele>115</ele>
        <time>2025-04-16T10:20:29Z</time>
      </trkpt>
      <trkpt lat="45.21603" lon="0.28839">
        <ele>115</ele>
        <time>2025-04-16T10:20:35Z</time>
      </trkpt>
      <trkpt lat="45.21589" lon="0.28882">
        <ele>118</ele>
        <time>2025-04-16T10:20:41Z</time>
      </trkpt>
      <trkpt lat="45.21563" lon="0.28974">
        <ele>131</ele>
        <time>2025-04-16T10:20:54Z</time>
      </trkpt>
      <trkpt lat="45.21563" lon="0.28986">
        <ele>133</ele>
        <time>2025-04-16T10:20:55Z</time>
      </trkpt>
      <trkpt lat="45.21569" lon="0.28997">
        <ele>134</ele>
        <time>2025-04-16T10:20:57Z</time>
      </trkpt>
      <trkpt lat="45.21582" lon="0.2901">
        <ele>135</ele>
        <time>2025-04-16T10:21:00Z</time>
      </trkpt>
      <trkpt lat="45.21664" lon="0.29059">
        <ele>141</ele>
        <time>2025-04-16T10:21:16Z</time>
      </trkpt>
      <trkpt lat="45.21668" lon="0.29066">
        <ele>142</ele>
        <time>2025-04-16T10:21:17Z</time>
      </trkpt>
      <trkpt lat="45.21669" lon="0.29077">
        <ele>143</ele>
        <time>2025-04-16T10:21:18Z</time>
      </trkpt>
      <trkpt lat="45.21646" lon="0.29139">
        <ele>146</ele>
        <time>2025-04-16T10:21:27Z</time>
      </trkpt>
      <trkpt lat="45.2161" lon="0.29234">
        <ele>148</ele>
        <time>2025-04-16T10:21:40Z</time>
      </trkpt>
      <trkpt lat="45.21545" lon="0.29435">
        <ele>146</ele>
        <time>2025-04-16T10:22:08Z</time>
      </trkpt>
      <trkpt lat="45.21544" lon="0.29445">
        <ele>147</ele>
        <time>2025-04-16T10:22:09Z</time>
      </trkpt>
      <trkpt lat="45.21508" lon="0.29467">
        <ele>145</ele>
        <time>2025-04-16T10:22:16Z</time>
      </trkpt>
      <trkpt lat="45.21459" lon="0.29513">
        <ele>143</ele>
        <time>2025-04-16T10:22:27Z</time>
      </trkpt>
      <trkpt lat="45.21384" lon="0.29586">
        <ele>144</ele>
        <time>2025-04-16T10:22:43Z</time>
      </trkpt>
      <trkpt lat="45.21325" lon="0.29643">
        <ele>146</ele>
        <time>2025-04-16T10:22:56Z</time>
      </trkpt>
      <trkpt lat="45.21309" lon="0.29666">
        <ele>146</ele>
        <time>2025-04-16T10:23:00Z</time>
      </trkpt>
      <trkpt lat="45.21285" lon="0.29709">
        <ele>146</ele>
        <time>2025-04-16T10:23:07Z</time>
      </trkpt>
      <trkpt lat="45.21193" lon="0.29902">
        <ele>143</ele>
        <time>2025-04-16T10:23:36Z</time>
      </trkpt>
      <trkpt lat="45.21181" lon="0.29928">
        <ele>143</ele>
        <time>2025-04-16T10:23:40Z</time>
      </trkpt>
      <trkpt lat="45.21168" lon="0.29948">
        <ele>142</ele>
        <time>2025-04-16T10:23:43Z</time>
      </trkpt>
      <trkpt lat="45.21125" lon="0.29998">
        <ele>145</ele>
        <time>2025-04-16T10:23:53Z</time>
      </trkpt>
      <trkpt lat="45.21105" lon="0.30027">
        <ele>148</ele>
        <time>2025-04-16T10:23:58Z</time>
      </trkpt>
      <trkpt lat="45.21093" lon="0.30054">
        <ele>150</ele>
        <time>2025-04-16T10:24:02Z</time>
      </trkpt>
      <trkpt lat="45.21083" lon="0.3008">
        <ele>153</ele>
        <time>2025-04-16T10:24:06Z</time>
      </trkpt>
      <trkpt lat="45.2107" lon="0.30125">
        <ele>153</ele>
        <time>2025-04-16T10:24:12Z</time>
      </trkpt>
      <trkpt lat="45.2106" lon="0.30169">
        <ele>154</ele>
        <time>2025-04-16T10:24:18Z</time>
      </trkpt>
      <trkpt lat="45.21056" lon="0.30196">
        <ele>154</ele>
        <time>2025-04-16T10:24:21Z</time>
      </trkpt>
      <trkpt lat="45.21056" lon="0.30218">
        <ele>155</ele>
        <time>2025-04-16T10:24:24Z</time>
      </trkpt>
      <trkpt lat="45.21059" lon="0.30242">
        <ele>155</ele>
        <time>2025-04-16T10:24:27Z</time>
      </trkpt>
      <trkpt lat="45.21069" lon="0.30292">
        <ele>155</ele>
        <time>2025-04-16T10:24:34Z</time>
      </trkpt>
      <trkpt lat="45.2107" lon="0.3032">
        <ele>156</ele>
        <time>2025-04-16T10:24:37Z</time>
      </trkpt>
      <trkpt lat="45.21068" lon="0.30344">
        <ele>156</ele>
        <time>2025-04-16T10:24:40Z</time>
      </trkpt>
      <trkpt lat="45.21064" lon="0.30372">
        <ele>157</ele>
        <time>2025-04-16T10:24:44Z</time>
      </trkpt>
      <trkpt lat="45.21052" lon="0.30413">
        <ele>157</ele>
        <time>2025-04-16T10:24:49Z</time>
      </trkpt>
      <trkpt lat="45.21038" lon="0.30444">
        <ele>157</ele>
        <time>2025-04-16T10:24:54Z</time>
      </trkpt>
      <trkpt lat="45.21" lon="0.30517">
        <ele>156</ele>
        <time>2025-04-16T10:25:05Z</time>
      </trkpt>
      <trkpt lat="45.20968" lon="0.30582">
        <ele>154</ele>
        <time>2025-04-16T10:25:15Z</time>
      </trkpt>
      <trkpt lat="45.20955" lon="0.30624">
        <ele>153</ele>
        <time>2025-04-16T10:25:21Z</time>
      </trkpt>
      <trkpt lat="45.20945" lon="0.307">
        <ele>151</ele>
        <time>2025-04-16T10:25:31Z</time>
      </trkpt>
      <trkpt lat="45.20941" lon="0.30722">
        <ele>151</ele>
        <time>2025-04-16T10:25:33Z</time>
      </trkpt>
      <trkpt lat="45.20934" lon="0.30743">
        <ele>151</ele>
        <time>2025-04-16T10:25:36Z</time>
      </trkpt>
      <trkpt lat="45.20922" lon="0.30763">
        <ele>151</ele>
        <time>2025-04-16T10:25:40Z</time>
      </trkpt>
      <trkpt lat="45.2087" lon="0.30829">
        <ele>152</ele>
        <time>2025-04-16T10:25:52Z</time>
      </trkpt>
      <trkpt lat="45.20787" lon="0.3094">
        <ele>153</ele>
        <time>2025-04-16T10:26:12Z</time>
      </trkpt>
      <trkpt lat="45.20775" lon="0.30953">
        <ele>154</ele>
        <time>2025-04-16T10:26:15Z</time>
      </trkpt>
      <trkpt lat="45.20763" lon="0.30962">
        <ele>154</ele>
        <time>2025-04-16T10:26:17Z</time>
      </trkpt>
      <trkpt lat="45.20748" lon="0.30969">
        <ele>154</ele>
        <time>2025-04-16T10:26:20Z</time>
      </trkpt>
      <trkpt lat="45.20637" lon="0.30995">
        <ele>155</ele>
        <time>2025-04-16T10:26:40Z</time>
      </trkpt>
      <trkpt lat="45.20621" lon="0.31004">
        <ele>155</ele>
        <time>2025-04-16T10:26:43Z</time>
      </trkpt>
      <trkpt lat="45.20601" lon="0.31024">
        <ele>156</ele>
        <time>2025-04-16T10:26:48Z</time>
      </trkpt>
      <trkpt lat="45.20594" lon="0.31037">
        <ele>156</ele>
        <time>2025-04-16T10:26:50Z</time>
      </trkpt>
      <trkpt lat="45.20585" lon="0.3107">
        <ele>156</ele>
        <time>2025-04-16T10:26:54Z</time>
      </trkpt>
      <trkpt lat="45.20569" lon="0.31205">
        <ele>156</ele>
        <time>2025-04-16T10:27:11Z</time>
      </trkpt>
      <trkpt lat="45.2055" lon="0.31377">
        <ele>153</ele>
        <time>2025-04-16T10:27:33Z</time>
      </trkpt>
      <trkpt lat="45.20545" lon="0.31409">
        <ele>152</ele>
        <time>2025-04-16T10:27:37Z</time>
      </trkpt>
      <trkpt lat="45.20533" lon="0.31454">
        <ele>151</ele>
        <time>2025-04-16T10:27:43Z</time>
      </trkpt>
      <trkpt lat="45.2051" lon="0.31516">
        <ele>150</ele>
        <time>2025-04-16T10:27:52Z</time>
      </trkpt>
      <trkpt lat="45.20491" lon="0.31556">
        <ele>150</ele>
        <time>2025-04-16T10:27:58Z</time>
      </trkpt>
      <trkpt lat="45.20471" lon="0.31588">
        <ele>150</ele>
        <time>2025-04-16T10:28:03Z</time>
      </trkpt>
      <trkpt lat="45.20358" lon="0.31739">
        <ele>152</ele>
        <time>2025-04-16T10:28:31Z</time>
      </trkpt>
      <trkpt lat="45.20314" lon="0.318">
        <ele>153</ele>
        <time>2025-04-16T10:28:42Z</time>
      </trkpt>
      <trkpt lat="45.20298" lon="0.31836">
        <ele>153</ele>
        <time>2025-04-16T10:28:47Z</time>
      </trkpt>
      <trkpt lat="45.20257" lon="0.31959">
        <ele>154</ele>
        <time>2025-04-16T10:29:04Z</time>
      </trkpt>
      <trkpt lat="45.20251" lon="0.31994">
        <ele>155</ele>
        <time>2025-04-16T10:29:09Z</time>
      </trkpt>
      <trkpt lat="45.20245" lon="0.3204">
        <ele>154</ele>
        <time>2025-04-16T10:29:15Z</time>
      </trkpt>
      <trkpt lat="45.20215" lon="0.32302">
        <ele>154</ele>
        <time>2025-04-16T10:29:48Z</time>
      </trkpt>
      <trkpt lat="45.20206" lon="0.32346">
        <ele>154</ele>
        <time>2025-04-16T10:29:54Z</time>
      </trkpt>
      <trkpt lat="45.2018" lon="0.32448">
        <ele>152</ele>
        <time>2025-04-16T10:30:07Z</time>
      </trkpt>
      <trkpt lat="45.20155" lon="0.32549">
        <ele>152</ele>
        <time>2025-04-16T10:30:21Z</time>
      </trkpt>
      <trkpt lat="45.20102" lon="0.32753">
        <ele>152</ele>
        <time>2025-04-16T10:30:48Z</time>
      </trkpt>
      <trkpt lat="45.20025" lon="0.33053">
        <ele>155</ele>
        <time>2025-04-16T10:31:28Z</time>
      </trkpt>
      <trkpt lat="45.20023" lon="0.33062">
        <ele>155</ele>
        <time>2025-04-16T10:31:29Z</time>
      </trkpt>
      <trkpt lat="45.19951" lon="0.33341">
        <ele>160</ele>
        <time>2025-04-16T10:32:07Z</time>
      </trkpt>
      <trkpt lat="45.19901" lon="0.33537">
        <ele>164</ele>
        <time>2025-04-16T10:32:33Z</time>
      </trkpt>
      <trkpt lat="45.19893" lon="0.33576">
        <ele>165</ele>
        <time>2025-04-16T10:32:38Z</time>
      </trkpt>
      <trkpt lat="45.19889" lon="0.33611">
        <ele>167</ele>
        <time>2025-04-16T10:32:42Z</time>
      </trkpt>
      <trkpt lat="45.19888" lon="0.33706">
        <ele>168</ele>
        <time>2025-04-16T10:32:54Z</time>
      </trkpt>
      <trkpt lat="45.19886" lon="0.33758">
        <ele>167</ele>
        <time>2025-04-16T10:33:01Z</time>
      </trkpt>
      <trkpt lat="45.19881" lon="0.33806">
        <ele>167</ele>
        <time>2025-04-16T10:33:07Z</time>
      </trkpt>
      <trkpt lat="45.1987" lon="0.33862">
        <ele>168</ele>
        <time>2025-04-16T10:33:14Z</time>
      </trkpt>
      <trkpt lat="45.19852" lon="0.33917">
        <ele>170</ele>
        <time>2025-04-16T10:33:22Z</time>
      </trkpt>
      <trkpt lat="45.19845" lon="0.33953">
        <ele>170</ele>
        <time>2025-04-16T10:33:26Z</time>
      </trkpt>
      <trkpt lat="45.19837" lon="0.3403">
        <ele>170</ele>
        <time>2025-04-16T10:33:36Z</time>
      </trkpt>
      <trkpt lat="45.19835" lon="0.34086">
        <ele>171</ele>
        <time>2025-04-16T10:33:43Z</time>
      </trkpt>
      <trkpt lat="45.19836" lon="0.34133">
        <ele>170</ele>
        <time>2025-04-16T10:33:49Z</time>
      </trkpt>
      <trkpt lat="45.19841" lon="0.34164">
        <ele>170</ele>
        <time>2025-04-16T10:33:53Z</time>
      </trkpt>
      <trkpt lat="45.1985" lon="0.34197">
        <ele>171</ele>
        <time>2025-04-16T10:33:57Z</time>
      </trkpt>
      <trkpt lat="45.19868" lon="0.34235">
        <ele>172</ele>
        <time>2025-04-16T10:34:03Z</time>
      </trkpt>
      <trkpt lat="45.19892" lon="0.34276">
        <ele>171</ele>
        <time>2025-04-16T10:34:10Z</time>
      </trkpt>
      <trkpt lat="45.19967" lon="0.34381">
        <ele>170</ele>
        <time>2025-04-16T10:34:29Z</time>
      </trkpt>
      <trkpt lat="45.19992" lon="0.34409">
        <ele>171</ele>
        <time>2025-04-16T10:34:34Z</time>
      </trkpt>
      <trkpt lat="45.20032" lon="0.34446">
        <ele>173</ele>
        <time>2025-04-16T10:34:43Z</time>
      </trkpt>
      <trkpt lat="45.20043" lon="0.34453">
        <ele>173</ele>
        <time>2025-04-16T10:34:45Z</time>
      </trkpt>
      <trkpt lat="45.20062" lon="0.34459">
        <ele>173</ele>
        <time>2025-04-16T10:34:48Z</time>
      </trkpt>
      <trkpt lat="45.20091" lon="0.34461">
        <ele>174</ele>
        <time>2025-04-16T10:34:54Z</time>
      </trkpt>
      <trkpt lat="45.20131" lon="0.34464">
        <ele>173</ele>
        <time>2025-04-16T10:35:01Z</time>
      </trkpt>
      <trkpt lat="45.20151" lon="0.34469">
        <ele>174</ele>
        <time>2025-04-16T10:35:04Z</time>
      </trkpt>
      <trkpt lat="45.20171" lon="0.34477">
        <ele>174</ele>
        <time>2025-04-16T10:35:08Z</time>
      </trkpt>
      <trkpt lat="45.20256" lon="0.34524">
        <ele>171</ele>
        <time>2025-04-16T10:35:24Z</time>
      </trkpt>
      <trkpt lat="45.20347" lon="0.34586">
        <ele>175</ele>
        <time>2025-04-16T10:35:42Z</time>
      </trkpt>
      <trkpt lat="45.20388" lon="0.34617">
        <ele>175</ele>
        <time>2025-04-16T10:35:50Z</time>
      </trkpt>
      <trkpt lat="45.20427" lon="0.34647">
        <ele>176</ele>
        <time>2025-04-16T10:35:58Z</time>
      </trkpt>
      <trkpt lat="45.2048" lon="0.34684">
        <ele>178</ele>
        <time>2025-04-16T10:36:09Z</time>
      </trkpt>
      <trkpt lat="45.20515" lon="0.34715">
        <ele>178</ele>
        <time>2025-04-16T10:36:16Z</time>
      </trkpt>
      <trkpt lat="45.20566" lon="0.34779">
        <ele>180</ele>
        <time>2025-04-16T10:36:28Z</time>
      </trkpt>
      <trkpt lat="45.20593" lon="0.34803">
        <ele>181</ele>
        <time>2025-04-16T10:36:34Z</time>
      </trkpt>
      <trkpt lat="45.20617" lon="0.34815">
        <ele>182</ele>
        <time>2025-04-16T10:36:39Z</time>
      </trkpt>
      <trkpt lat="45.2063" lon="0.34818">
        <ele>182</ele>
        <time>2025-04-16T10:36:41Z</time>
      </trkpt>
      <trkpt lat="45.20677" lon="0.3482">
        <ele>182</ele>
        <time>2025-04-16T10:36:49Z</time>
      </trkpt>
      <trkpt lat="45.20703" lon="0.3482">
        <ele>182</ele>
        <time>2025-04-16T10:36:54Z</time>
      </trkpt>
      <trkpt lat="45.20734" lon="0.34816">
        <ele>181</ele>
        <time>2025-04-16T10:36:59Z</time>
      </trkpt>
      <trkpt lat="45.20761" lon="0.34808">
        <ele>181</ele>
        <time>2025-04-16T10:37:04Z</time>
      </trkpt>
      <trkpt lat="45.20791" lon="0.34792">
        <ele>181</ele>
        <time>2025-04-16T10:37:10Z</time>
      </trkpt>
      <trkpt lat="45.20958" lon="0.34703">
        <ele>182</ele>
        <time>2025-04-16T10:37:42Z</time>
      </trkpt>
      <trkpt lat="45.20984" lon="0.34685">
        <ele>182</ele>
        <time>2025-04-16T10:37:47Z</time>
      </trkpt>
      <trkpt lat="45.21105" lon="0.34589">
        <ele>185</ele>
        <time>2025-04-16T10:38:12Z</time>
      </trkpt>
      <trkpt lat="45.21122" lon="0.34581">
        <ele>185</ele>
        <time>2025-04-16T10:38:15Z</time>
      </trkpt>
      <trkpt lat="45.21139" lon="0.34576">
        <ele>185</ele>
        <time>2025-04-16T10:38:18Z</time>
      </trkpt>
      <trkpt lat="45.21263" lon="0.34563">
        <ele>186</ele>
        <time>2025-04-16T10:38:40Z</time>
      </trkpt>
      <trkpt lat="45.21283" lon="0.34556">
        <ele>186</ele>
        <time>2025-04-16T10:38:44Z</time>
      </trkpt>
      <trkpt lat="45.21306" lon="0.34544">
        <ele>186</ele>
        <time>2025-04-16T10:38:48Z</time>
      </trkpt>
      <trkpt lat="45.21365" lon="0.34499">
        <ele>186</ele>
        <time>2025-04-16T10:39:00Z</time>
      </trkpt>
      <trkpt lat="45.21463" lon="0.34419">
        <ele>187</ele>
        <time>2025-04-16T10:39:20Z</time>
      </trkpt>
      <trkpt lat="45.21516" lon="0.34382">
        <ele>185</ele>
        <time>2025-04-16T10:39:31Z</time>
      </trkpt>
      <trkpt lat="45.21532" lon="0.34376">
        <ele>184</ele>
        <time>2025-04-16T10:39:33Z</time>
      </trkpt>
      <trkpt lat="45.21542" lon="0.34374">
        <ele>184</ele>
        <time>2025-04-16T10:39:35Z</time>
      </trkpt>
      <trkpt lat="45.21578" lon="0.34367">
        <ele>183</ele>
        <time>2025-04-16T10:39:42Z</time>
      </trkpt>
      <trkpt lat="45.21809" lon="0.3434">
        <ele>180</ele>
        <time>2025-04-16T10:40:23Z</time>
      </trkpt>
      <trkpt lat="45.21835" lon="0.3434">
        <ele>178</ele>
        <time>2025-04-16T10:40:28Z</time>
      </trkpt>
      <trkpt lat="45.21849" lon="0.34349">
        <ele>176</ele>
        <time>2025-04-16T10:40:30Z</time>
      </trkpt>
      <trkpt lat="45.21871" lon="0.3437">
        <ele>174</ele>
        <time>2025-04-16T10:40:35Z</time>
      </trkpt>
      <trkpt lat="45.21929" lon="0.34434">
        <ele>171</ele>
        <time>2025-04-16T10:40:48Z</time>
      </trkpt>
      <trkpt lat="45.2196" lon="0.34465">
        <ele>169</ele>
        <time>2025-04-16T10:40:55Z</time>
      </trkpt>
      <trkpt lat="45.21997" lon="0.34488">
        <ele>165</ele>
        <time>2025-04-16T10:41:02Z</time>
      </trkpt>
      <trkpt lat="45.22047" lon="0.34512">
        <ele>160</ele>
        <time>2025-04-16T10:41:11Z</time>
      </trkpt>
      <trkpt lat="45.22093" lon="0.34529">
        <ele>155</ele>
        <time>2025-04-16T10:41:20Z</time>
      </trkpt>
      <trkpt lat="45.22107" lon="0.34532">
        <ele>154</ele>
        <time>2025-04-16T10:41:22Z</time>
      </trkpt>
      <trkpt lat="45.22115" lon="0.34533">
        <ele>153</ele>
        <time>2025-04-16T10:41:24Z</time>
      </trkpt>
      <trkpt lat="45.22149" lon="0.34524">
        <ele>151</ele>
        <time>2025-04-16T10:41:30Z</time>
      </trkpt>
      <trkpt lat="45.22199" lon="0.34503">
        <ele>150</ele>
        <time>2025-04-16T10:41:39Z</time>
      </trkpt>
      <trkpt lat="45.22213" lon="0.34492">
        <ele>150</ele>
        <time>2025-04-16T10:41:42Z</time>
      </trkpt>
      <trkpt lat="45.22233" lon="0.34471">
        <ele>149</ele>
        <time>2025-04-16T10:41:47Z</time>
      </trkpt>
      <trkpt lat="45.22245" lon="0.34455">
        <ele>148</ele>
        <time>2025-04-16T10:41:49Z</time>
      </trkpt>
      <trkpt lat="45.22264" lon="0.34411">
        <ele>148</ele>
        <time>2025-04-16T10:41:56Z</time>
      </trkpt>
      <trkpt lat="45.22284" lon="0.34325">
        <ele>145</ele>
        <time>2025-04-16T10:42:07Z</time>
      </trkpt>
      <trkpt lat="45.22305" lon="0.34227">
        <ele>142</ele>
        <time>2025-04-16T10:42:20Z</time>
      </trkpt>
      <trkpt lat="45.22317" lon="0.34196">
        <ele>141</ele>
        <time>2025-04-16T10:42:25Z</time>
      </trkpt>
      <trkpt lat="45.2234" lon="0.34154">
        <ele>141</ele>
        <time>2025-04-16T10:42:31Z</time>
      </trkpt>
      <trkpt lat="45.22367" lon="0.34111">
        <ele>140</ele>
        <time>2025-04-16T10:42:38Z</time>
      </trkpt>
      <trkpt lat="45.22378" lon="0.34086">
        <ele>139</ele>
        <time>2025-04-16T10:42:42Z</time>
      </trkpt>
      <trkpt lat="45.22387" lon="0.34047">
        <ele>138</ele>
        <time>2025-04-16T10:42:47Z</time>
      </trkpt>
      <trkpt lat="45.22398" lon="0.33987">
        <ele>136</ele>
        <time>2025-04-16T10:42:55Z</time>
      </trkpt>
      <trkpt lat="45.224" lon="0.33979">
        <ele>136</ele>
        <time>2025-04-16T10:42:56Z</time>
      </trkpt>
      <trkpt lat="45.22405" lon="0.33965">
        <ele>136</ele>
        <time>2025-04-16T10:42:58Z</time>
      </trkpt>
      <trkpt lat="45.22415" lon="0.33943">
        <ele>135</ele>
        <time>2025-04-16T10:43:01Z</time>
      </trkpt>
      <trkpt lat="45.22438" lon="0.33909">
        <ele>135</ele>
        <time>2025-04-16T10:43:07Z</time>
      </trkpt>
      <trkpt lat="45.22465" lon="0.33857">
        <ele>132</ele>
        <time>2025-04-16T10:43:15Z</time>
      </trkpt>
      <trkpt lat="45.2252" lon="0.33776">
        <ele>129</ele>
        <time>2025-04-16T10:43:29Z</time>
      </trkpt>
      <trkpt lat="45.22597" lon="0.33647">
        <ele>125</ele>
        <time>2025-04-16T10:43:51Z</time>
      </trkpt>
      <trkpt lat="45.22612" lon="0.33627">
        <ele>124</ele>
        <time>2025-04-16T10:43:54Z</time>
      </trkpt>
      <trkpt lat="45.22624" lon="0.33615">
        <ele>123</ele>
        <time>2025-04-16T10:43:57Z</time>
      </trkpt>
      <trkpt lat="45.22636" lon="0.33607">
        <ele>122</ele>
        <time>2025-04-16T10:43:59Z</time>
      </trkpt>
      <trkpt lat="45.22647" lon="0.33601">
        <ele>122</ele>
        <time>2025-04-16T10:44:01Z</time>
      </trkpt>
      <trkpt lat="45.22662" lon="0.33594">
        <ele>121</ele>
        <time>2025-04-16T10:44:04Z</time>
      </trkpt>
      <trkpt lat="45.22729" lon="0.33565">
        <ele>119</ele>
        <time>2025-04-16T10:44:17Z</time>
      </trkpt>
      <trkpt lat="45.22866" lon="0.33483">
        <ele>113</ele>
        <time>2025-04-16T10:44:43Z</time>
      </trkpt>
      <trkpt lat="45.22878" lon="0.3348">
        <ele>112</ele>
        <time>2025-04-16T10:44:45Z</time>
      </trkpt>
      <trkpt lat="45.22892" lon="0.33483">
        <ele>111</ele>
        <time>2025-04-16T10:44:48Z</time>
      </trkpt>
      <trkpt lat="45.22917" lon="0.33497">
        <ele>111</ele>
        <time>2025-04-16T10:44:53Z</time>
      </trkpt>
      <trkpt lat="45.22931" lon="0.33503">
        <ele>112</ele>
        <time>2025-04-16T10:44:55Z</time>
      </trkpt>
      <trkpt lat="45.22944" lon="0.33503">
        <ele>112</ele>
        <time>2025-04-16T10:44:58Z</time>
      </trkpt>
      <trkpt lat="45.22955" lon="0.335">
        <ele>112</ele>
        <time>2025-04-16T10:45:00Z</time>
      </trkpt>
      <trkpt lat="45.22965" lon="0.33495">
        <ele>112</ele>
        <time>2025-04-16T10:45:01Z</time>
      </trkpt>
      <trkpt lat="45.22978" lon="0.33484">
        <ele>112</ele>
        <time>2025-04-16T10:45:04Z</time>
      </trkpt>
      <trkpt lat="45.23001" lon="0.33456">
        <ele>111</ele>
        <time>2025-04-16T10:45:09Z</time>
      </trkpt>
      <trkpt lat="45.2301" lon="0.33449">
        <ele>111</ele>
        <time>2025-04-16T10:45:11Z</time>
      </trkpt>
      <trkpt lat="45.23021" lon="0.33445">
        <ele>111</ele>
        <time>2025-04-16T10:45:13Z</time>
      </trkpt>
      <trkpt lat="45.23037" lon="0.33445">
        <ele>111</ele>
        <time>2025-04-16T10:45:16Z</time>
      </trkpt>
      <trkpt lat="45.23055" lon="0.33455">
        <ele>112</ele>
        <time>2025-04-16T10:45:20Z</time>
      </trkpt>
      <trkpt lat="45.23085" lon="0.33471">
        <ele>113</ele>
        <time>2025-04-16T10:45:25Z</time>
      </trkpt>
      <trkpt lat="45.2309" lon="0.33473">
        <ele>113</ele>
        <time>2025-04-16T10:45:26Z</time>
      </trkpt>
      <trkpt lat="45.23103" lon="0.33476">
        <ele>113</ele>
        <time>2025-04-16T10:45:29Z</time>
      </trkpt>
      <trkpt lat="45.23119" lon="0.33475">
        <ele>112</ele>
        <time>2025-04-16T10:45:31Z</time>
      </trkpt>
      <trkpt lat="45.2314" lon="0.33472">
        <ele>111</ele>
        <time>2025-04-16T10:45:35Z</time>
      </trkpt>
      <trkpt lat="45.23165" lon="0.33464">
        <ele>109</ele>
        <time>2025-04-16T10:45:40Z</time>
      </trkpt>
      <trkpt lat="45.23176" lon="0.33457">
        <ele>109</ele>
        <time>2025-04-16T10:45:42Z</time>
      </trkpt>
      <trkpt lat="45.23198" lon="0.33439">
        <ele>108</ele>
        <time>2025-04-16T10:45:46Z</time>
      </trkpt>
      <trkpt lat="45.23233" lon="0.33407">
        <ele>106</ele>
        <time>2025-04-16T10:45:54Z</time>
      </trkpt>
      <trkpt lat="45.23247" lon="0.33398">
        <ele>105</ele>
        <time>2025-04-16T10:45:57Z</time>
      </trkpt>
      <trkpt lat="45.23259" lon="0.33393">
        <ele>105</ele>
        <time>2025-04-16T10:45:59Z</time>
      </trkpt>
      <trkpt lat="45.23277" lon="0.33391">
        <ele>103</ele>
        <time>2025-04-16T10:46:02Z</time>
      </trkpt>
      <trkpt lat="45.23369" lon="0.33394">
        <ele>101</ele>
        <time>2025-04-16T10:46:18Z</time>
      </trkpt>
      <trkpt lat="45.23399" lon="0.33386">
        <ele>101</ele>
        <time>2025-04-16T10:46:24Z</time>
      </trkpt>
      <trkpt lat="45.23459" lon="0.33365">
        <ele>98</ele>
        <time>2025-04-16T10:46:35Z</time>
      </trkpt>
      <trkpt lat="45.23481" lon="0.33366">
        <ele>99</ele>
        <time>2025-04-16T10:46:39Z</time>
      </trkpt>
      <trkpt lat="45.23589" lon="0.33406">
        <ele>95</ele>
        <time>2025-04-16T10:46:59Z</time>
      </trkpt>
      <trkpt lat="45.2366" lon="0.33446">
        <ele>93</ele>
        <time>2025-04-16T10:47:12Z</time>
      </trkpt>
      <trkpt lat="45.23701" lon="0.33486">
        <ele>92</ele>
        <time>2025-04-16T10:47:21Z</time>
      </trkpt>
      <trkpt lat="45.23722" lon="0.33502">
        <ele>90</ele>
        <time>2025-04-16T10:47:25Z</time>
      </trkpt>
      <trkpt lat="45.23796" lon="0.33542">
        <ele>89</ele>
        <time>2025-04-16T10:47:39Z</time>
      </trkpt>
      <trkpt lat="45.23848" lon="0.33565">
        <ele>88</ele>
        <time>2025-04-16T10:47:49Z</time>
      </trkpt>
      <trkpt lat="45.23915" lon="0.33598">
        <ele>86</ele>
        <time>2025-04-16T10:48:02Z</time>
      </trkpt>
      <trkpt lat="45.2393" lon="0.336">
        <ele>85</ele>
        <time>2025-04-16T10:48:04Z</time>
      </trkpt>
      <trkpt lat="45.23942" lon="0.33598">
        <ele>84</ele>
        <time>2025-04-16T10:48:06Z</time>
      </trkpt>
      <trkpt lat="45.23956" lon="0.33587">
        <ele>83</ele>
        <time>2025-04-16T10:48:09Z</time>
      </trkpt>
      <trkpt lat="45.23978" lon="0.33567">
        <ele>83</ele>
        <time>2025-04-16T10:48:14Z</time>
      </trkpt>
      <trkpt lat="45.24023" lon="0.33625">
        <ele>83</ele>
        <time>2025-04-16T10:48:25Z</time>
      </trkpt>
      <trkpt lat="45.24086" lon="0.33694">
        <ele>84</ele>
        <time>2025-04-16T10:48:39Z</time>
      </trkpt>
      <trkpt lat="45.24139" lon="0.33757">
        <ele>81</ele>
        <time>2025-04-16T10:48:51Z</time>
      </trkpt>
      <trkpt lat="45.24313" lon="0.3396">
        <ele>77</ele>
        <time>2025-04-16T10:49:31Z</time>
      </trkpt>
      <trkpt lat="45.24361" lon="0.34009">
        <ele>75</ele>
        <time>2025-04-16T10:49:42Z</time>
      </trkpt>
      <trkpt lat="45.2436" lon="0.34018">
        <ele>75</ele>
        <time>2025-04-16T10:49:43Z</time>
      </trkpt>
      <trkpt lat="45.24362" lon="0.34024">
        <ele>75</ele>
        <time>2025-04-16T10:49:44Z</time>
      </trkpt>
      <trkpt lat="45.24369" lon="0.34029">
        <ele>75</ele>
        <time>2025-04-16T10:49:45Z</time>
      </trkpt>
      <trkpt lat="45.24372" lon="0.34029">
        <ele>75</ele>
        <time>2025-04-16T10:49:46Z</time>
      </trkpt>
      <trkpt lat="45.24374" lon="0.34048">
        <ele>75</ele>
        <time>2025-04-16T10:49:48Z</time>
      </trkpt>
      <trkpt lat="45.24391" lon="0.34098">
        <ele>74</ele>
        <time>2025-04-16T10:49:55Z</time>
      </trkpt>
      <trkpt lat="45.24407" lon="0.34146">
        <ele>73</ele>
        <time>2025-04-16T10:50:02Z</time>
      </trkpt>
      <trkpt lat="45.2441" lon="0.34156">
        <ele>73</ele>
        <time>2025-04-16T10:50:03Z</time>
      </trkpt>
      <trkpt lat="45.24431" lon="0.34217">
        <ele>75</ele>
        <time>2025-04-16T10:50:12Z</time>
      </trkpt>
      <trkpt lat="45.24438" lon="0.34212">
        <ele>75</ele>
        <time>2025-04-16T10:50:13Z</time>
      </trkpt>
      <trkpt lat="45.2458" lon="0.34083">
        <ele>75</ele>
        <time>2025-04-16T10:50:43Z</time>
      </trkpt>
      <trkpt lat="45.24587" lon="0.34076">
        <ele>75</ele>
        <time>2025-04-16T10:50:45Z</time>
      </trkpt>
      <trkpt lat="45.246" lon="0.34068">
        <ele>76</ele>
        <time>2025-04-16T10:50:47Z</time>
      </trkpt>
      <trkpt lat="45.24652" lon="0.34034">
        <ele>77</ele>
        <time>2025-04-16T10:50:57Z</time>
      </trkpt>
      <trkpt lat="45.24654" lon="0.34033">
        <ele>77</ele>
        <time>2025-04-16T10:50:58Z</time>
      </trkpt>
      <trkpt lat="45.24685" lon="0.34015">
        <ele>76</ele>
        <time>2025-04-16T10:51:04Z</time>
      </trkpt>
      <trkpt lat="45.24698" lon="0.34007">
        <ele>76</ele>
        <time>2025-04-16T10:51:06Z</time>
      </trkpt>
      <trkpt lat="45.24714" lon="0.33999">
        <ele>75</ele>
        <time>2025-04-16T10:51:09Z</time>
      </trkpt>
      <trkpt lat="45.24729" lon="0.33991">
        <ele>75</ele>
        <time>2025-04-16T10:51:12Z</time>
      </trkpt>
      <trkpt lat="45.24738" lon="0.33987">
        <ele>75</ele>
        <time>2025-04-16T10:51:14Z</time>
      </trkpt>
      <trkpt lat="45.24758" lon="0.33984">
        <ele>74</ele>
        <time>2025-04-16T10:51:17Z</time>
      </trkpt>
      <trkpt lat="45.24778" lon="0.33985">
        <ele>75</ele>
        <time>2025-04-16T10:51:21Z</time>
      </trkpt>
      <trkpt lat="45.24782" lon="0.33989">
        <ele>75</ele>
        <time>2025-04-16T10:51:22Z</time>
      </trkpt>
      <trkpt lat="45.24798" lon="0.33999">
        <ele>76</ele>
        <time>2025-04-16T10:51:25Z</time>
      </trkpt>
      <trkpt lat="45.24806" lon="0.34006">
        <ele>76</ele>
        <time>2025-04-16T10:51:26Z</time>
      </trkpt>
      <trkpt lat="45.24815" lon="0.34011">
        <ele>77</ele>
        <time>2025-04-16T10:51:28Z</time>
      </trkpt>
      <trkpt lat="45.24825" lon="0.3401">
        <ele>77</ele>
        <time>2025-04-16T10:51:30Z</time>
      </trkpt>
      <trkpt lat="45.24833" lon="0.34043">
        <ele>80</ele>
        <time>2025-04-16T10:51:34Z</time>
      </trkpt>
      <trkpt lat="45.24878" lon="0.34024">
        <ele>79</ele>
        <time>2025-04-16T10:51:43Z</time>
      </trkpt>
      <trkpt lat="45.24896" lon="0.34019">
        <ele>79</ele>
        <time>2025-04-16T10:51:46Z</time>
      </trkpt>
      <trkpt lat="45.24904" lon="0.3402">
        <ele>79</ele>
        <time>2025-04-16T10:51:47Z</time>
      </trkpt>
      <trkpt lat="45.24918" lon="0.34013">
        <ele>79</ele>
        <time>2025-04-16T10:51:50Z</time>
      </trkpt>
      <trkpt lat="45.24941" lon="0.33981">
        <ele>79</ele>
        <time>2025-04-16T10:51:56Z</time>
      </trkpt>
      <trkpt lat="45.24939" lon="0.33964">
        <ele>78</ele>
        <time>2025-04-16T10:51:58Z</time>
      </trkpt>
      <trkpt lat="45.25001" lon="0.33939">
        <ele>79</ele>
        <time>2025-04-16T10:52:09Z</time>
      </trkpt>
      <trkpt lat="45.25036" lon="0.33934">
        <ele>77</ele>
        <time>2025-04-16T10:52:16Z</time>
      </trkpt>
      <trkpt lat="45.25059" lon="0.33935">
        <ele>77</ele>
        <time>2025-04-16T10:52:20Z</time>
      </trkpt>
      <trkpt lat="45.25078" lon="0.33938">
        <ele>77</ele>
        <time>2025-04-16T10:52:23Z</time>
      </trkpt>
      <trkpt lat="45.25132" lon="0.33956">
        <ele>77</ele>
        <time>2025-04-16T10:52:33Z</time>
      </trkpt>
      <trkpt lat="45.25244" lon="0.34003">
        <ele>76</ele>
        <time>2025-04-16T10:52:54Z</time>
      </trkpt>
      <trkpt lat="45.25323" lon="0.34039">
        <ele>74</ele>
        <time>2025-04-16T10:53:08Z</time>
      </trkpt>
      <trkpt lat="45.25371" lon="0.34061">
        <ele>72</ele>
        <time>2025-04-16T10:53:17Z</time>
      </trkpt>
      <trkpt lat="45.25396" lon="0.34079">
        <ele>71</ele>
        <time>2025-04-16T10:53:22Z</time>
      </trkpt>
      <trkpt lat="45.25406" lon="0.34086">
        <ele>70</ele>
        <time>2025-04-16T10:53:24Z</time>
      </trkpt>
      <trkpt lat="45.25429" lon="0.34096">
        <ele>69</ele>
        <time>2025-04-16T10:53:29Z</time>
      </trkpt>
      <trkpt lat="45.25443" lon="0.34102">
        <ele>68</ele>
        <time>2025-04-16T10:53:31Z</time>
      </trkpt>
      <trkpt lat="45.25442" lon="0.34109">
        <ele>68</ele>
        <time>2025-04-16T10:53:32Z</time>
      </trkpt>
      <trkpt lat="45.25444" lon="0.34115">
        <ele>68</ele>
        <time>2025-04-16T10:53:33Z</time>
      </trkpt>
      <trkpt lat="45.2545" lon="0.34121">
        <ele>68</ele>
        <time>2025-04-16T10:53:34Z</time>
      </trkpt>
      <trkpt lat="45.25456" lon="0.34121">
        <ele>67</ele>
        <time>2025-04-16T10:53:35Z</time>
      </trkpt>
      <trkpt lat="45.25462" lon="0.34115">
        <ele>67</ele>
        <time>2025-04-16T10:53:37Z</time>
      </trkpt>
      <trkpt lat="45.25463" lon="0.34104">
        <ele>67</ele>
        <time>2025-04-16T10:53:38Z</time>
      </trkpt>
      <trkpt lat="45.25462" lon="0.34099">
        <ele>67</ele>
        <time>2025-04-16T10:53:39Z</time>
      </trkpt>
      <trkpt lat="45.25466" lon="0.3409">
        <ele>67</ele>
        <time>2025-04-16T10:53:40Z</time>
      </trkpt>
      <trkpt lat="45.25469" lon="0.34083">
        <ele>66</ele>
        <time>2025-04-16T10:53:41Z</time>
      </trkpt>
      <trkpt lat="45.25484" lon="0.34069">
        <ele>66</ele>
        <time>2025-04-16T10:53:44Z</time>
      </trkpt>
      <trkpt lat="45.25489" lon="0.34062">
        <ele>65</ele>
        <time>2025-04-16T10:53:46Z</time>
      </trkpt>
      <trkpt lat="45.25494" lon="0.34054">
        <ele>65</ele>
        <time>2025-04-16T10:53:47Z</time>
      </trkpt>
      <trkpt lat="45.255" lon="0.34039">
        <ele>64</ele>
        <time>2025-04-16T10:53:49Z</time>
      </trkpt>
      <trkpt lat="45.25507" lon="0.3401">
        <ele>64</ele>
        <time>2025-04-16T10:53:53Z</time>
      </trkpt>
      <trkpt lat="45.25513" lon="0.33978">
        <ele>64</ele>
        <time>2025-04-16T10:53:57Z</time>
      </trkpt>
      <trkpt lat="45.25514" lon="0.33974">
        <ele>64</ele>
        <time>2025-04-16T10:53:58Z</time>
      </trkpt>
      <trkpt lat="45.25547" lon="0.33806">
        <ele>67</ele>
        <time>2025-04-16T10:54:19Z</time>
      </trkpt>
      <trkpt lat="45.25549" lon="0.33787">
        <ele>67</ele>
        <time>2025-04-16T10:54:22Z</time>
      </trkpt>
      <trkpt lat="45.2555" lon="0.33766">
        <ele>68</ele>
        <time>2025-04-16T10:54:24Z</time>
      </trkpt>
      <trkpt lat="45.25547" lon="0.33741">
        <ele>68</ele>
        <time>2025-04-16T10:54:28Z</time>
      </trkpt>
      <trkpt lat="45.25541" lon="0.33708">
        <ele>69</ele>
        <time>2025-04-16T10:54:32Z</time>
      </trkpt>
      <trkpt lat="45.25539" lon="0.33679">
        <ele>69</ele>
        <time>2025-04-16T10:54:36Z</time>
      </trkpt>
      <trkpt lat="45.25536" lon="0.33672">
        <ele>70</ele>
        <time>2025-04-16T10:54:37Z</time>
      </trkpt>
      <trkpt lat="45.2553" lon="0.33667">
        <ele>70</ele>
        <time>2025-04-16T10:54:38Z</time>
      </trkpt>
      <trkpt lat="45.25452" lon="0.33655">
        <ele>70</ele>
        <time>2025-04-16T10:54:52Z</time>
      </trkpt>
      <trkpt lat="45.25437" lon="0.3365">
        <ele>69</ele>
        <time>2025-04-16T10:54:55Z</time>
      </trkpt>
      <trkpt lat="45.25316" lon="0.3363">
        <ele>71</ele>
        <time>2025-04-16T10:55:16Z</time>
      </trkpt>
      <trkpt lat="45.25296" lon="0.33628">
        <ele>72</ele>
        <time>2025-04-16T10:55:20Z</time>
      </trkpt>
      <trkpt lat="45.25271" lon="0.33624">
        <ele>72</ele>
        <time>2025-04-16T10:55:24Z</time>
      </trkpt>
      <trkpt lat="45.25248" lon="0.33621">
        <ele>72</ele>
        <time>2025-04-16T10:55:28Z</time>
      </trkpt>
      <trkpt lat="45.25116" lon="0.33599">
        <ele>72</ele>
        <time>2025-04-16T10:55:52Z</time>
      </trkpt>
      <trkpt lat="45.25076" lon="0.33593">
        <ele>72</ele>
        <time>2025-04-16T10:55:59Z</time>
      </trkpt>
      <trkpt lat="45.25073" lon="0.33623">
        <ele>71</ele>
        <time>2025-04-16T10:56:03Z</time>
      </trkpt>
      <trkpt lat="45.25077" lon="0.33681">
        <ele>70</ele>
        <time>2025-04-16T10:56:10Z</time>
      </trkpt>
      <trkpt lat="45.25052" lon="0.33686">
        <ele>71</ele>
        <time>2025-04-16T10:56:15Z</time>
      </trkpt>
      <trkpt lat="45.25043" lon="0.33688">
        <ele>71</ele>
        <time>2025-04-16T10:56:16Z</time>
      </trkpt>
      <trkpt lat="45.2503" lon="0.33691">
        <ele>71</ele>
        <time>2025-04-16T10:56:19Z</time>
      </trkpt>
      <trkpt lat="45.25015" lon="0.33694">
        <ele>71</ele>
        <time>2025-04-16T10:56:21Z</time>
      </trkpt>
      <trkpt lat="45.25001" lon="0.33696">
        <ele>72</ele>
        <time>2025-04-16T10:56:24Z</time>
      </trkpt>
      <trkpt lat="45.24996" lon="0.33697">
        <ele>72</ele>
        <time>2025-04-16T10:56:25Z</time>
      </trkpt>
    </trkseg>
  </trk>
</gpx>